     2              OBSERVATION DATA    GPS                 RINEX VERSION / TYPE
TRRINEXO-V2.3.1-LH UCLA/SCEC 28-FEB-1994                    PGM / RUN BY / DATE
                                                            COMMENT
BIT 2 OF LLI (+4) FLAGS DATA COLLECTED UNDER "AS" CONDITION COMMENT
BIT 2 OF LLI (+4) FLAGS DATA COLLECTED UNDER "AS" CONDITION COMMENT
Original Marker Name: CALABASAS 1933                        COMMENT
Campaign Name: Northridge 1994                              COMMENT
4-Character Station Name: 0087                              COMMENT
6-Character Antenna Code: TRMSST                            COMMENT
Vertical Measurement Point: BGP                             COMMENT
Vertical Offset to Rinex Ref. Point: 0.0597                 COMMENT
Radial Measurement Point: NGP                               COMMENT
Radial Offset to Rinex Ref. Point: 0.2334                   COMMENT
Antenna Height from Field Measurement: 1.6230 m             COMMENT
Original XYZ: -2533549.1460 -4638139.8476 3559628.5908      COMMENT
New XYZ position is based on association with SCEC monument COMMENT
E1C7Y9N6+0011. Position of that monument is believed to be  COMMENT
valid to within 1 m horizontally; vertical accuracy         COMMENT
should be no worse than 3-times this value.                 COMMENT
                                                            COMMENT
Revised Rinex header created by UCSD GPS archive for        COMMENT
GSAC on 10-Apr-1999 (1999:100) 01:13:31 GMT                 COMMENT
For assistance contact dagnew@ucsd.edu or hjohnson@ucsd.edu COMMENT
                                                            COMMENT
CALABASAS 1933 RE 62                                        MARKER NAME
R. STRAIGHT CALIF DEPT TRANSPORTATION DISTRICT 7            OBSERVER / AGENCY
1966 TRIMBLE 4000 SST 4.81                                  REC # / TYPE / VERS
2759 TR 4000SST L1/L2 GEO                                   ANT # / TYPE
 -2533555.0000 -4638069.0000  3559574.0000                  APPROX POSITION XYZ
        1.5464        0.0000        0.0000                  ANTENNA: DELTA H/E/N
     1     2     0                                          WAVELENGTH FACT L1/2
     3    C1    L1    L2                                    # / TYPES OF OBSERV
    30                                                      INTERVAL
  1994     2    17    17    18   30.000000                  TIME OF FIRST OBS
  1994     2    17    23     0    0.000000                  TIME OF LAST OBS
     0                                                      # OF SATELLITES
                                                            END OF HEADER
 94  2 17 17 18 30.0000000  0  5 14 15 25 29 22
  20924994.234      -13274.02217
  22186283.938       53779.65217
  21924737.930       49358.69517
  22396844.688      -11769.79916
  22744439.898      -25779.80516
 94  2 17 17 19  0.0000000  0  5 14 15 25 29 22
  20919975.734      -39649.040 7    -10253.36518
  22206779.102      161501.403 7     41989.71317
  21943554.266      148229.978 7     38541.23417
  22392364.461      -35321.259 6        -0.23016
  22734646.211      -77214.788 6        -0.13015
 94  2 17 17 19 30.0000000  0  5 14 15 25 29 22
  20915002.305      -65788.931 7    -30622.103 8
  22227320.563      269438.255 7    126096.295 7
  21962406.406      247302.024 7    115740.171 7
  22387876.570      -58909.036 7    -18380.301 6
  22724893.133     -128487.369 6    -39952.711 5
 94  2 17 17 20  0.0000000  0  5 14 15 25 29 22
  20910069.891      -91698.594 7    -50811.451 8
  22247897.898      377593.872 7    210373.335 7
  21981291.430      346558.918 6    193083.157 7
  22383380.289      -82525.657 7    -36782.853 6
  22715163.859     -179609.402 6    -79787.998 5
 94  2 17 17 20 30.0000000  0  5 14 15 25 29 22
  20905188.633     -117363.219 7    -70809.849 8
  22268526.133      485980.250 7    294830.190 6
  22000219.719      446014.663 7    270581.087 7
  22378890.016     -106149.128 6    -55190.743 6
  22705462.414     -230573.135 6   -119499.936 6
 94  2 17 17 21  0.0000000  0  5 14 15 25 29 22
  20900351.594     -142780.856 7    -90615.799 8
  22289195.391      594596.209 7    379465.936 6
  22019179.992      545647.052 7    348216.669 7
  22374390.555     -129784.562 6    -73607.961 6
  22695796.641     -281381.134 6   -159090.541 5
 94  2 17 17 21 30.0000000  0  5 14 15 25 29 22
  20895562.352     -167951.849 7   -110229.556 8
  22309905.008      703444.775 7    464282.941 6
  22038170.336      645449.815 7    425985.013 7
  22369888.875     -153439.960 7    -92040.732 6
  22686159.102     -332004.424 6   -198537.221 5
 94  2 17 17 22  0.0000000  0  5 14 15 25 29 22
  20890820.508     -192871.393 7   -129647.384 8
  22330661.297      812526.026 7    549281.260 6
  22057198.500      745430.239 7    503891.789 7
  22365386.234     -177101.438 6   -110478.233 6
  22676570.188     -382409.622 6   -237813.962 6
 94  2 17 17 22 30.0000000  0  5 14 15 25 29 22
  20886127.820     -217529.997 7   -148861.889 8
  22351466.289      921837.679 7    634459.108 6
  22076257.539      845579.638 7    581930.227 6
  22360879.250     -200769.864 6   -128921.157 6
  22667024.070     -432575.999 6   -276904.613 6
 94  2 17 17 23  0.0000000  0  5 14 15 25 29 22
  20881487.984     -241917.252 7   -167864.948 8
  22372308.805     1031383.271 7    719819.248 6
  22095343.211      945900.565 7    660102.328 6
  22356380.383     -224430.344 6   -147357.883 6
  22657526.109     -482490.866 6   -315799.275 6
 94  2 17 17 23 30.0000000  0  5 14 15 25 29 22
  20876900.211     -266023.904 7   -186649.359 8
  22393202.883     1141160.270 7    805359.714 6
  22114471.320     1046410.510 7    738421.717 6
  22351879.188     -248077.133 6   -165783.942 6
  22648075.891     -532150.398 6   -354494.984 6
 94  2 17 17 24  0.0000000  0  5 14 15 25 29 22
  20872367.438     -289840.391 7   -205207.675 8
  22414136.883     1251168.039 7    891079.988 6
  22133631.648     1147098.766 7    816880.051 7
  22347385.055     -271691.529 6   -184184.751 6
  22638668.320     -581579.577 6   -393011.191 6
 94  2 17 17 24 30.0000000  0  5 14 15 25 29 22
  20867890.586     -313352.291 7   -223528.636 8
  22435112.844     1361407.662 7    976980.944 6
  22152827.195     1247971.264 7    895481.951 6
  22342898.281     -295270.066 6   -202557.628 6
  22629305.664     -630793.315 6   -431359.525 6
 94  2 17 17 25  0.0000000  0  5 14 15 25 29 22
  20863478.719     -336547.661 7   -241602.960 8
  22456135.766     1471872.849 7   1063057.654 6
  22172060.125     1349039.404 7    974236.295 6
  22338418.945     -318817.540 6   -220906.295 6
  22619979.563     -679799.024 6   -469545.770 6
 94  2 17 17 25 30.0000000  0  6 14 15 25 29 22 18
  20859123.656     -359429.799 7   -259433.201 8
  22477200.742     1582562.639 7   1149309.387 6
  22191324.766     1450299.164 7   1053139.958 6
  22333941.477     -342343.728 6   -239238.367 6
  22610699.750     -728593.138 6   -507567.128 5
  24857732.273      -52562.223 4
 94  2 17 17 26  0.0000000  0  6 14 15 25 29 22 18
  20854828.414     -382008.045 7   -277026.647 8
  22498305.664     1693476.317 7   1235735.569 6
  22210633.656     1551752.746 7   1132194.640 6
  22329467.375     -365841.895 6   -257548.616 6
  22601451.742     -777170.362 6   -545419.484 6
  24847726.867     -105162.546 4    -20498.22611
 94  2 17 17 26 30.0000000  0  6 14 15 25 29 22 18
  20850589.922     -404286.083 7   -294386.168 8
  22519451.750     1804613.951 7   1322336.266 6
  22229983.250     1653408.501 6   1211406.867 6
  22325001.070     -389316.901 7   -275840.817 6
  22592243.703     -825507.418 6   -583084.701 6
  24837710.695     -157809.524 4    -61521.874 2
 94  2 17 17 27  0.0000000  0  6 14 15 25 29 22 18
  20846405.352     -426270.495 7   -311516.867 8
  22540644.500     1915976.324 7   1409112.096 6
  22249361.336     1755252.752 6   1290766.002 6
  22320541.352     -412762.276 7   -294109.911 6
  22583103.391     -873585.268 6   -620547.926 5
  24827677.711     -210504.500 4   -102582.878 1
 94  2 17 17 27 30.0000000  0  6 14 15 25 29 22 18
  20842276.039     -447973.433 7   -328428.253 7
  22561876.383     2027555.483 6   1496056.843 6
  22268773.445     1857263.516 6   1370254.860 6
  22316084.328     -436176.066 7   -312354.418 6
  22574003.141     -921406.386 6   -657811.109 5
  24817636.844     -263266.813 4   -143696.333 1
 94  2 17 17 28  0.0000000  0  6 14 15 25 29 22 18
  20838201.133     -469379.628 7   -345108.398 8
  22583150.289     2139352.549 6   1583171.392 6
  22288215.117     1959444.576 6   1449876.421 6
  22311639.477     -459553.476 7   -330570.564 6
  22564951.555     -968967.492 6   -694871.684 5
  24807572.922     -316102.695 4
 94  2 17 17 28 30.0000000  0  6 14 15 25 29 22 18
  20834188.813     -490466.734 7   -361539.920 8
  22604468.875     2251368.960 6   1670456.853 6
  22307691.156     2061795.093 7   1529630.021 6
  22307192.328     -482893.721 7   -348757.765 6
  22555953.813    -1016262.240 6   -731724.716 6
  24797527.461     -368999.896 4
 94  2 17 17 29  0.0000000  0  6 14 15 25 29 22 18
  20830242.414     -511211.903 7   -377704.985 8
  22625822.922     2363599.466 6   1757909.144 6
  22327200.742     2164318.786 6   1609518.553 6
  22302763.094     -506195.835 7   -366915.255 6
  22546997.148    -1063298.826 6   -768376.570 6
  24787441.383     -421943.117 3    -20631.09111
 94  2 17 17 29 30.0000000  0  6 14 15 25 29 22 18
  20826362.031     -531602.413 7   -393593.695 8
  22647222.430     2476048.818 6   1845531.950 6
  22346749.383     2267029.962 6   1689553.197 6
  22298332.500     -529465.977 7   -385047.829 6
  22538094.961    -1110080.956 6   -804830.161 6
  24777358.117     -474923.334 3    -61914.366 1
 94  2 17 17 30  0.0000000  0  6 14 15 25 29 22 18
  20822545.945     -551646.501 7   -409212.470 7
  22668666.570     2588712.838 6   1933322.041 6
  22366334.703     2369938.128 6   1769741.329 6
  22293910.602     -552706.274 7   -403157.143 6
  22529247.320    -1156596.465 6   -841075.996 5
  24767268.367     -527941.435 3   -103227.111 1
 94  2 17 17 30 30.0000000  0  6 14 15 25 29 22 18
  20818800.195     -571337.727 7   -424556.279 7
  22690140.648     2701593.846 6   2021281.206 6
  22385953.656     2473046.255 6   1850085.281 6
  22289495.813     -575906.381 7   -421235.126 6
  22520446.938    -1202828.709 6   -877101.097 5
  24757173.945     -580982.030 4   -144557.446 1
 94  2 17 17 31  0.0000000  0  6 14 15 25 29 22 18
  20815117.484     -590683.984 7   -439631.289 7
  22711659.930     2814685.799 6   2109404.745 6
  22405609.930     2576344.827 6   1930577.639 6
  22285086.492     -599078.574 7   -439291.380 6
  22511703.953    -1248774.995 6   -912903.380 6
  24747076.500     -634049.856 4   -185908.942 1
 94  2 17 17 31 30.0000000  0  6 14 15 25 29 22 18
  20811498.461     -609707.571 7   -454454.869 7
  22733227.313     2927994.160 6   2197696.908 6
  22425302.469     2679839.494 6   2011222.779 6
  22280679.453     -622221.546 6   -457324.870 6
  22503022.633    -1294420.947 6   -948471.639 5
  24736975.586     -687139.383 4   -227277.371 1
 94  2 17 17 32  0.0010000  0  6 14 15 25 29 22 18
  20807941.060     -628400.293 7   -469020.604 7
  22754827.427     3041519.238 6   2286157.970 6
  22445032.614     2783526.570 6   2092017.870 6
  22276286.802     -645319.797 7   -475323.477 6
  22494393.341    -1339760.979 6   -983801.491 6
  24726861.083     -740241.831 3   -268655.829 2
 94  2 17 17 32 30.0010000  0  6 14 15 25 29 22 18
  20804452.349     -646738.155 7   -483309.859 7
  22776472.403     3155253.019 6   2374781.609 6
  22464795.216     2887385.027 6   2172946.461 6
  22271895.427     -668377.713 7   -493290.701 6
  22485822.028    -1384799.893 6  -1018896.730 6
  24716770.731     -793335.894 3   -310027.756 3
 94  2 17 17 33  0.0010000  0  6 14 15 25 29 22 18
  20801030.294     -664726.355 7   -497326.621 7
  22798152.669     3269193.259 6   2463566.167 6
  22484592.755     2991412.334 6   2254006.671 6
  22267517.224     -691395.437 7   -511226.563 6
  22477308.606    -1429537.638 6  -1053757.261 6
  24706665.747     -846433.934 3   -351402.789 3
 94  2 17 17 33 30.0010000  0  6 14 15 25 29 22 18
  20797672.677     -682356.309 7   -511064.244 7
  22819876.583     3383335.804 6   2552508.351 6
  22504422.505     3095611.968 6   2335201.140 6
  22263148.036     -714354.323 7   -529116.592 6
  22468854.763    -1473968.122 6  -1088378.377 6
  24696558.177     -899545.870 4   -392788.673 4
 94  2 17 17 34  0.0010000  0  6 14 15 25 29 22 18
  20794394.489     -699595.707 7   -524497.537 7
  22841636.685     3497685.020 6   2641611.570 6
  22524280.044     3199984.303 6   2416530.180 6
  22258794.825     -737241.726 7   -546950.929 6
  22460460.708    -1518071.524 6  -1122744.626 6
  24686448.302     -952685.297 3   -434195.964 2
 94  2 17 17 34 30.0010000  0  6 14 15 25 29 22 18
  20791186.231     -716446.163 7   -537627.755 7
  22863436.786     3612241.150 6   2730876.021 6
  22544180.708     3304541.770 6   2498003.484 6
  22254450.442     -760057.818 7   -564729.694 6
  22452134.114    -1561836.380 6  -1156847.070 6
  24676329.185    -1005866.582 3   -475635.881 2
 94  2 17 17 35  0.0010000  0  6 14 15 25 29 22 18
  20788054.005     -732908.994 7   -550455.935 7
  22885274.747     3726998.763 6   2820297.468 6
  22564116.536     3409297.241 6   2579631.074 6
  22250125.013     -782799.228 7   -582450.271 7
  22443867.403    -1605261.257 6  -1190684.604 6
  24666193.122    -1059103.469 4   -517119.146 3
 94  2 17 17 35 30.0010000  0  6 14 15 25 29 22 18
  20784993.622     -748987.776 7   -562984.852 7
  22907145.247     3841953.055 6   2909872.184 6
  22584083.786     3514246.815 6   2661409.918 6
  22245809.646     -805482.643 7   -600125.655 6
  22435670.708    -1648350.093 6  -1224260.275 6
  24656050.544    -1112398.161 4   -558647.428 2
 94  2 17 17 36  0.0010000  0  6 14 15 25 29 22 18
  20782005.864     -764691.943 7   -575221.877 7
  22929058.646     3957099.109 6   2999596.310 6
  22604089.450     3619380.002 6   2743331.831 6
  22241499.224     -828118.479 7   -617763.969 7
  22427533.950    -1691108.702 6  -1257578.638 6
  24645897.536    -1165741.482 5   -600213.618 2
 94  2 17 17 36 30.0010000  0  6 14 15 25 29 22 18
  20779088.349     -780015.201 7   -587162.094 7
  22951007.927     4072437.903 6   3089470.631 6
  22624133.489     3724692.181 6   2825393.197 6
  22237204.958     -850700.865 7   -635360.635 7
  22419461.169    -1733532.392 6  -1290636.027 6
  24635744.739    -1219110.201 5   -641799.599 2
 94  2 17 17 37  0.0010000  0  6 14 15 25 29 22 18
  20776244.849     -794958.860 7   -598806.497 7
  22972996.942     4187965.686 6   3179492.220 6
  22644205.028     3830168.290 6   2907582.321 6
  22232917.630     -873227.860 7   -652914.128 7
  22411454.153    -1775605.985 6  -1323420.601 6
  24625586.567    -1272491.714 5   -683395.551 3
 94  2 17 17 37 30.0010000  0  6 14 15 25 29 22 18
  20773471.528     -809533.936 7   -610163.697 7
  22995013.396     4303681.586 6   3269660.390 6
  22664303.208     3935793.464 6   2989887.598 6
  22228641.935     -895688.329 7   -670415.779 7
  22403516.536    -1817324.949 6  -1355928.842 6
  24615432.325    -1325878.803 5   -724995.819 1
 94  2 17 17 38  0.0010000  0  6 14 15 25 29 22 18
  20770771.544     -823732.046 7   -621227.173 7
  23017064.521     4419583.148 6   3359973.226 6
  22684430.153     4041568.920 6   3072309.962 6
  22224383.872     -918060.369 7   -687848.532 7
  22395646.208    -1858691.145 6  -1388162.199 6
  24605266.466    -1379262.646 5   -766593.584 2
 94  2 17 17 38 30.0010000  0  6 14 15 25 29 22 18
  20768140.700     -837554.315 7   -631997.784 7
  23039160.224     4535665.420 6   3450426.870 6
  22704590.528     4147504.114 6   3154856.800 6
  22220145.520     -940351.960 7   -705218.603 7
  22387838.833    -1899699.490 6  -1420116.715 6
  24595109.919    -1432645.282 5   -808190.407 2
 94  2 17 17 39  0.0010000  0  6 14 15 25 29 22 18
  20765582.622     -851003.073 7   -642477.345 7
  23061287.239     4651930.075 6   3541022.631 6
  22724785.271     4253617.464 6   3237542.471 6
  22215915.856     -962570.096 7   -722531.426 7
  22380103.333    -1940351.639 6  -1451793.661 6
  24584953.942    -1486014.374 5   -849776.649 3
 94  2 17 17 39 30.0010000  0  6 14 15 25 29 22 18
  20763095.333     -864069.184 7   -652658.734 7
  23083437.942     4768375.602 6   3631759.338 6
  22745009.052     4359918.086 6   3320374.062 6
  22211699.177     -984718.074 7   -739789.588 7
  22372430.224    -1980661.814 6  -1483204.144 6
  24574804.653    -1539369.282 5   -891351.885 4
 94  2 17 17 40  0.0010000  0  6 14 15 25 29 22 18
  20760685.880     -876732.942 7   -662526.611 7
  23105636.739     4884997.100 6   3722633.155 6
  22765273.106     4466412.475 6   3403356.648 6
  22207495.763    -1006814.502 7   -757007.568 7
  22364833.935    -2020607.308 6  -1514330.446 6
  24564650.849    -1592711.725 5   -932917.390 2
 94  2 17 17 40 30.0010000  0  6 14 15 25 29 22 18
  20758352.364     -888993.193 7   -672080.063 7
  23127860.138     5001788.481 6   3813639.359 6
  22785573.271     4573093.130 6   3486484.369 6
  22203299.692    -1028876.338 7   -774198.611 7
  22357300.497    -2060177.155 6  -1545164.040 6
  24554501.435    -1646046.996 5   -974477.307 2
 94  2 17 17 41  0.0010000  0  6 14 15 25 29 22 18
  20756098.153     -900837.929 7   -681309.739 7
  23150117.325     5118754.628 6   3904781.732 6
  22805908.458     4679939.505 6   3569741.215 6
  22199112.106    -1050880.611 7   -791344.799 7
  22349843.130    -2099369.787 6  -1575703.693 6
  24544354.880    -1699376.129 5  -1016032.448 4
 94  2 17 17 41 30.0010000  0  6 14 15 25 29 22 18
  20753922.552     -912265.704 7   -690214.504 7
  23172403.208     5235889.364 6   3996055.486 6
  22826273.716     4786937.725 6   3653116.382 6
  22194933.911    -1072826.027 7   -808445.118 7
  22342458.169    -2138177.413 6  -1605943.332 6
  24534201.005    -1752722.615 5  -1057601.119 3
 94  2 17 17 42  0.0010000  0  6 14 15 25 29 22 18
  20751829.450     -923274.526 7   -698792.817 7
  23194729.802     5353193.905 6   4087461.546 6
  22846657.560     4894083.824 6   3736606.791 6
  22190770.903    -1094708.962 7   -825496.753 7
  22335150.442    -2176590.945 7  -1635875.890 6
  24524045.161    -1806089.192 5  -1099185.414 4
 94  2 17 17 42 30.0010000  0  6 14 15 25 29 22 18
  20749811.903     -933878.602 7   -707055.742 7
  23217081.153     5470662.996 6   4178995.834 6
  22867074.927     5001366.379 6   3820203.535 6
  22186622.185    -1116522.736 7   -842494.497 7
  22327909.552    -2214633.878 6  -1665519.673 6
  24513885.208    -1859482.209 5  -1140790.328 3
 94  2 17 17 43  0.0010000  0  6 14 15 25 29 22 18
  20747871.044     -944069.821 7   -714996.954 7
  23239465.544     5588296.494 6   4270658.235 6
  22887517.677     5108789.723 6   3903909.976 6
  22182483.802    -1138264.214 7   -859435.900 7
  22320741.044    -2252301.944 6  -1694871.347 6
  24503720.864    -1912901.805 5  -1182415.951 2
 94  2 17 17 43 30.0010000  0  6 14 15 25 29 22 18
  20746013.192     -953834.125 7   -722605.509 7
  23261886.341     5706090.576 6   4362445.745 6
  22907988.739     5216372.470 6   3987740.629 6
  22178356.349    -1159942.343 7   -876327.951 7
  22313644.716    -2289586.769 6  -1723924.390 6
  24493553.747    -1966338.146 5  -1224054.596 2
 94  2 17 17 44  0.0010000  0  6 14 15 25 29 22 18
  20744237.458     -963166.897 7   -729877.808 7
  23284330.325     5824039.503 6   4454353.925 6
  22928492.442     5324111.817 6   4071693.310 6
  22174246.646    -1181545.760 7   -893161.778 7
  22306623.802    -2326497.913 6  -1752686.255 6
  24483385.466    -2019779.819 5  -1265697.436 2
 94  2 17 17 44 30.0010000  0  6 14 15 25 29 22 18
  20742545.427     -972058.524 7   -736806.351 7
  23306800.895     5942140.398 6   4546380.514 6
  22949023.114     5432014.209 6   4155773.025 6
  22170150.833    -1203067.902 7   -909932.274 7
  22299670.091    -2363029.913 6  -1781152.678 6
  24473217.896    -2073212.997 5  -1307333.640 4
 94  2 17 17 45  0.0010000  0  6 14 15 25 29 22 18
  20740938.763     -980506.088 7   -743388.869 7
  23329305.864     6060392.337 6   4638524.801 6
  22969588.856     5540078.618 6   4239978.998 6
  22166070.122    -1224512.229 7   -926642.145 7
  22292791.286    -2399164.153 6  -1809309.158 6
  24463053.411    -2126625.444 5  -1348953.700 2
 94  2 17 17 45 30.0010000  0  6 14 15 25 29 22 18
  20739413.060     -988518.566 7   -749632.360 7
  23351832.091     6178790.411 6   4730782.958 6
  22990181.927     5648301.231 6   4324308.247 6
  22162003.310    -1245871.288 7   -943285.570 7
  22285997.552    -2434899.746 7  -1837155.008 6
  24452892.700    -2180013.312 5  -1390554.620 3
 94  2 17 17 46  0.0010000  0  6 14 15 25 29 22 18
  20737968.927     -996107.115 7   -755545.513 7
  23374399.005     6297334.698 6   4823155.052 5
  23010805.020     5756673.545 6   4408754.135 6
  22157957.122    -1267140.568 7   -959859.036 7
  22279269.185    -2470225.212 6  -1864681.275 6
  24442737.935    -2233374.062 5  -1432134.408 3
 94  2 17 17 46 30.0010000  0  6 14 15 25 29 22 18
  20736604.388    -1003277.376 7   -761132.733 8
  23396981.919     6416022.293 6   4915638.811 5
  23031455.505     5865191.101 6   4493313.199 5
  22153925.021    -1288329.432 7   -976369.831 7
  22272631.739    -2505127.521 6  -1891877.826 6
  24432592.083    -2286711.810 5  -1473696.291 2
 94  2 17 17 47  0.0010000  0  6 14 15 25 29 22 18
  20735322.536    -1010023.758 8   -766389.655 8
  23419591.013     6534854.819 6   5008235.497 5
  23052134.708     5973851.098 6   4577983.255 6
  22149907.810    -1309439.616 7   -992819.335 7
  22266067.966    -2539591.456 6  -1918732.770 6
  24422442.302    -2340040.286 5  -1515250.910 5
 94  2 17 17 47 30.0010000  0  6 14 15 25 29 22 18
  20734119.161    -1016339.918 8   -771311.338 8
  23442226.591     6653824.682 6   5100939.206 5
  23072832.278     6082647.141 6   4662759.324 5
  22145906.896    -1330472.979 7  -1009208.970 7
  22259593.958    -2573627.554 6  -1945254.349 6
  24412291.106    -2393375.553 5  -1556810.857 4
 94  2 17 17 48  0.0010000  0  6 14 15 25 29 22 18
  20733000.708    -1022218.496 8   -775892.049 7
  23464895.942     6772926.636 6   5193745.829 5
  23093566.067     6191575.615 6   4747638.572 5
  22141915.130    -1351451.505 7  -1025555.885 7
  22253198.552    -2607237.120 6  -1971443.555 6
  24402136.958    -2446730.098 5  -1598385.772 4
 94  2 17 17 48 30.0010000  0  6 14 15 25 29 22 18
  20731971.067    -1027636.590 8   -780113.937 8
  23487588.341     6892163.131 6   5286657.291 5
  23114321.028     6300644.829 6   4832627.486 5
  22137930.552    -1372376.285 7  -1041860.912 7
  22246883.239    -2640415.321 6  -1997296.627 6
  24391983.560    -2500108.180 5  -1639979.037 4
 94  2 17 17 49  0.0010000  0  6 14 15 25 29 22 18
  20731030.442    -1032584.400 8   -783969.372 8
  23510292.146     7011533.701 6   5379673.237 5
  23135105.974     6409849.064 6   4917721.616 5
  22133960.919    -1393242.376 7  -1058120.216 7
  22240650.614    -2673166.489 6  -2022816.953 6
  24381818.716    -2553511.429 5  -1681591.942 2
 94  2 17 17 49 30.0010000  0  6 14 15 25 29 22 18
  20730176.708    -1037062.513 8   -787458.815 8
  23533037.435     7131031.626 6   5472788.410 5
  23155906.388     6519187.177 6   5002920.055 5
  22130004.325    -1414042.266 7  -1074327.923 7
  22234499.458    -2705501.864 6  -2048013.291 6
  24371656.216    -2606925.751 5  -1723213.441 3
 94  2 17 17 50  0.0010000  0  6 14 15 25 29 22 18
  20729415.403    -1041068.863 8   -790580.649 8
  23555806.896     7250658.853 6   5566004.342 5
  23176744.466     6628666.641 6   5088228.638 6
  22126061.169    -1434761.344 7  -1090472.671 7
  22228429.138    -2737411.204 6  -2072877.653 7
  24361494.935    -2660332.407 5  -1764828.992 4
 94  2 17 17 50 30.0010000  0  6 14 15 25 29 22 18
  20728736.849    -1044623.894 8   -793350.809 7
  23578594.528     7370401.804 6   5659310.443 5
  23197599.833     6738269.840 6   5173633.633 5
  22122135.880    -1455386.206 7  -1106543.978 7
  22222435.786    -2768898.531 6  -2097413.175 7
  24351326.997    -2713731.073 5  -1806438.302 4
 94  2 17 17 51  0.0010000  0  6 14 15 25 29 22 18
  20728145.505    -1047732.809 8   -795773.341 7
  23601400.528     7490262.634 6   5752708.400 5
  23218477.060     6847998.815 6   5259136.649 6
  22118231.669    -1475903.629 7  -1122531.585 7
  22216527.286    -2799953.928 6  -2121612.124 7
  24341174.403    -2767099.922 5  -1848024.375 4
 94  2 17 17 51 30.0010000  0  6 14 15 25 29 22 18
  20727637.419    -1050395.476 8   -797848.151 7
  23624231.786     7610243.007 6   5846199.492 5
  23239389.341     6957872.281 6   5344752.267 6
  22114349.435    -1496310.119 7  -1138432.735 7
  22210706.411    -2830554.176 6  -2145456.419 6
  24331026.067    -2820429.508 5  -1889579.890 4
 94  2 17 17 52  0.0010000  0  6 14 15 25 29 22 18
  20727216.224    -1052622.575 8   -799583.547 7
  23647082.606     7730339.042 6   5939780.716 5
  23260320.716     7067880.138 6   5430472.597 6
  22110485.489    -1516608.202 7  -1154249.415 7
  22204966.005    -2860693.039 6  -2168941.196 6
  24320882.208    -2873740.982 5  -1931121.263 3
 94  2 17 17 52 30.0010000  0  6 14 15 25 29 22 18
  20726874.575    -1054405.944 8   -800973.191 7
  23669962.981     7850547.520 6   6033449.561 6
  23281277.692     7178015.886 6   5516292.579 5
  22106643.888    -1536802.278 7  -1169985.044 7
  22199317.856    -2890368.897 6  -2192065.202 6
  24310736.950    -2927048.245 5  -1972659.391 3
 94  2 17 17 53  0.0010000  0  6 14 15 25 29 22 18
  20726623.825    -1055736.548 8   -802010.023 7
  23692857.044     7970859.364 6   6127198.955 5
  23302261.021     7288276.674 6   5602210.008 5
  22102817.966    -1556903.004 7  -1185647.929 7
  22193759.146    -2919597.149 6  -2214840.425 6
  24300585.935    -2980371.999 5  -2014210.372 3
 94  2 17 17 53 30.0010000  0  6 14 15 25 29 22 18
  20726457.653    -1056601.803 8   -802684.252 7
  23715775.271     8091276.466 6   6221030.356 5
  23323269.997     7398668.570 6   5688229.604 5
  22099008.927    -1576908.862 7  -1201236.898 7
  22188278.013    -2948376.470 6  -2237265.835 6
  24290436.997    -3033717.409 5  -2055778.215 3
 94  2 17 17 54  0.0010000  0  6 14 15 25 29 22 18
  20726385.372    -1056985.937 8   -802983.582 7
  23738703.739     8211794.721 6   6314940.577 6
  23344297.177     7509179.784 6   5774342.185 5
  22095223.778    -1596823.300 7  -1216754.622 7
  22182890.177    -2976720.388 7  -2259351.977 6
  24280281.661    -3087072.492 5  -2097353.578 4
 94  2 17 17 54 30.0010000  0  6 14 15 25 29 22 18
  20726408.786    -1056871.389 8   -802894.332 7
  23761658.481     8332411.124 6   6408927.274 5
  23365347.935     7619809.892 6   5860547.416 5
  22091447.396    -1616657.652 7  -1232209.946 7
  22177579.169    -3004620.308 6  -2281092.159 6
  24270133.841    -3140412.464 5  -2138917.174 4
 94  2 17 17 55  0.0010000  0  6 14 15 25 29 22 18
  20726525.106    -1056258.001 8   -802416.364 7
  23784623.692     8453127.727 5   6502992.049 5
  23386431.356     7730567.868 6   5946852.282 5
  22087688.403    -1636416.447 7  -1247606.394 7
  22172357.044    -3032070.137 6  -2302481.611 6
  24259990.028    -3193722.592 5  -2180457.488 4
 94  2 17 17 55 30.0010000  0  6 14 15 25 29 22 18
  20726735.013    -1055156.658 8   -801558.180 7
  23807619.935     8573939.394 6   6597130.897 5
  23407531.161     7841453.001 6   6033256.224 5
  22083939.935    -1656102.916 7  -1262946.483 7
  22167216.185    -3059051.009 6  -2323505.651 6
  24249849.372    -3246995.276 5  -2221968.634 5
 94  2 17 17 56  0.0010000  0  6 14 15 25 29 22 18
  20727035.653    -1053574.707 8   -800325.491 7
  23830626.880     8694840.271 6   6691339.272 5
  23428653.060     7952454.720 6   6119751.020 5
  22080207.841    -1675711.085 7  -1278225.564 7
  22162177.255    -3085559.473 6  -2344161.582 6
  24239717.153    -3300238.398 5  -2263456.767 4
 94  2 17 17 56 30.0010000  0  6 14 15 25 29 22 18
  20727423.692    -1051520.555 8   -798724.853 7
  23853649.208     8815829.349 6   6785616.368 5
  23449795.966     8063571.897 6   6206335.768 5
  22076492.505    -1695233.533 7  -1293437.849 7
  22157223.169    -3111593.226 6  -2364447.608 6
  24229588.106    -3353468.068 5  -2304934.375 4
 94  2 17 17 57  0.0010000  0  6 14 15 25 29 22 18
  20727905.911    -1048997.407 8   -796758.758 7
  23876687.208     8936906.365 6   6879961.984 5
  23470965.028     8174808.496 6   6293013.571 5
  22072796.950    -1714659.275 7  -1308574.773 7
  22152357.341    -3137155.581 7  -2384366.330 6
  24219463.138    -3406686.474 5  -2346403.221 5
 94  2 17 17 57 30.0010000  0  6 14 15 25 29 22 18
  20728474.185    -1046008.436 8   -794429.686 7
  23899744.935     9058066.156 6   6974372.096 5
  23492151.497     8286145.809 6   6379769.854 5
  22069121.036    -1733987.136 7  -1323635.438 7
  22147583.185    -3162240.295 7  -2403912.854 6
  24209338.278    -3459890.931 5  -2387861.216 5
 94  2 17 17 58  0.0010000  0  6 14 15 25 29 22 18
  20729133.685    -1042547.571 8   -791732.903 7
  23922815.786     9179304.243 6   7068843.219 5
  23513357.278     8397565.192 6   6466590.092 5
  22065459.224    -1753226.893 7  -1338627.448 8
  22142897.974    -3186861.224 7  -2423097.996 6
  24199220.146    -3513069.121 5  -2429298.702 5
 94  2 17 17 58 30.0010000  0  6 14 15 25 29 22 18
  20729883.810    -1038602.254 8   -788658.620 7
  23945900.638     9300623.632 6   7163377.689 5
  23534568.192     8509077.632 6   6553482.832 5
  22061813.286    -1772381.409 7  -1353553.033 8
  22138305.927    -3211003.159 7  -2441909.891 6
  24189104.255    -3566208.320 5  -2470705.833 5
 94  2 17 17 59  0.0010000  0  6 14 15 25 29 22 18
  20730725.114    -1034173.960 8   -785207.997 7
  23969006.661     9422020.152 6   7257972.264 5
  23555810.974     8620682.948 6   6640447.937 5
  22058186.716    -1791440.816 7  -1368404.517 8
  22133805.778    -3234651.852 7  -2460337.442 6
  24179004.224    -3619303.568 5  -2512078.696 5
 94  2 17 17 59 30.0010000  0  6 14 15 25 29 22 18
  20731661.599    -1029259.277 8   -781378.367 7
  23992112.356     9543488.847 5   7352623.070 5
  23577063.505     8732382.266 6   6727486.294 5
  22054577.435    -1810399.112 7  -1383177.210 8
  22129399.583    -3257801.608 7  -2478376.204 6
  24168903.177    -3672370.574 5  -2553429.581 4
 94  2 17 18  0  0.0010000  0  6 14 15 25 29 22 18
  20732689.591    -1023850.928 8   -777164.066 7
  24015250.481     9665026.462 5   7447327.584 5
  23598343.833     8844192.693 6   6814611.222 5
  22050991.958    -1829252.583 7  -1397868.231 8
  22125088.513    -3280459.714 7  -2496031.865 6
  24158809.919    -3725436.190 5  -2594779.386 4
 94  2 17 18  0 30.0010000  0  6 14 15 25 29 22 18
  20733817.138    -1017934.212 7   -772553.635 7
  24038396.153     9786631.436 6   7542084.583 5
  23619643.192     8956128.913 6   6901834.183 5
  22047423.630    -1847996.287 7  -1412473.718 8
  22120870.302    -3302624.827 7  -2513303.370 6
  24148704.544    -3778525.144 5  -2636147.351 4
 94  2 17 18  1  0.0010000  0  6 14 15 25 29 22 18
  20735038.599    -1011505.687 7   -767544.387 7
  24061542.466     9908301.608 5   7636892.380 5
  23640970.122     9068183.773 6   6989149.599 5
  22043877.044    -1866626.986 7  -1426991.143 7
  22116746.091    -3324300.173 7  -2530193.247 7
  24138603.560    -3831633.699 5  -2677530.619 4
 94  2 17 18  1 30.0010000  0  6 14 15 25 29 22 18
  20736358.864    -1004566.354 7   -762137.113 7
  24084704.872    10030032.084 5   7731747.175 5
  23662308.669     9180352.501 6   7076553.733 5
  22040350.146    -1885170.766 7  -1441440.839 7
  22112713.966    -3345492.194 7  -2546706.500 7
  24128488.903    -3884763.807 5  -2718930.669 4
 94  2 17 18  2  0.0010000  0  6 14 15 25 29 22 18
  20737778.778     -997116.211 7   -756331.804 7
  24107882.606    10151816.629 5   7826644.097 5
  23683674.560     9292620.412 6   7164035.151 5
  22036836.903    -1903636.069 7  -1455829.380 8
  22108773.302    -3366198.854 7  -2562841.549 7
  24118375.388    -3937900.240 5  -2760335.662 4
 94  2 17 18  2 30.0010000  0  6 14 15 25 29 22 18
  20739292.513     -989157.097 7   -750129.899 7
  24131064.903    10273655.461 5   7921583.315 5
  23705054.341     9404977.817 6   7251586.296 5
  22033340.966    -1922010.274 7  -1470146.934 7
  22104925.317    -3386401.429 7  -2578583.792 7
  24108270.763    -3991012.223 5  -2801721.599 3
 94  2 17 18  3  0.0010000  0  6 14 15 25 29 22 18
  20740897.528     -980718.623 7   -743554.467 7
  24154255.419    10395544.780 5   8016561.877 5
  23726450.489     9517417.107 6   7339201.266 5
  22029859.481    -1940287.583 7  -1484388.990 7
  22101181.208    -3406084.152 6  -2593920.955 7
  24098170.599    -4044088.147 5  -2843079.419 4
 94  2 17 18  3 30.0010000  0  6 14 15 25 29 22 18
  20742593.505     -971806.298 7   -736609.799 7
  24177458.302    10517481.423 5   8111577.326 5
  23747868.981     9629943.219 6   7426883.880 5
  22026406.169    -1958460.960 7  -1498550.064 7
  22097536.942    -3425248.226 7  -2608853.971 7
  24088077.388    -4097127.238 5  -2884408.532 4
 94  2 17 18  4  0.0010000  0  6 14 15 25 29 22 18
  20744380.974     -962412.522 7   -729289.977 7
  24200673.489    10639461.799 5   8206626.841 5
  23769298.075     9742549.759 6   7514629.171 5
  22022967.997    -1976512.909 7  -1512616.515 8
  22093986.896    -3443895.013 7  -2623383.906 7
  24077990.013    -4150125.475 5  -2925705.809 5
 94  2 17 18  4 30.0010000  0  6 14 15 25 29 22 18
  20746260.317     -952537.443 7   -721595.111 7
  24223896.513    10761486.658 5   8301711.021 5
  23790732.864     9855242.069 6   7602441.297 5
  22019557.560    -1994442.284 7  -1526587.440 7
  22090538.567    -3462035.883 6  -2637519.629 6
  24067910.981    -4203083.457 5  -2966971.712 5
 94  2 17 18  5  0.0010000  0  6 14 15 25 29 22 18
  20748231.419     -942172.185 7   -713518.291 7
  24247124.411    10883548.954 5   8396824.381 5
  23812206.255     9968021.102 6   7690320.989 5
  22016163.466    -2012267.624 7  -1540477.308 7
  22087176.028    -3479679.953 7  -2651268.235 7
  24057844.685    -4255997.048 5  -3008203.009 5
 94  2 17 18  5 30.0010000  0  6 14 15 25 29 22 18
  20750303.997     -931286.818 7   -705036.190 7
  24270359.169    11005648.527 5   8491966.772 5
  23833678.685    10080886.219 6   7778267.756 5
  22012792.724    -2029985.728 7  -1554283.601 8
  22083918.013    -3496825.386 7  -2664628.289 7
  24047785.403    -4308859.059 5  -3049394.132 5
 94  2 17 18  6  0.0020000  0  6 14 15 25 29 22 18
  20752476.275     -919872.420 7   -696141.868 7
  24293595.322    11127785.325 5   8587138.184 5
  23855167.393    10193835.253 5   7866279.919 5
  22009439.705    -2047600.055 7  -1568009.039 7
  22080749.408    -3513462.716 7  -2677592.422 7
  24037736.689    -4361678.314 5  -3090551.936 5
 94  2 17 18  6 30.0020000  0  6 14 15 25 29 22 18
  20754748.096     -907935.271 7   -686840.199 7
  24316854.385    11249948.488 5   8682330.127 5
  23876683.588    10306877.152 5   7954364.438 4
  22006108.127    -2065122.527 7  -1581662.897 7
  22077680.260    -3529582.042 7  -2690152.916 7
  24027691.018    -4414450.700 5  -3131673.184 4
 94  2 17 18  7  0.0020000  0  6 14 15 25 29 22 18
  20757118.596     -895468.565 7   -677125.892 6
  24340100.963    11372139.771 5   8777543.983 5
  23898212.400    10420016.481 5   8042524.863 4
  22002794.893    -2082541.291 7  -1595235.948 7
  22074717.635    -3545159.328 7  -2702291.049 6
  24017654.018    -4467188.353 5  -3172767.378 4
 94  2 17 18  7 30.0020000  0  6 14 15 25 29 22 18
  20759593.830     -882474.525 7   -667000.675 7
  24363354.018    11494358.339 5   8872779.114 5
  23919760.033    10533246.689 5   8130756.106 5
  21999499.041    -2099844.286 7  -1608718.795 7
  22071858.791    -3560196.308 7  -2714008.163 7
  24007619.893    -4519918.677 5  -3213855.849 4
 94  2 17 18  8  0.0020000  0  6 14 15 25 29 22 18
  20762166.564     -868956.662 7   -656467.275 7
  24386616.900    11616597.624 5   8968030.386 5
  23941322.010    10646560.528 6   8219052.536 5
  21996225.268    -2117040.387 7  -1622118.334 7
  22069096.424    -3574703.718 7  -2725312.633 7
  23997587.025    -4572642.323 5  -3254939.139 5
 94  2 17 18  8 30.0020000  0  6 14 15 25 29 22 18
  20764837.213     -854912.330 7   -645523.649 7
  24409886.822    11738853.598 5   9063294.647 5
  23962895.619    10759942.792 5   8307402.270 5
  21992973.299    -2134137.272 7  -1635440.577 7
  22066433.682    -3588692.947 7  -2736213.315 7
  23987558.182    -4625354.441 5  -3296013.429 5
 94  2 17 18  9  0.0020000  0  6 14 15 25 29 22 18
  20767612.150     -840332.266 7   -634162.562 7
  24433151.947    11861125.099 5   9158571.035 5
  23984482.619    10873370.905 5   8395787.740 5
  21989739.041    -2151127.079 7  -1648679.377 7
  22063868.736    -3602163.678 7  -2746709.980 7
  23977527.361    -4678056.563 5  -3337079.938 5
 94  2 17 18  9 30.0020000  0  6 14 15 25 29 22 18
  20770489.228     -825213.994 7   -622382.101 7
  24456423.221    11983413.844 5   9253860.839 5
  24006075.135    10986847.837 5   8484211.219 5
  21986525.502    -2168020.953 7  -1661843.423 7
  22061405.682    -3615124.936 7  -2756809.659 7
  23967506.963    -4730731.536 5  -3378125.290 5
 94  2 17 18 10  0.0020000  0  6 14 15 25 29 22 18
  20773466.322     -809561.183 7   -610185.107 7
  24479694.822    12105713.149 5   9349158.887 4
  24027684.080    11100375.473 5   8572674.213 5
  21983327.674    -2184825.251 7  -1674937.676 7
  22059037.986    -3627570.957 7  -2766507.851 7
  23957487.377    -4783369.566 5  -3419141.870 5
 94  2 17 18 10 30.0020000  0  6 14 15 25 29 22 18
  20776546.135     -793387.891 7   -597582.543 7
  24502972.268    12228020.874 5   9444463.495 5
  24049298.252    11213963.598 5   8661184.343 5
  21980147.103    -2201539.796 7  -1687961.996 7
  22056764.627    -3639492.688 7  -2775797.511 7
  23947477.994    -4835975.441 5  -3460133.377 5
 94  2 17 18 11  0.0020000  0  6 14 15 25 29 22 18
  20779720.338     -776706.043 7   -584583.706 7
  24526242.627    12350333.193 5   9539771.691 4
  24070925.893    11327623.510 5   8749750.418 5
  21976986.049    -2218153.633 7  -1700907.836 7
  22054597.557    -3650887.927 7  -2784676.912 7
  23937472.658    -4888555.436 5  -3501104.714 5
 94  2 17 18 11 30.0020000  0  6 14 15 25 29 22 18
  20782987.650     -759521.784 7   -571193.386 7
  24549524.744    12472645.767 5   9635080.081 5
  24092566.799    11441356.890 5   8838373.735 5
  21973845.705    -2234662.044 7  -1713771.524 7
  22052532.791    -3661754.957 7  -2793144.721 7
  23927475.119    -4941105.993 5  -3542053.137 5
 94  2 17 18 12  0.0020000  0  6 14 15 25 29 22 18
  20786354.322     -741837.867 7   -557413.711 7
  24572791.104    12594951.739 5   9730383.321 4
  24114223.252    11555151.907 5   8927045.084 5
  21970725.299    -2251053.015 7  -1726543.691 7
  22050562.682    -3672090.266 7  -2801198.206 7
  23917475.338    -4993628.405 5  -3582979.614 5
 94  2 17 18 12 30.0020000  0  6 14 15 25 29 22 18
  20789817.096     -723649.394 7   -543240.887 7
  24596063.682    12717255.043 5   9825684.487 5
  24135892.447    11669005.178 5   9015761.800 5
  21967627.002    -2267321.859 7  -1739220.701 7
  22048701.424    -3681879.782 7  -2808826.401 7
  23907487.158    -5046116.079 5  -3623879.050 5
 94  2 17 18 13  0.0020000  0  6 14 15 25 29 22 18
  20793377.166     -704934.504 7   -528657.859 7
  24619343.416    12839558.496 5   9920985.763 4
  24157564.338    11782910.252 5   9104518.904 5
  21964559.791    -2283454.386 7  -1751791.494 7
  22046946.744    -3691101.788 7  -2816012.372 7
  23897509.072    -5098569.769 5  -3664751.981 5
 94  2 17 18 13 30.0020000  0  6 14 15 25 29 22 18
  20797039.650     -685686.910 7   -513659.739 7
  24642611.760    12961849.995 5  10016277.745 4
  24179247.291    11896869.191 5   9193317.995 5
  21961512.580    -2299466.611 7  -1764268.537 8
  22045300.103    -3699753.070 7  -2822753.621 7
  23887529.971    -5150995.840 5  -3705603.413 5
 94  2 17 18 14  0.0020000  0  6 14 15 25 29 22 18
  20800806.338     -665895.485 7   -498237.857 7
  24665882.236    13084128.754 5  10111559.788 5
  24200945.588    12010887.773 5   9282163.540 4
  21958486.018    -2315370.127 7  -1776660.863 8
  22043763.447    -3707822.890 7  -2829041.789 7
  23877559.408    -5203394.892 6  -3746433.789 5
 94  2 17 18 14 30.0020000  0  6 14 15 25 29 22 18
  20804677.658     -645555.280 7   -482388.360 7
  24689150.721    13206392.863 5  10206830.425 4
  24222655.252    12124972.232 5   9371060.427 5
  21955479.760    -2331169.991 7  -1788972.422 7
  22042339.088    -3715304.415 7  -2834871.542 7
  23867592.424    -5255767.577 6  -3787243.635 5
 94  2 17 18 15  0.0020000  0  6 14 15 25 29 22 18
  20808651.830     -624665.001 7   -466110.236 7
  24712414.846    13328636.530 5  10302085.112 4
  24244381.174    12239127.054 5   9460012.148 4
  21952494.861    -2346859.527 7  -1801198.024 7
  22041022.479    -3722221.757 7  -2840261.677 7
  23857630.986    -5308117.767 5  -3828035.965 5
 94  2 17 18 15 30.0020000  0  6 14 15 25 29 22 18
  20812730.729     -603233.573 7   -449410.434 7
  24735666.885    13450859.457 5  10397323.656 4
  24266122.416    12353351.534 5   9549018.144 5
  21949527.955    -2362443.215 7  -1813341.150 7
  22039810.432    -3728598.365 7  -2845230.454 7
  23847674.080    -5360423.561 5  -3868793.673 5
 94  2 17 18 16  0.0020000  0  7 14 15 25 29 22 18 19
  20816909.736     -581279.606 7   -432303.458 7
  24758929.588    13573058.609 5  10492543.684 4
  24287857.932    12467621.531 5   9638059.593 5
  21946585.838    -2377911.528 7  -1825394.372 7
  22038698.697    -3734445.283 7  -2849786.489 7
  23837734.830    -5412686.687 6  -3909518.129 5
  25353629.861          -0.97215
 94  2 17 18 16 30.0020000  0  7 14 15 25 29 22 18 19
  20821185.885     -558799.933 7   -414786.845 7
  24782167.775    13695232.511 5  10587744.026 5
  24309623.486    12581945.412 5   9727143.044 5
  21943665.650    -2393249.067 7  -1837345.694 7
  22037683.650    -3739780.790 7  -2853944.023 7
  23827793.408    -5464913.760 6  -3950214.516 5
  25339855.307      -72420.036 5        -0.47914
 94  2 17 18 17  0.0020000  0  7 14 15 25 29 22 18 19
  20825565.174     -535795.178 7   -396861.075 7
  24805406.900    13817377.050 5  10682921.500 4
  24331378.853    12696320.874 5   9816266.695 4
  21940772.830    -2408458.267 7  -1849197.000 7
  22036763.994    -3744607.163 7  -2857704.829 7
  23817859.002    -5517106.949 6  -3990884.495 5
  25326091.549     -144703.562 5    -56325.097 3
 94  2 17 18 17 30.0020000  0  7 14 15 25 29 22 18 19
  20830040.229     -512268.395 7   -378528.529 7
  24828653.869    13939487.381 5  10778072.298 3
  24353151.103    12810741.393 5   9905425.444 5
  21937900.869    -2423551.029 7  -1860957.583 7
  22035948.150    -3748901.099 7  -2861050.748 7
  23807935.182    -5569261.525 6  -4031524.390 5
  25312369.588     -216833.019 5   -112529.674 3
 94  2 17 18 18  0.0020000  0  7 14 15 25 29 22 18 19
  20834621.408     -488202.261 7   -359775.710 7
  24851876.557    14061562.812 5  10873195.900 4
  24374937.986    12925210.798 5   9994622.281 5
  21935053.369    -2438518.113 7  -1872620.234 8
  22035234.174    -3752649.207 7  -2863971.343 7
  23798016.971    -5621393.249 6  -4072146.477 5
  25298683.760     -288785.354 5   -168596.271 3
 94  2 17 18 18 30.0020000  0  7 14 15 25 29 22 18 19
  20839306.416     -463576.694 7   -340586.966 7
  24875107.635    14183601.866 5  10968291.167 4
  24396718.096    13039737.017 5  10083863.399 4
  21932225.330    -2453362.022 7  -1884186.919 8
  22034628.971    -3755833.315 7  -2866452.464 7
  23788102.939    -5673496.280 6  -4112746.214 5
  25285018.299     -360575.625 5   -224536.561 4
 94  2 17 18 19  0.0020000  0  7 14 15 25 29 22 18 19
  20844094.877     -438411.767 7   -320977.945 7
  24898318.291    14305596.102 5  11063351.504 4
  24418537.064    13154296.136 5  10173130.148 4
  21929424.986    -2468087.447 7  -1895661.273 7
  22034132.338    -3758433.388 7  -2868478.480 7
  23778195.197    -5725563.607 6  -4153318.123 5
  25271383.799     -432223.926 5   -280366.274 4
 94  2 17 18 19 30.0020000  0  7 14 15 25 29 22 18 19
  20848986.369     -412703.982 7   -300945.912 7
  24921527.643    14427547.776 5  11158378.671 4
  24440330.275    13268891.507 5  10262425.127 5
  21926645.010    -2482689.381 7  -1907039.389 8
  22033749.393    -3760451.079 7  -2870050.689 7
  23768290.447    -5777590.349 6  -4193858.395 5
  25257777.658     -503731.312 5   -336086.193 4
 94  2 17 18 20  0.0020000  0  7 14 15 25 29 22 18 19
  20853982.861     -386448.129 7   -280486.815 7
  24944723.299    14549453.751 5  11253370.232 4
  24462149.635    13383513.861 5  10351741.156 4
  21923895.174    -2497153.368 7  -1918310.015 7
  22033476.119    -3761891.764 7  -2871173.286 7
  23758401.408    -5829580.745 5  -4234370.340 5
  25244186.674     -575123.088 5   -391716.049 4
 94  2 17 18 20 30.0020000  0  7 14 15 25 29 22 18 19
  20859082.025     -359658.853 7   -259612.068 7
  24967909.697    14671306.457 5  11348320.281 3
  24483970.900    13498155.628 5  10441072.292 4
  21921165.260    -2511491.996 7  -1929482.960 7
  22033315.822    -3762746.764 7  -2871839.504 7
  23748517.307    -5881525.305 5  -4274846.545 5
  25230624.619     -646407.295 5   -447262.106 3
 94  2 17 18 21  0.0020000  0  7 14 15 25 29 22 18 19
  20864281.268     -332334.131 7   -238320.084 7
  24991083.791    14793107.855 5  11443230.328 3
  24505779.760    13612824.280 5  10530424.379 4
  21918459.299    -2525706.076 7  -1940558.858 7
  22033259.205    -3763027.455 7  -2872058.213 7
  23738644.229    -5933406.701 6  -4315273.555 5
  25217082.385     -717551.064 5   -502698.766 5
 94  2 17 18 21 30.0020000  0  7 14 15 25 29 22 18 19
  20869586.338     -304459.143 7   -216599.320 7
  25014264.697    14914855.086 5  11538098.187 4
  24527612.627    13727525.183 5  10619801.586 4
  21915780.213    -2539796.636 7  -1951538.513 7
  22033311.971    -3762751.565 7  -2871843.186 7
  23728778.721    -5985236.556 6  -4355660.406 5
  25203567.299     -788550.059 5   -558022.606 4
 94  2 17 18 22  0.0020000  0  7 14 15 25 29 22 18 19
  20874996.275     -276028.183 7   -194445.330 7
  25037417.393    15036542.777 5  11632919.635 3
  24549455.025    13842249.543 5  10709197.077 4
  21913121.564    -2553762.838 7  -1962421.269 7
  22033474.322    -3761902.885 7  -2871181.851 7
  23718925.814    -6037018.516 6  -4396009.930 5
  25190094.283     -859406.595 5   -613235.462 4
 94  2 17 18 22 30.0020000  0  7 14 15 25 29 22 18 19
  20880512.424     -247041.478 7   -171858.292 7
  25060562.291    15158168.158 5  11727692.534 3
  24571280.369    13957010.044 5  10798620.734 4
  21910486.814    -2567618.316 7  -1973217.746 7
  22033741.893    -3760479.205 7  -2870072.451 7
  23709078.619    -6088754.620 6  -4436323.733 5
  25176634.041     -930103.966 5   -668324.266 4
 94  2 17 18 23  0.0020000  0  7 14 15 25 29 22 18 19
  20886135.885     -217496.834 7   -148836.494 7
  25083685.439    15279729.712 5  11822415.675 4
  24593129.377    14071801.702 5  10888068.676 3
  21907869.424    -2581351.661 7  -1983919.052 7
  22034118.635    -3758499.443 7  -2868529.747 7
  23699243.752    -6140460.666 6  -4476614.101 5
  25163200.447    -1000664.441 4   -723306.432 4
 94  2 17 18 23 30.0020000  0  7 14 15 25 29 22 18 19
  20891862.057     -187399.583 7   -125384.093 7
  25106810.807    15401225.117 5  11917087.278 4
  24614970.541    14186601.951 5  10977523.291 4
  21905283.424    -2594957.783 7  -1994521.216 7
  22034601.932    -3755953.327 7  -2866545.736 7
  23689403.346    -6192141.624 6  -4516884.935 5
  25149802.658    -1071101.635 5   -778192.521 4
 94  2 17 18 24  0.0020000  0  7 14 15 25 29 22 18 19
  20897691.400     -156758.036 7   -101507.571 7
  25129919.736    15522654.099 5  12011707.121 3
  24636818.205    14301404.343 5  11066979.575 4
  21902717.658    -2608439.622 7  -2005026.541 8
  22035196.627    -3752831.517 7  -2864113.125 7
  23679583.213    -6243772.604 6  -4557116.832 5
  25136429.729    -1141397.159 5   -832968.196 4
 94  2 17 18 24 30.0020000  0  7 14 15 25 29 22 18 19
  20903624.650     -125584.599 7    -77216.589 7
  25153013.158    15644011.177 5  12106270.930 2
  24658669.064    14416209.302 5  11156437.857 4
  21900173.846    -2621805.807 7  -2015441.747 8
  22035898.018    -3749156.075 7  -2861249.108 7
  23669768.166    -6295354.094 6  -4597310.162 5
  25123076.760    -1211542.145 5   -887626.555 4
 94  2 17 18 25  0.0020000  0  7 14 15 25 29 22 18 19
  20909657.252      -93879.449 7    -52511.283 7
  25176092.744    15765295.300 5  12200777.877 4
  24680516.018    14531011.873 5  11245894.297 3
  21897652.994    -2635051.030 7  -2025762.695 8
  22036704.205    -3744934.184 7  -2857959.283 7
  23659961.150    -6346875.647 6  -4637456.787 5
  25109761.768    -1281535.646 5   -942166.826 4
 94  2 17 18 25 30.0020000  0  7 14 15 25 29 22 18 19
  20915794.830      -61639.238 8    -27389.047 7
  25199154.494    15886497.779 5  12295221.207 2
  24702367.518    14645818.587 5  11335353.986 2
  21895156.814    -2648179.374 7  -2035992.584 8
  22037611.986    -3740149.360 7  -2854230.823 7
  23650170.736    -6398335.500 6  -4677555.338 5
  25096477.760    -1351353.351 5   -996570.096 4
 94  2 17 18 26  0.0020000  0  7 14 15 25 29 22 18 19
  20922034.502      -28849.108 8     -1838.306 7
  25222200.744    16007622.209 4  12389603.732 3
  24724214.768    14760664.231 5  11424843.979 4
  21892680.611    -2661179.190 7  -2046122.316 8
  22038632.564    -3734784.095 7  -2850050.061 7
  23640385.025    -6449747.881 6  -4717616.913 5
  25083219.096    -1420994.474 5  -1050835.786 4
 94  2 17 18 26 30.0020000  0  7 14 15 25 29 22 18 19
  20928379.986        4504.043 8     24151.154 7
  25245244.799    16128663.991 5  12483921.825 3
  24746082.275    14875552.937 5  11514367.534 3
  21890233.229    -2674034.470 7  -2056139.413 8
  22039763.572    -3728832.477 7  -2845412.415 7
  23630608.557    -6501136.088 6  -4757659.648 5
  25070005.471    -1490483.157 5  -1104982.675 4
 94  2 17 18 27  0.0020000  0  7 14 15 25 29 22 18 19
  20934835.494       38430.678 8     50587.480 7
  25268253.525    16249623.088 5  12578175.482 4
  24767944.205    14990476.803 5  11603918.482 3
  21887818.564    -2686725.954 7  -2066028.872 8
  22041012.650    -3722276.482 7  -2840303.827 7
  23620832.705    -6552501.338 6  -4797684.494 5
  25056808.447    -1559823.418 5  -1159013.920 5
 94  2 17 18 27 30.0020000  0  7 14 15 25 29 22 18 19
  20941401.854       72931.871 8     77471.512 7
  25291264.978    16370497.847 5  12672363.429 3
  24789821.268    15105434.279 5  11693495.623 3
  21885436.322    -2699247.385 7  -2075785.836 8
  22042375.971    -3715104.338 7  -2834715.122 7
  23611056.971    -6603845.907 6  -4837693.220 5
  25043643.736    -1629009.973 5  -1212925.395 4
 94  2 17 18 28  0.0020000  0  7 14 15 25 29 22 18 19
  20948074.729      107992.833 8    104791.729 7
  25314246.932    16491278.361 5  12766477.918 3
  24811697.236    15220410.873 5  11783087.667 3
  21883081.924    -2711615.009 7  -2085422.937 8
  22043855.721    -3707339.657 7  -2828664.709 7
  23601292.166    -6655167.554 6  -4877684.099 5
  25030498.853    -1698060.738 5  -1266731.072 5
 94  2 17 18 28 30.0020000  0  7 14 15 25 29 22 18 19
  20954848.924      143602.494 8    132539.496 7
  25337213.447    16611963.253 5  12860517.905 2
  24833583.221    15335400.318 5  11872689.727 3
  21880759.111    -2723832.549 7  -2094943.099 8
  22045443.799    -3698998.954 7  -2822165.454 7
  23591535.932    -6706441.647 6  -4917637.919 5
  25017385.135    -1766961.106 5  -1320419.564 5
 94  2 17 18 29  0.0020000  0  7 14 15 25 29 22 18 19
  20961728.393      179751.755 8    160707.737 7
  25360157.783    16732550.007 5  12954481.416 2
  24855469.502    15450401.350 5  11962300.789 3
  21878457.682    -2735919.397 7  -2104361.418 8
  22047140.549    -3690082.201 7  -2815217.328 7
  23581788.525    -6757647.984 6  -4957538.931 5
  25004314.564    -1835683.049 5  -1373969.030 5
 94  2 17 18 29 30.0020000  0  7 14 15 25 29 22 18 19
  20968708.291      216434.486 8    189291.664 7
  25383082.502    16853037.007 5  13048367.213 2
  24877351.299    15565418.944 5  12051924.786 4
  21876180.971    -2747893.196 7  -2113691.657 8
  22048944.588    -3680591.287 7  -2807821.813 7
  23572063.439    -6808777.956 6  -4997380.424 5
  24991273.830    -1904224.532 5  -1427377.878 5
 94  2 17 18 30  0.0020000  0  7 14 15 25 29 22 18 19
  20975788.502      253641.020 8    218283.754 7
  25405996.518    16973419.061 5  13142171.194 2
  24899239.955    15680445.029 5  12141555.386 4
  21873922.338    -2759756.409 7  -2122935.723 8
  22050859.439    -3670531.315 7  -2799982.872 7
  23562351.752    -6859834.903 6  -5037165.014 5
  24978262.846    -1972584.557 5  -1480645.385 5
 94  2 17 18 30 30.0020000  0  7 14 15 25 29 22 18 19
  20982969.846      291374.022 8    247686.078 7
  25428882.713    17093693.483 5  13235891.297 3
  24921130.744    15795472.372 5  12231186.980 3
  21871687.314    -2771501.171 7  -2132087.487 8
  22052885.057    -3659890.178 7  -2791691.078 7
  23552642.877    -6910825.541 6  -5076897.951 5
  24965292.268    -2040752.418 5  -1533763.156 5
 94  2 17 18 31  0.0020000  0  7 14 15 25 29 22 18 19
  20990253.971      329648.310 8    277510.181 7
  25451748.369    17213859.073 5  13329526.602 3
  24943020.752    15910497.369 5  12320816.744 3
  21869476.455    -2783118.950 7  -2141140.292 8
  22055020.338    -3648657.532 7  -2782938.375 7
  23542952.135    -6961766.166 6  -5116591.899 5
  24952346.525    -2108733.685 5  -1586735.554 5
 94  2 17 18 31 30.0020000  0  7 14 15 25 29 22 18 19
  20997640.158      368462.731 7    307755.170 7
  25474591.635    17333911.801 5  13423074.005 2
  24964912.658    16025517.757 5  12410442.935 2
  21867292.119    -2794594.926 7  -2150082.614 8
  22057272.486    -3636832.252 7  -2773723.878 7
  23533265.096    -7012677.412 6  -5156262.956 5
  24939446.080    -2176550.886 5  -1639580.136 5
 94  2 17 18 32  0.0020000  0  7 14 15 25 29 22 18 19
  21005129.650      407826.089 7    338427.900 7
  25497415.869    17453850.708 5  13516532.664 3
  24986797.408    16140541.541 5  12500071.748 3
  21865139.432    -2805912.032 7  -2158901.125 8
  22059637.432    -3624409.632 7  -2764043.920 7
  23523577.299    -7063560.197 6  -5195911.843 5
  24926570.166    -2244200.798 5  -1692294.360 5
 94  2 17 18 32 30.0020000  0  7 14 15 25 29 22 18 19
  21012727.736      447761.630 7    369546.485 7
  25520222.299    17573671.496 5  13609899.308 2
  25008680.877    16255567.962 5  12589702.633 2
  21863016.564    -2817070.582 7  -2167596.093 8
  22062113.939    -3611392.073 7  -2753900.365 7
  23513906.744    -7114412.251 6  -5235536.762 5
  24913731.619    -2311700.474 5  -1744891.532 5
 94  2 17 18 33  0.0020000  0  7 14 15 25 29 22 18 19
  21020437.221      488267.341 7    401109.357 7
  25543000.197    17693368.768 5  13703169.718 3
  25030572.346    16370595.898 5  12679334.700 2
  21860920.900    -2828075.615 7  -2176171.431 8
  22064700.463    -3597779.345 7  -2743293.038 7
  23504232.127    -7165232.096 6  -5275136.586 5
  24900911.111    -2379073.838 5  -1797390.272 5
 94  2 17 18 33 30.0020000  0  7 14 15 25 29 22 18 19
  21028250.846      529333.956 7    433109.300 7
  25565748.502    17812941.524 4  13796343.111 3
  25052463.838    16485617.743 5  12768962.012 2
  21858853.299    -2838936.831 7  -2184634.704 8
  22067408.877    -3583568.084 7  -2732219.320 7
  23494574.924    -7216000.539 6  -5314696.359 5
  24888110.346    -2446307.928 5  -1849780.527 5
 94  2 17 18 34  0.0020000  0  7 14 15 25 29 22 18 19
  21036173.783      570966.785 7    465550.444 7
  25588479.479    17932387.472 4  13889417.672 2
  25074342.963    16600626.750 4  12858579.324 3
  21856815.150    -2849658.584 7  -2192989.295 8
  22070224.424    -3568766.703 7  -2720685.776 7
  23484925.205    -7266699.819 6  -5354202.254 5
  24875346.533    -2513383.348 5  -1902047.116 5
 94  2 17 18 34 30.0020000  0  7 14 15 25 29 22 18 19
  21044203.877      613155.440 7    498424.707 7
  25611188.775    18051704.633 4  13982391.917 3
  25096229.838    16715612.403 5  12948178.449 2
  21854801.354    -2860239.092 7  -2201233.832 8
  22073152.838    -3553380.724 7  -2708696.702 7
  23475288.268    -7317331.909 6  -5393655.764 5
  24862620.689    -2580295.640 5  -1954186.587 5
 94  2 17 18 35  0.0020000  0  7 14 15 25 29 22 18 19
  21052330.471      655870.474 7    531709.137 7
  25633863.549    18170890.027 3  14075263.479 1
  25118097.916    16830571.949 4  13037757.219 3
  21852812.752    -2870681.958 7  -2209371.112 8
  22076191.697    -3537410.751 7  -2696252.562 7
  23465666.213    -7367901.800 6  -5433060.825 5
  24849915.205    -2647025.052 5  -2006183.531 5
 94  2 17 18 35 30.0020000  0  6 14 25 29 22 18 19
  21060558.971      699108.682 7    565401.227 7
  25139978.783    16945505.528 5  13127315.761 2
  21850851.135    -2880984.726 7  -2217399.225 8
  22079341.205    -3520865.162 7  -2683359.898 7
  23456061.354    -7418399.939 6  -5472409.980 5
  24837259.424    -2713544.234 5  -2058016.654 5
 94  2 17 18 36  0.0020000  0  6 14 25 29 22 18 19
  21068890.393      742879.387 7    599508.256 7
  25161847.682    17060421.306 4  13216860.448 2
  21848919.588    -2891145.348 7  -2225316.584 8
  22082596.424    -3503753.466 7  -2670026.116 7
  23446458.057    -7468832.713 6  -5511708.188 5
  24824633.299    -2779869.831 5  -2109698.910 5
 94  2 17 18 36 30.0020000  0  7 14  4 25 29 22 18 19
  21077318.447      787180.838 7    634028.850 7
  25627106.244          -0.52713
  25183713.518    17175320.762 4  13306392.387 2
  21847009.275    -2901179.902 7  -2233135.700 8
  22085964.158    -3486070.522 7  -2656247.186 7
  23436874.236    -7519205.113 6  -5550959.356 5
  24812053.830    -2846011.324 5  -2161237.703 5
 94  2 17 18 37  0.0020000  0  7 14  4 25 29 22 18 19
  21085852.439      832029.183 7    668975.590 7
  25626410.541       -3679.628 3        -0.24712
  25205581.557    17290222.850 4  13395926.404 2
  21845121.611    -2911100.170 7  -2240865.762 8
  22089440.174    -3467804.010 7  -2642013.549 7
  23427303.877    -7569507.686 6  -5590156.105 5
  24799499.182    -2911965.057 5  -2212630.183 5
 94  2 17 18 37 30.0020000  0  7 14  4 25 29 22 18 19
  21094495.502      877441.570 7    704361.861 7
  25625810.143       -6863.777 4     -2481.390 1
  25227431.572    17405121.122 4  13485457.445 1
  21843257.838    -2920904.720 7  -2248505.655 8
  22093024.682    -3448961.416 7  -2627331.011 7
  23417743.838    -7619735.879 6  -5629294.908 5
  24786975.205    -2977741.592 5  -2263884.582 5
 94  2 17 18 38  0.0020000  0  7 14  4 25 29 22 18 19
  21103246.244      923433.252 7    740199.519 7
  25625296.197       -9553.062 3     -4576.914 2
  25249303.354    17520011.111 4  13574982.011 2
  21841415.580    -2930581.501 7  -2256045.988 8
  22096721.854    -3429538.794 7  -2612196.504 7
  23408198.643    -7669901.784 6  -5668385.164 5
  24774498.947    -3043358.205 5  -2315014.352 5
 94  2 17 18 38 30.0020000  0  7 14  4 25 29 22 18 19
  21112106.166      969996.830 7    776482.814 7
  25624877.861      -11744.902 3     -6284.820 2
  25271169.830    17634890.717 4  13664498.505 2
  21839601.221    -2940112.208 7  -2263472.485 8
  22100525.604    -3409524.154 7  -2596600.681 7
  23398664.877    -7720006.274 6  -5707427.583 5
  24762037.354    -3108810.396 5  -2366015.986 5
 94  2 17 18 39  0.0020000  0  7 14  4 25 29 22 18 19
  21121074.228     1017127.652 7    813208.113 7
  25624556.635      -13443.207 3     -7608.184 3
  25293022.252    17749754.611 4  13754002.727 1
  21837818.166    -2949477.152 7  -2270769.824 8
  22104451.189    -3388917.354 7  -2580543.441 7
  23389141.377    -7770053.995 6  -5746425.770 6
  24749617.369    -3174102.202 5  -2416892.658 5
 94  2 17 18 39 30.0020000  0  7 14  4 25 29 22 18 19
  21130152.182     1064826.077 7    850375.706 7
  25624322.549      -14668.245 4     -8562.742 2
  25314870.455    17864584.868 4  13843480.775 2
  21836070.986    -2958655.637 7  -2277921.870 8
  22108480.080    -3367717.334 7  -2564023.945 7
  23379624.205    -7820049.940 6  -5785383.595 6
  24737223.635    -3239240.237 5  -2467649.504 5
 94  2 17 18 40  0.0020000  0  7 14  4 25 29 22 18 19
  21139333.010     1113065.247 7    887964.643 7
  25624169.525      -15440.383 3     -9164.386 2
  25336718.486    17979396.864 3  13932944.578 2
  21834360.119    -2967658.322 7  -2284936.927 8
  22112632.174    -3345912.846 7  -2547033.427 7
  23370118.377    -7870010.706 6  -5824314.011 6
  24724852.447    -3304234.763 5  -2518294.517 5
 94  2 17 18 40 30.0020000  0  7 14  4 25 29 22 18 19
  21148612.158     1161828.045 7    925961.612 7
  25624114.830      -15751.447 4     -9406.770 2
  25358564.752    18094200.759 3  14022402.062 3
  21832677.236    -2976502.238 7  -2291828.275 8
  22116900.400    -3323495.307 7  -2529565.210 7
  23360617.955    -7919928.979 6  -5863211.314 5
  24712509.822    -3369063.844 5  -2568810.626 5
 94  2 17 18 41  0.0020000  0  7 14  4 25 29 22 18 19
  21157992.041     1211120.553 7    964371.334 7
  25624146.955      -15589.234 5     -9280.368 1
  25380410.010    18208984.060 3  14111843.481 2
  21831020.283    -2985202.671 7  -2298607.818 8
  22121278.869    -3300473.979 7  -2511626.503 7
  23351129.916    -7969803.741 6  -5902074.705 6
  24700223.127    -3433717.374 5  -2619189.945 5
 94  2 17 18 41 30.0020000  0  7 14  4 25 29 22 18 19
  21167471.361     1260935.565 7   1003188.212 7
  25624267.205      -14957.871 4     -8788.384 2
  25402239.627    18323743.906 3  14201266.641 2
  21829388.627    -2993774.285 7  -2305286.988 8
  22125773.033    -3276854.406 7  -2493221.634 7
  23341649.314    -8019628.618 6  -5940899.217 6
  24687948.643    -3498196.384 5  -2669433.262 4
 94  2 17 18 42  0.0020000  0  7 14  4 25 29 22 18 19
  21177050.104     1311267.805 7   1042408.117 7
  25624479.744      -13840.232 4     -7917.476 3
  25424085.916    18438477.489 3  14290669.327 3
  21827782.049    -3002223.499 7  -2311870.771 8
  22130382.064    -3252646.569 6  -2474358.387 7
  23332176.010    -8069395.746 6  -5979678.736 6
  24675708.369    -3562494.054 5  -2719535.294 5
 94  2 17 18 42 30.0030000  0  7 14  4 25 29 22 18 19
  21186733.499     1362147.157 7   1082054.343 7
  25624783.124      -12222.016 3     -6656.516 2
  25445909.913    18553158.343 3  14380030.963 2
  21826200.421    -3010534.957 7  -2318347.209 8
  22135098.468    -3227858.802 7  -2455043.244 7
  23322720.101    -8119094.667 6  -6018405.108 5
  24663502.593    -3626607.117 5  -2769493.457 5
 94  2 17 18 43  0.0030000  0  6 14  4 29 22 18 19
  21196519.687     1413580.944 7   1122132.588 7
  25625180.491      -10120.905 3     -5019.281 2
  21824649.460    -3018685.955 7  -2324698.620 8
  22139925.843    -3202492.072 6  -2435276.963 7
  23313274.936    -8168712.652 6  -6057068.402 6
  24651339.288    -3690545.157 5  -2819315.233 5
 94  2 17 18 43 30.0030000  0  6 14  4 29 22 18 19
  21206410.577     1465573.770 7   1162646.458 7
  25625688.413       -7544.382 4     -3011.568 2
  21823130.983    -3026663.452 7  -2330914.836 8
  22144862.538    -3176537.231 6  -2415052.405 7
  23303851.343    -8218253.101 6  -6095671.282 6
  24639205.265    -3754308.141 5  -2869000.598 5
 94  2 17 18 44  0.0030000  0  6 14  4 29 22 18 19
  21216412.593     1518132.210 7   1203601.061 7
  25626255.811       -4488.283 4      -630.221 1
  21821648.233    -3034461.788 7  -2336991.457 8
  22149912.515    -3150004.179 6  -2394377.296 7
  23294432.311    -8267730.254 6  -6134224.843 6
  24627115.905    -3817885.115 5  -2918541.001 5
 94  2 17 18 44 30.0030000  0  6 14  4 29 22 18 19
  21226522.827     1571256.592 7   1244996.646 7
  25626931.249        -961.911 4      2117.605 1
  21820196.507    -3042079.076 7  -2342926.983 8
  22155071.311    -3122890.622 7  -2373249.848 7
  23285029.866    -8317132.596 6  -6172720.123 6
  24615044.679    -3881260.128 5  -2967924.031 5
 94  2 17 18 45  0.0030000  0  6 14  4 29 22 18 19
  21236736.905     1624928.180 7   1286818.652 7
  25627688.874        3031.866 4      5229.667 1
  21818781.796    -3049521.136 7  -2348725.981 8
  22160341.421    -3095207.313 7  -2351678.445 7
  23275641.897    -8366464.831 6  -6211160.775 6
  24603032.061    -3944423.942 5  -3017142.475 5
 94  2 17 18 45 30.0030000  0  6 14  4 29 22 18 19
  21247054.038     1679147.328 7   1329067.312 7
  25628536.882        7512.053 4      8720.714 1
  21817398.444    -3056794.618 7  -2354393.625 8
  22165715.452    -3066963.348 6  -2329670.158 7
  23266272.491    -8415742.190 6  -6249558.668 5
  24591056.616    -4007377.689 6  -3066197.231 5
 94  2 17 18 46  0.0030000  0  6 14  4 29 22 18 19
  21257472.194     1733898.156 7   1371730.269 7
  25629491.976       12470.818 5     12584.679 2
  21816045.702    -3063905.025 7  -2359934.185 8
  22171194.327    -3038158.799 6  -2307225.055 7
  23256900.960    -8464953.691 6  -6287905.254 6
  24579113.218    -4070130.444 6  -3115095.348 5
 94  2 17 18 46 30.0030000  0  6 14  4 29 22 18 19
  21267995.835     1789185.447 7   1414811.253 7
  25630516.507       17902.033 4     16816.810 1
  21814723.421    -3070848.122 7  -2365344.378 8
  22176790.116    -3008761.520 6  -2284318.088 7
  23247555.155    -8514083.770 6  -6326188.396 6
  24567200.522    -4132690.864 6  -3163843.610 5
 94  2 17 18 47  0.0030000  0  6 14  4 29 22 18 19
  21278615.390     1845001.981 7   1458304.631 7
  25631640.007       23800.904 4     21413.326 2
  21813431.483    -3077630.710 7  -2370629.494 8
  22182498.679    -2978763.513 6  -2260943.012 7
  23238216.866    -8563157.115 6  -6364427.319 6
  24555329.921    -4195082.365 6  -3212460.239 5
 94  2 17 18 47 30.0030000  0  6 14  4 29 22 18 19
  21289339.280     1901357.033 7   1502217.635 7
  25632853.147       30177.561 4     26382.147 2
  21812173.093    -3084248.519 7  -2375786.203 8
  22188328.679    -2948133.407 7  -2237075.398 7
  23228894.382    -8612146.829 6  -6402601.104 6
  24543490.718    -4257298.809 6  -3260940.458 5
 94  2 17 18 48  0.0030000  0  6 14  4 29 22 18 19
  21300162.077     1958235.633 7   1546538.602 7
  25634148.624       37013.454 3     31708.771 3
  21810943.874    -3090715.214 7  -2380825.161 8
  22194277.155    -2916868.848 6  -2212713.400 7
  23219586.765    -8661044.602 6  -6440703.227 6
  24531687.530    -4319336.447 6  -3309281.339 5
 94  2 17 18 48 30.0030000  0  6 14  4 29 22 18 19
  21311086.015     2015638.224 7   1591267.869 7
  25635547.179       44309.122 3     37393.692 2
  21809740.226    -3097032.664 7  -2385747.838 8
  22200342.116    -2884985.388 7  -2187869.148 7
  23210296.772    -8709869.837 6  -6478748.844 6
  24519916.421    -4381199.931 5  -3357486.528 5
 94  2 17 18 49  0.0030000  0  6 14  4 29 22 18 19
  21322108.976     2073555.111 7   1636397.890 7
  25637014.476       52076.536 3     43446.208 1
  21808569.405    -3103191.500 7  -2390546.910 8
  22206527.718    -2852504.308 7  -2162559.214 7
  23201019.819    -8758619.677 6  -6516735.700 6
  24508174.835    -4442888.083 5  -3405555.099 5
 94  2 17 18 49 30.0030000  0  6 14  4 29 22 18 19
  21333227.522     2131992.648 7   1681933.606 7
  25638589.562       60320.223 4     49869.847 1
  21807427.015    -3109192.232 7  -2395222.791 8
  22212818.155    -2819436.099 7  -2136791.776 7
  23191761.452    -8807284.577 6  -6554656.383 6
  24496468.687    -4504397.438 5  -3453484.345 5
 94  2 17 18 50  0.0030000  0  6 14  4 29 22 18 19
  21344450.702     2190964.426 7   1727885.621 7
  25640250.186       69036.739 4     56661.979 1
  21806315.101    -3115027.210 7  -2399769.506 8
  22219221.218    -2785794.647 7  -2110577.646 7
  23182510.171    -8855884.029 6  -6592526.070 6
  24484791.765    -4565730.894 5  -3501276.543 5
 94  2 17 18 50 30.0030000  0  6 14  4 29 22 18 19
  21355770.905     2250470.687 7   1774254.105 8
  25641989.835       78220.484 4     63818.161 1
  21805236.140    -3120695.113 7  -2404186.043 8
  22225729.437    -2751586.402 7  -2083921.860 7
  23173275.796    -8904421.846 6  -6630347.715 6
  24473164.226    -4626889.618 6  -3548932.595 5
 94  2 17 18 51  0.0030000  0  6 14  4 29 22 18 19
  21367201.780     2310520.905 7   1821046.461 8
  25643834.397       87875.295 5     71341.362 4
  21804192.280    -3126197.214 7  -2408473.381 8
  22232347.343    -2716801.653 7  -2056816.853 7
  23164049.804    -8952891.974 6  -6668116.625 6
  24461560.546    -4687857.553 6  -3596439.991 6
 94  2 17 18 51 30.0030000  0  6 14  4 29 22 18 19
  21378730.155     2371116.000 7   1868263.396 8
  25645765.093       97985.154 5     79219.169 3
  21803171.874    -3131547.047 7  -2412642.070 8
  22239077.999    -2681440.592 7  -2029262.775 7
  23154840.077    -9001298.790 6  -6705836.195 6
  24449995.554    -4748628.890 6  -3643794.211 5
 94  2 17 18 52  0.0030000  0  6 14  4 29 22 18 19
  21390364.812     2432253.511 7   1915902.991 8
  25647769.397      108541.885 4     87445.189 2
  21802185.429    -3136735.737 7  -2416685.189 8
  22245912.312    -2645507.602 7  -2001263.038 7
  23145639.171    -9049646.051 6  -6743509.362 6
  24438469.749    -4809199.873 6  -3690992.303 5
 94  2 17 18 52 30.0030000  0  6 14  4 29 22 18 19
  21402103.757     2493927.428 7   1963960.559 8
  25649865.741      119558.304 4     96029.415 2
  21801231.476    -3141747.322 7  -2420590.315 8
  22252863.671    -2608994.656 7  -1972811.408 7
  23136454.866    -9097918.236 6  -6781124.022 6
  24426985.937    -4869558.069 6  -3738024.603 5
 94  2 17 18 53  0.0030000  0  6 14  4 29 22 18 19
  21413937.913     2556131.674 7   2012431.379 8
  25652049.632      131046.963 3    104981.613 2
  21800312.671    -3146578.396 7  -2424354.783 8
  22259922.936    -2571907.555 7  -1943912.372 7
  23127282.890    -9146115.205 6  -6818680.080 6
  24415529.077    -4929721.087 6  -3784904.830 6
 94  2 17 18 53 30.0030000  0  6 14  4 29 22 18 19
  21425875.866     2618862.698 7   2061312.671 8
  25654323.733      143008.827 4    114302.540 2
  21799428.179    -3151230.156 7  -2427979.525 8
  22267085.858    -2534256.878 7  -1914574.179 7
  23118127.741    -9194231.875 7  -6856173.565 6
  24404116.233    -4989696.836 6  -3831639.129 5
 94  2 17 18 54  0.0030000  0  6 14  4 29 22 18 19
  21437914.382     2682119.067 7   2110603.316 8
  25656693.851      155453.781 4    123999.891 2
  21798576.030    -3155697.807 7  -2431460.795 8
  22274356.616    -2496041.939 7  -1884796.316 7
  23108980.593    -9242274.919 6  -6893609.682 6
  24392742.976    -5049484.525 6  -3878226.891 6
 94  2 17 18 54 30.0030000  0  6 14  4 29 22 18 19
  21450047.812     2745892.467 7   2160296.848 8
  25659155.155      168390.179 4    134080.181 3
  21797757.624    -3159989.544 7  -2434804.999 8
  22281739.210    -2457252.763 7  -1854570.999 7
  23099857.663    -9290239.591 7  -6930984.711 6
  24381398.937    -5109089.513 6  -3924672.304 5
 94  2 17 18 55  0.0030000  0  6 14  4 29 22 18 19
  21462282.796     2810187.924 7   2210397.175 8
  25661708.452      181797.128 5    144527.139 2
  21796972.702    -3164132.795 7  -2438033.495 9
  22289228.679    -2417903.280 7  -1823909.081 7
  23090744.890    -9338134.973 6  -6968305.756 6
  24370087.827    -5168519.823 6  -3970981.616 5
 94  2 17 18 55 30.0030000  0  6 14  4 29 22 18 19
  21474619.460     2875014.407 7   2260911.294 8
  25664341.210      195661.649 5    155330.630 2
  21796209.702    -3168138.462 7  -2441154.783 8
  22296821.710    -2377998.655 7  -1792814.589 7
  23081643.116    -9385963.444 6  -7005574.675 6
  24358815.226    -5227764.953 6  -4017146.630 5
 94  2 17 18 56  0.0030000  0  6 14  4 29 22 18 19
  21487054.335     2940359.996 7   2311829.911 7
  25667072.038      209977.298 5    166485.673 1
  21795474.210    -3172000.971 7  -2444164.518 9
  22304524.358    -2337529.721 7  -1761280.382 7
  23072552.171    -9433727.516 6  -7042793.399 6
  24347581.741    -5286829.025 6  -4063170.556 5
 94  2 17 18 56 30.0030000  0  6 14  4 29 22 18 19
  21499590.280     3006222.843 7   2363151.588 7
  25669877.913      224743.780 4    177991.996 2
  21794767.765    -3175717.759 7  -2447060.709 8
  22312329.499    -2296493.692 7  -1729304.273 7
  23063478.749    -9481404.069 6  -7079943.933 6
  24336375.296    -5345711.235 6  -4109052.772 5
 94  2 17 18 57  0.0030000  0  6 14  4 29 22 18 19
  21512222.827     3072606.917 7   2414879.417 7
  25672768.319      239959.685 3    189848.517 2
  21794089.319    -3179274.924 7  -2449832.521 8
  22320247.226    -2254886.023 7  -1696882.734 7
  23054425.421    -9528983.787 6  -7117019.014 6
  24325204.171    -5404396.440 6  -4154781.476 6
 94  2 17 18 57 30.0030000  0  6 14  4 29 22 18 19
  21524949.593     3139487.244 7   2466993.937 7
  25675762.866      255642.336 3    202068.734 1
  21793452.038    -3182643.448 7  -2452457.335 8
  22328275.944    -2212697.684 7  -1664008.732 7
  23045389.858    -9576463.190 7  -7154015.927 6
  24314071.991    -5462886.276 6  -4200357.954 5
 94  2 17 18 58  0.0030000  0  6 14  4 29 22 18 19
  21537769.069     3206855.884 7   2519488.952 7
  25678836.069      271796.975 3    214656.740 2
  21792848.304    -3185800.407 7  -2454917.290 8
  22336417.351    -2169917.383 7  -1630673.463 7
  23036377.811    -9623832.501 6  -7190927.036 6
  24302980.765    -5521170.414 6  -4245774.139 5
 94  2 17 18 58 30.0030000  0  6 14  4 29 22 18 19
  21550682.186     3274712.061 7   2572363.870 7
  25681990.585      288415.188 3    227605.954 2
  21792286.804    -3188757.823 7  -2457221.763 8
  22344669.515    -2126555.272 7  -1596884.825 7
  23027380.483    -9671096.567 6  -7227756.144 6
  24291929.022    -5579254.741 6  -4291034.617 6
 94  2 17 18 59  0.0030000  0  6 14  4 29 22 18 19
  21563685.374     3343049.790 7   2625614.027 7
  25685242.663      305490.221 3    240911.127 2
  21791762.851    -3191502.490 7  -2459360.462 8
  22353026.913    -2082625.955 7  -1562654.207 7
  23018405.562    -9718272.368 6  -7264516.469 6
  24280916.663    -5637142.462 6  -4336141.889 6
 94  2 17 18 59 30.0030000  0  6 14  4 29 22 18 19
  21576780.718     3411874.759 7   2679243.846 7
  25688578.054      323015.327 4    254567.034 3
  21791278.562    -3194048.929 7  -2461344.692 8
  22361494.687    -2038136.802 7  -1527987.348 7
  23009443.569    -9765369.167 6  -7301215.229 6
  24269933.976    -5694848.123 6  -4381107.293 6
 94  2 17 19  0  0.0030000  0  6 14  4 29 22 18 19
  21589974.608     3481205.495 7   2733267.777 7
  25692008.171      340982.761 5    268567.598 2
  21790825.835    -3196427.316 7  -2463197.973 9
  22370069.054    -1993087.299 6  -1492883.851 7
  23000491.538    -9812397.208 6  -7337860.407 6
  24258991.124    -5752371.670 6  -4425930.791 6
 94  2 17 19  0 30.0030000  0  6 14  4 29 22 18 19
  21603266.374     3551048.111 7   2787690.567 7
  25695503.804      359404.438 4    282922.165 2
  21790400.983    -3198649.703 7  -2464929.696 8
  22378745.507    -1947483.432 7  -1457348.398 7
  22991553.569    -9859371.892 6  -7374464.019 6
  24248071.827    -5809719.181 6  -4470617.093 6
 94  2 17 19  1  0.0030000  0  6 14  4 29 22 18 19
  21616655.608     3621412.619 7   2842520.027 7
  25699097.944      378292.042 4    297639.730 1
  21790012.694    -3200711.426 7  -2466536.225 8
  22387527.296    -1901324.472 6  -1421380.397 7
  22982628.476    -9906293.114 6  -7411025.952 6
  24237190.765    -5866882.643 6  -4515159.977 6
 94  2 17 19  1 30.0030000  0  6 14  4 29 22 18 19
  21630147.671     3692316.597 7   2897769.858 7
  25702784.186      397655.225 4    312727.926 2
  21789647.382    -3202621.449 7  -2468024.546 8
  22396422.093    -1854595.804 6  -1384968.460 7
  22973707.663    -9953158.518 6  -7447544.390 6
  24226354.491    -5923859.040 6  -4559557.085 6
 94  2 17 19  2  0.0030000  0  6 14  4 29 22 18 19
  21643743.827     3763754.195 7   2953435.501 7
  25706562.140      417507.789 5    328197.470 2
  21789319.319    -3204343.508 7  -2469366.404 8
  22405423.233    -1807294.226 6  -1348110.089 7
  22964802.483    -9999948.029 6  -7484003.696 6
  24215549.296    -5980636.464 6  -4603799.166 6
 94  2 17 19  2 30.0030000  0  6 14  4 29 22 18 19
  21657435.351     3835716.098 7   3009509.683 7
  25710431.382      437830.163 5    344033.078 3
  21789030.679    -3205853.486 7  -2470543.010 8
  22414533.335    -1759424.642 6  -1310809.116 7
  22955916.561   -10046638.591 6  -7520385.897 6
  24204782.015    -6037213.912 6  -4647885.408 6
 94  2 17 19  3  0.0030000  0  6 14  4 29 22 18 19
  21671227.882     3908196.585 7   3065987.956 8
  25714383.968      458606.915 5    360222.763 2
  21788788.296    -3207141.363 7  -2471546.546 8
  22423754.796    -1710973.519 6  -1273054.995 7
  22947052.819   -10093216.821 6  -7556680.577 6
  24194055.452    -6093595.565 6  -4691819.065 6
 94  2 17 19  3 30.0030000  0  6 14  4 29 22 18 19
  21685117.038     3981171.493 7   3122851.497 8
  25718417.843      479820.305 4    376752.679 3
  21788585.241    -3208209.018 7  -2472378.472 8
  22433079.796    -1661944.380 6  -1234850.473 7
  22938216.905   -10139676.253 6  -7592882.690 6
  24183361.429    -6149785.402 6  -4735603.260 6
 94  2 17 19  4  0.0030000  0  6 14  4 29 22 18 19
  21699093.999     4054628.509 7   3180090.701 8
  25722533.608      501461.445 3    393615.874 2
  21788417.632    -3209063.338 7  -2473044.165 8
  22442519.601    -1612341.151 6  -1196198.614 7
  22929396.632   -10186006.630 7  -7628984.254 6
  24172705.601    -6205774.032 6  -4779230.675 6
 94  2 17 19  4 30.0030000  0  6 14  4 29 22 18 19
  21713161.444     4128564.737 7   3237703.316 8
  25726734.476      523522.883 3    410806.578 1
  21788293.765    -3209737.905 7  -2473569.791 8
  22452065.944    -1562173.378 6  -1157106.840 7
  22920604.624   -10232220.436 7  -7664994.979 6
  24162087.015    -6261557.559 6  -4822698.279 6
 94  2 17 19  5  0.0030000  0  6 14  4 29 22 18 19
  21727323.116     4202975.857 7   3295685.978 8
  25731011.413      546021.096 3    428337.655 1
  21788195.421    -3210239.838 7  -2473960.901 8
  22461721.030    -1511449.231 6  -1117581.525 7
  22911828.476   -10278327.816 7  -7700922.789 6
  24151511.280    -6317143.267 6  -4866011.741 6
 94  2 17 19  5 30.0030000  0  6 14  4 29 22 18 19
  21741573.304     4277859.570 7   3354036.890 8
  25735380.421      568958.498 4    446210.955 1
  21788134.710    -3210570.573 7  -2474218.607 9
  22471475.616    -1460184.983 6  -1077635.352 7
  22903078.405   -10324319.280 7  -7736760.263 6
  24140975.054    -6372527.394 6  -4909168.123 6
 94  2 17 19  6  0.0030000  0  6 14  4 29 22 18 19
  21755915.968     4353226.855 7   3412764.612 8
  25739828.491      592344.315 3    464433.671 2
  21788105.280    -3210727.744 7  -2474341.066 8
  22481332.343    -1408384.191 6  -1037271.080 7
  22894349.210   -10370203.183 7  -7772513.934 6
  24130471.397    -6427717.309 6  -4952173.173 5
 94  2 17 19  6 30.0030000  0  6 14  4 29 22 18 19
  21770349.976     4429078.122 7   3471869.466 8
  25744376.491      616189.282 3    483014.157 2
  21788112.116    -3210694.521 7  -2474315.164 8
  22491288.069    -1356055.495 6   -996495.460 7
  22885635.054   -10415988.487 7  -7808190.786 6
  24120004.233    -6482722.816 6  -4995034.550 6
 94  2 17 19  7  0.0030000  0  6 14  4 29 22 18 19
  21784876.390     4505424.623 7   3531360.213 8
  25748997.819      640496.028 3    501954.458 3
  21788156.749    -3210447.946 7  -2474123.046 8
  22501355.069    -1303182.979 7   -955296.082 7
  22876939.468   -10461669.920 7  -7843786.696 6
  24109573.772    -6537542.290 6  -5037750.964 6
 94  2 17 19  7 30.0030000  0  6 14  4 29 22 18 19
  21799501.921     4582278.431 7   3591246.279 8
  25753716.007      665264.892 3    521254.866 1
  21788241.233    -3209997.354 7  -2473771.919 8
  22511517.655    -1249771.536 7   -913676.743 7
  22868266.640   -10507255.583 7  -7879307.967 6
  24099182.155    -6592159.713 6  -5080309.920 6
 94  2 17 19  8  0.0030000  0  6 14  4 29 22 18 19
  21814225.069     4659648.500 7   3651534.602 8
  25758513.819      690501.481 4    540919.712 3
  21788367.272    -3209348.009 7  -2473265.947 8
  22521779.772    -1195830.882 6   -871645.079 7
  22859604.640   -10552760.052 7  -7914765.987 6
  24088828.241    -6646570.604 6  -5122707.975 6
 94  2 17 19  8 30.0030000  0  6 14  4 29 22 18 19
  21829046.155     4737527.464 7   3712219.471 8
  25763404.968      716198.155 4    560943.088 2
  21788526.694    -3208501.486 7  -2472606.316 8
  22532144.241    -1141359.457 6   -829199.803 7
  22850963.366   -10598183.070 7  -7950160.530 6
  24078514.515    -6700770.513 6  -5164941.610 6
 94  2 17 19  9  0.0030000  0  6 14  4 29 22 18 19
  21843964.944     4815926.743 7   3773309.789 8
  25768381.749      742346.927 3    581318.769 2
  21788727.866    -3207458.472 7  -2471793.582 8
  22542615.452    -1086336.521 6   -786324.789 7
  22842340.155   -10643502.280 7  -7985474.175 6
  24068240.272    -6754744.419 6  -5206999.144 6
 94  2 17 19  9 30.0030000  0  6 14  4 29 22 18 19
  21858978.312     4894830.424 7   3834793.143 8
  25773435.655      768940.412 3    602040.938 3
  21788959.983    -3206234.824 7  -2470840.085 8
  22553190.397    -1030778.428 7   -743032.766 7
  22833732.444   -10688711.899 7  -8020702.444 6
  24058012.538    -6808502.599 6  -5248888.576 6
 94  2 17 19 10  0.0030000  0  6 14  4 29 22 18 19
  21874085.726     4974221.625 7   3896656.393 8
  25778578.171      795971.407 3    623104.051 1
  21789233.390    -3204804.631 7  -2469725.655 8
  22563867.562     -974661.966 6   -699305.643 7
  22825155.804   -10733799.063 7  -8055835.277 6
  24047820.585    -6862045.631 6  -5290610.356 6
 94  2 17 19 10 30.0030000  0  6 14  4 29 22 18 19
  21889284.374     5054084.326 7   3958887.037 8
  25783807.851      823419.988 4    644492.551 2
  21789543.632    -3203161.205 7  -2468445.072 9
  22574654.780     -917969.188 6   -655129.465 7
  22816599.569   -10778759.142 7  -8090869.089 6
  24037677.093    -6915371.750 6  -5332163.127 6
 94  2 17 19 11  0.0030000  0  6 14  4 29 22 18 19
  21904569.827     5134415.460 7   4021482.696 8
  25789113.538      851285.126 4    666205.633 2
  21789901.444    -3201297.049 7  -2466992.479 8
  22585552.390     -860704.124 6   -610507.339 7
  22808069.030   -10823586.872 7  -8125799.771 6
  24027564.858    -6968478.218 6  -5373544.721 6
 94  2 17 19 11 30.0030000  0  6 14  4 29 22 18 19
  21919945.436     5215208.952 7   4084438.633 8
  25794495.030      879575.383 4    688249.968 2
  21790299.241    -3199201.695 7  -2465359.742 8
  22596557.952     -802876.664 6   -565446.996 7
  22799562.210   -10868300.656 7  -8160641.661 6
  24017507.687    -7021373.284 6  -5414761.591 6
 94  2 17 19 12  0.0030000  0  6 14  4 29 22 18 19
  21935407.077     5296460.905 7   4147751.814 8
  25799959.437      908299.186 4    710632.151 2
  21790743.983    -3196866.595 7  -2463540.193 8
  22607668.382     -744484.057 6   -519946.266 7
  22791070.976   -10912918.452 7  -8195408.759 6
  24007477.741    -7074054.257 6  -5455811.650 6
 94  2 17 19 12 30.0030000  0  6 14  4 29 22 18 19
  21950956.397     5378173.765 7   4211424.148 6
  25805503.530      937461.022 3    733355.637 2
  21791228.429    -3194312.747 7  -2461550.198 6
  22618885.202     -685548.311 6   -474022.325 6
  22782599.124   -10957442.675 7  -8230102.944 5
  23997491.179    -7126531.450 6  -5496702.904 5
 94  2 17 19 13  0.0030000  0  6 14  4 29 22 18 19
  21966595.194     5460352.013 7   4275459.121 7
  25811150.062      967086.077 3    756440.077 2
  21791757.132    -3191542.435 7  -2459391.514 8
  22630196.811     -626081.127 6   -427684.272 7
  22774143.085   -11001868.495 7  -8264720.445 6
  23987545.116    -7178818.032 6  -5537445.633 6
 94  2 17 19 13 30.0030000  0  6 14  4 29 22 18 19
  21982321.686     5542992.423 7   4339854.228 7
  25816870.108      997187.455 3    779895.652 2
  21792323.187    -3188556.882 7  -2457065.111 8
  22641620.687     -566082.921 6   -380932.451 7
  22765712.726   -11046185.290 7  -8299252.992 6
  23977627.960    -7230913.976 6  -5578039.805 6
 94  2 17 19 14  0.0030000  0  6 14  4 29 22 18 19
  21998134.015     5626082.641 7   4404599.817 7
  25822716.624     1027763.202 3    803720.857 4
  21792931.562    -3185365.415 7  -2454578.264 8
  22653132.436     -505562.996 6   -333774.079 7
  22757297.937   -11090372.288 7  -8333684.398 6
  23967754.101    -7282814.056 6  -5618481.364 6
 94  2 17 19 14 30.0030000  0  6 14  4 29 22 18 19
  22014029.054     5709623.135 7   4469696.285 7
  25828595.757     1058798.543 3    827904.171 2
  21793576.702    -3181974.411 7  -2451935.920 8
  22664746.187     -444535.912 6   -286220.522 7
  22748924.397   -11134405.227 7  -8367995.752 6
  23957913.608    -7334523.045 6  -5658774.003 6
 94  2 17 19 15  0.0030000  0  6 14  4 29 22 18 19
  22030015.413     5793625.137 7   4535152.369 7
  25834580.843     1090283.647 3    852437.960 3
  21794263.030    -3178373.751 7  -2449130.216 8
  22676458.312     -383000.576 6   -238270.930 7
  22740571.710   -11178276.184 7  -8402180.897 7
  23948113.171    -7386025.777 6  -5698905.933 6
 94  2 17 19 15 30.0030000  0  6 14  4 29 22 18 19
  22046089.835     5878107.708 7   4600982.918 7
  25840666.702     1122204.695 4    877311.487 3
  21794989.069    -3174553.423 7  -2446153.346 8
  22688265.647     -320938.423 6   -189910.832 7
  22732259.319   -11221967.478 7  -8436226.041 6
  23938352.593    -7437301.306 6  -5738860.813 6
 94  2 17 19 16  0.0030000  0  6 14  4 29 22 18 19
  22062264.366     5963100.139 7   4667210.764 7
  25846820.038     1154546.278 4    902512.669 2
  21795758.765    -3170508.848 7  -2443001.733 8
  22700178.765     -258341.731 6   -141134.219 7
  22723979.851   -11265482.087 7  -8470133.508 6
  23928639.851    -7488340.836 6  -5778631.794 6
 94  2 17 19 16 30.0030000  0  6 14  4 29 22 18 19
  22078539.382     6048617.449 7   4733847.599 8
  25853045.929     1187293.834 4    928030.228 2
  21796572.960    -3166234.848 7  -2439671.344 8
  22712190.640     -195196.830 6    -91930.432 7
  22715731.187   -11308834.742 7  -8503914.761 6
  23918974.374    -7539145.512 6  -5818219.770 6
 94  2 17 19 17  0.0030000  0  6 14  4 29 22 18 19
  22094909.507     6134659.501 7   4800893.328 8
  25859353.702     1220450.128 3    953866.277 1
  21797432.108    -3161720.690 7  -2436153.819 8
  22724320.116     -131482.884 6    -42283.221 7
  22707508.452   -11352050.855 7  -8537589.630 6
  23909351.726    -7589722.062 6  -5857629.986 6
 94  2 17 19 17 30.0030000  0  6 14  4 29 22 18 19
  22111381.312     6221200.605 7   4868327.928 8
  25865746.147     1254020.913 4    980025.302 1
  21798337.921    -3156959.314 7  -2432443.655 8
  22736551.530      -67202.463 6      7805.380 7
  22699307.663   -11395144.169 7  -8571168.796 7
  23899769.601    -7640084.681 6  -5896873.503 6
 94  2 17 19 18  0.0030000  0  6 14  4 29 22 18 19
  22127937.272     6308215.840 7   4936131.974 8
  25872211.788     1288013.170 3   1006512.737 1
  21799286.999    -3151950.027 7  -2428540.312 8
  22748893.702       -2371.440 6     58323.024 7
  22691126.733   -11438124.822 7  -8604660.182 7
  23890224.851    -7690232.714 6  -5935949.808 6
 94  2 17 19 18 30.0030000  0  6 14  4 29 22 18 19
  22144579.452     6395674.509 7   5004281.554 8
  25878769.101     1322444.261 3   1033342.151 1
  21800290.757    -3146687.990 7  -2424440.020 8
  22761328.257       62997.535 6    109259.855 7
  22682970.765   -11480990.588 7  -8638062.039 6
  23880718.796    -7740173.409 6  -5974864.553 6
 94  2 17 19 19  0.0030000  0  6 14  4 29 22 18 19
  22161305.257     6483568.437 7   5072770.289 8
  25885403.679     1357327.047 3
  21801340.194    -3141173.181 7  -2420142.759 8
  22773863.765      128884.122 6    160600.018 7
  22674837.733   -11523728.729 7  -8671364.445 6
  23871254.452    -7789903.655 6  -6013615.320 6
 94  2 17 19 19 30.0030000  0  5 14 29 22 18 19
  22178115.530     6571899.503 7   5141599.659 8
  21802435.366    -3135416.168 7  -2415656.764 8
  22786496.304      195268.270 6    212327.894 7
  22666732.710   -11566312.577 7  -8704546.628 7
  23861836.616    -7839410.412 6  -6052191.928 6
 94  2 17 19 20  0.0030000  0  5 14 29 22 18 19
  22195010.804     6660687.122 7   5210784.786 8
  21803575.812    -3129424.915 7  -2410988.252 8
  22799227.116      262144.724 6    264439.384 7
  22658662.538   -11608730.806 7  -8737599.758 7
  23852460.327    -7888687.973 6  -6090589.952 6
 94  2 17 19 20 30.0030000  0  5 14 29 22 18 19
  22211994.952     6749939.000 7   5280331.673 8
  21804761.304    -3123201.541 7  -2406138.877 8
  22812040.311      329508.067 6    316930.283 7
  22650620.976   -11650990.599 7  -8770529.439 7
  23843123.827    -7937742.894 6  -6128814.503 6
 94  2 17 19 21  0.0030000  0  5 14 29 22 18 19
  22229066.265     6839652.453 7   5350238.220 8
  21805988.249    -3116760.042 7  -2401119.528 8
  22824954.647      397373.888 6    369812.728 7
  22642608.054   -11693094.001 7  -8803337.264 7
  23833829.671    -7986578.800 6  -6166868.391 6
 94  2 17 19 21 30.0030000  0  5 14 29 22 18 19
  22246223.390     6929809.698 7   5420490.589 8
  21807256.811    -3110092.767 7  -2395924.244 8
  22837968.421      465756.245 6    423097.670 7
  22634623.749   -11735052.120 7  -8836031.860 7
  23824573.366    -8035204.176 6  -6204758.239 6
 94  2 17 19 22  0.0040000  0  5 14 29 22 18 19
  22263462.262     7020403.660 7   5491083.259 8
  21808568.137    -3103194.171 7  -2390548.716 8
  22851081.848      534669.397 6    476796.217 7
  22626661.824   -11776888.076 7  -8868631.280 7
  23815357.894    -8083626.532 6  -6242489.888 6
 94  2 17 19 22 30.0040000  0  5 14 29 22 18 19
  22280781.629     7111414.066 7   5562000.432 8
  21809928.012    -3096051.701 7  -2384983.154 8
  22864300.387      604128.115 6    530919.880 7
  22618725.644   -11818592.665 7  -8901128.340 7
  23806185.801    -8131845.642 6  -6280063.166 6
 94  2 17 19 23  0.0040000  0  5 14 29 22 18 19
  22298178.777     7202833.640 7   5633236.431 7
  21811334.316    -3088656.308 7  -2379220.513 8
  22877617.691      674128.435 6    585465.586 7
  22610815.238   -11860161.460 7  -8933519.579 7
  23797049.355    -8179862.565 6  -6317478.901 6
 94  2 17 19 23 30.0040000  0  5 14 29 22 18 19
  22315653.473     7294670.610 7   5704797.684 7
  21812792.309    -3080996.743 7  -2373252.020 8
  22891038.551      744648.305 6    640416.141 7
  22602930.973   -11901590.638 7  -8965802.038 7
  23787951.644    -8227666.256 6  -6354728.483 6
 94  2 17 19 24  0.0040000  0  5 14 29 22 18 19
  22333211.668     7386940.122 7   5776695.979 7
  21814296.301    -3073085.983 7  -2367087.791 8
  22904555.629      815671.840 6    695759.163 7
  22595077.590   -11942858.716 7  -8997958.959 7
  23778898.824    -8275242.884 6  -6391801.135 6
 94  2 17 19 24 30.0040000  0  5 14 29 22 18 19
  22350850.144     7479640.522 7   5848930.033 7
  21815851.535    -3064931.969 7  -2360734.009 8
  22918164.840      887173.100 6    751474.427 7
  22587256.754   -11983958.576 7  -9029984.801 7
  23769887.410    -8322592.448 6  -6428696.857 6
 94  2 17 19 25  0.0040000  0  5 14 29 22 18 19
  22368576.019     7572777.800 7   5921504.516 7
  21817443.863    -3056548.899 7  -2354201.743 8
  22931857.918      959137.576 6    807550.640 7
  22579467.973   -12024890.919 7  -9061880.119 7
  23760924.012    -8369703.565 6  -6465406.771 6
 94  2 17 19 25 30.0040000  0  5 14 29 22 18 19
  22386383.113     7666357.912 7   5994424.059 7
  21819081.121    -3047947.259 7  -2347499.169 8
  22945640.660     1031581.478 6    864000.421 7
  22571713.238   -12065648.944 7  -9093639.598 6
  23752000.730    -8416586.034 6  -6501938.516 6
 94  2 17 19 26  0.0040000  0  5 14 29 22 18 19
  22404272.871     7760371.930 7   6067681.708 7
  21820757.254    -3039133.738 7  -2340631.494 8
  22959517.145     1104499.067 6    920819.306 7
  22563988.434   -12106240.037 7  -9125269.012 7
  23743119.512    -8463253.220 6  -6538302.515 6
 94  2 17 19 26 30.0040000  0  5 14 29 22 18 19
  22422243.434     7854811.231 7   6141270.750 7
  21822479.051    -3030094.233 7  -2333587.711 8
  22973486.676     1177897.578 6    978012.935 7
  22556293.199   -12146682.380 7  -9156782.502 7
  23734277.770    -8509715.236 6  -6574506.634 6
 94  2 17 19 27  0.0040000  0  6 14  4 29 22 18 19
  22440296.262     7949670.090 7   6215186.722 7
  26002382.246          -0.58313
  21824243.238    -3020820.230 7  -2326361.214 8
  22987545.980     1251797.884 6   1035597.558 7
  22548626.934   -12186967.164 7  -9188173.224 7
  23725476.176    -8555971.598 6  -6610550.506 6
 94  2 17 19 27 30.0040000  0  6 14  4 29 22 18 19
  22458424.238     8044926.917 7   6289412.799 7
  26010345.613       41831.293 3
  21826053.223    -3011303.673 7  -2318945.723 8
  23001706.191     1326191.094 6   1093566.272 7
  22540988.840   -12227110.348 7  -9219453.607 7
  23716713.480    -8602035.674 6  -6646444.543 6
 94  2 17 19 28  0.0040000  0  5 14 29 22 18 19
  22476621.605     8140567.227 7   6363937.692 7
  21827911.598    -3001537.623 7  -2311335.825 8
  23015951.465     1401057.041 6   1151903.338 7
  22533373.019   -12267122.115 7  -9250631.591 7
  23707984.988    -8647896.847 6  -6682180.482 6
 94  2 17 19 28 30.0040000  0  5 14 29 22 18 19
  22494893.191     8236581.342 7   6438753.866 7
  21829818.746    -2991519.402 7  -2303529.423 8
  23030294.121     1476401.142 6   1210612.991 6
  22525784.223   -12307003.593 7  -9281708.043 7
  23699295.668    -8693563.591 6  -6717764.886 6
 94  2 17 19 29  0.0040000  0  5 14 29 22 18 19
  22513234.394     8332972.938 7   6513864.173 7
  21831773.769    -2981241.411 7  -2295520.596 8
  23044718.574     1552220.925 6   1269693.300 6
  22518221.957   -12346740.585 7  -9312671.927 7
  23690642.043    -8739035.136 6  -6753197.207 6
 94  2 17 19 29 30.0040000  0  6 14 27 29 22 18 19
  22531651.215     8429745.039 7   6589270.984 7
  26203804.199      -33005.94413
  21833779.879    -2970697.618 7  -2287304.657 8
  23059236.543     1628508.814 6   1329138.363 6
  22510687.840   -12386342.574 7  -9343530.590 7
  23682022.019    -8784321.662 6  -6788485.346 6
 94  2 17 19 30  0.0040000  0  6 14 27 29 22 18 19
  22550140.879     8526915.884 7   6664988.501 7
  26191250.879      -98960.294 3        -0.31713
  21835835.019    -2959897.268 7  -2278888.807 8
  23073840.449     1705256.770 6   1388941.926 6
  22503178.894   -12425792.099 7  -9374270.465 7
  23673440.309    -8829426.986 6  -6823632.298 6
 94  2 17 19 30 30.0040000  0  6 14 27 29 22 18 19
  22568713.832     8624502.147 7   6741029.720 7
  26178718.988     -164832.629 3    -51329.125 3
  21837941.715    -2948838.101 7  -2270271.278 8
  23088533.215     1782472.532 6   1449110.014 6
  22495704.699   -12465072.460 7  -9404878.507 7
  23664891.090    -8874351.869 6  -6858638.624 6
 94  2 17 19 31  0.0040000  0  6 14 27 29 22 18 19
  22587361.684     8722513.628 7   6817402.280 7
  26166195.816     -230611.986 3   -102585.480 2
  21840094.426    -2937520.257 7  -2261452.192 8
  23103314.012     1860153.747 6   1509640.812 6
  22488263.441   -12504180.080 7  -9435351.950 7
  23656377.934    -8919086.175 6  -6893496.470 6
 94  2 17 19 31 30.0040000  0  6 14 27 29 22 18 19
  22606096.410     8820957.702 7   6894111.921 7
  26153693.676     -296309.712 3   -153778.248 2
  21842295.652    -2925956.545 7  -2252441.518 8
  23118183.785     1938289.878 6   1570526.068 6
  22480854.027   -12543117.330 7  -9465692.637 7
  23647906.230    -8963615.094 6  -6928194.253 6
 94  2 17 19 32  0.0040000  0  6 14 27 29 22 18 19
  22624916.121     8919840.186 7   6971163.184 7
  26141221.012     -361922.941 3   -204905.166 1
  21844542.340    -2914150.879 7  -2243242.301 8
  23133136.512     2016873.086 6   1631759.698 7
  22473479.785   -12581864.681 7  -9495885.353 7
  23639476.348    -9007917.375 6  -6962715.449 6
 94  2 17 19 32 30.0040000  0  6 14 27 29 22 18 19
  22643808.277     9019132.937 7   7048534.134 7
  26128748.324     -427467.014 3   -255978.226 3
  21846835.238    -2902106.582 7  -2233857.133 8
  23148180.543     2095909.843 6   1693346.742 7
  22466139.660   -12620438.724 7  -9525943.030 7
  23631087.855    -9051993.247 6  -6997060.225 6
 94  2 17 19 33  0.0040000  0  6 14 27 29 22 18 19
  22662778.934     9118819.240 7   7126211.740 7
  26116283.769     -492948.737 3   -307002.745 2
  21849171.395    -2889816.421 7  -2224280.388 8
  23163306.801     2175409.011 6   1755294.131 6
  22458833.191   -12658837.762 7  -9555864.334 7
  23622748.269    -9095828.322 6  -7031217.365 6
 94  2 17 19 33 30.0040000  0  6 14 27 29 22 18 19
  22681816.676     9218870.505 7   7204173.736 7
  26103824.738     -558379.182 4   -357987.368 2
  21851557.816    -2877280.613 7  -2214512.224 8
  23178520.723     2255368.655 6   1817600.341 6
  22451560.410   -12697061.905 7  -9585649.359 7
  23614449.730    -9139425.913 6  -7065189.459 6
 94  2 17 19 34  0.0040000  0  6 14 27 29 22 18 19
  22700921.395     9319263.054 7   7282401.668 7
  26091389.684     -623755.446 4   -408929.775 1
  21853989.738    -2864492.766 7  -2204547.674 8
  23193828.215     2335794.651 6   1880269.928 7
  22444316.324   -12735122.217 7  -9615306.722 7
  23606193.934    -9182806.413 6  -7098992.391 6
 94  2 17 19 34 30.0040000  0  6 14 27 29 22 18 19
  22720088.887     9419985.567 7   7360886.710 7
  26078951.324     -689070.875 3   -459824.837 1
  21856475.059    -2851445.049 7  -2194380.622 8
  23209218.918     2416682.212 6   1943299.173 6
  22437101.848   -12773032.601 7  -9644847.257 7
  23597977.348    -9225984.995 6  -7132637.978 6
 94  2 17 19 35  0.0040000  0  6 14 27 29 22 18 19
  22739318.723     9521046.350 7   7439635.348 7
  26066551.965     -754299.843 4   -510652.534 2
  21859007.590    -2838126.161 7  -2184002.271 8
  23224696.832     2498018.185 6   2006677.839 6
  22429919.840   -12810777.232 7  -9674258.639 7
  23589798.746    -9268966.173 6  -7166129.763 6
 94  2 17 19 35 30.0040000  0  6 14 27 29 22 18 19
  22758620.848     9622470.966 7   7518667.485 7
  26054146.574     -819419.004 3   -561394.662 2
  21861595.777    -2824533.307 7  -2173410.441 8
  23240261.480     2579798.019 6   2070402.371 6
  22422768.660   -12848350.809 7  -9703536.731 7
  23581657.293    -9311753.593 6  -7199470.565 6
 94  2 17 19 36  0.0040000  0  6 14 27 29 22 18 19
  22777991.496     9724274.489 7   7597994.871 7
  26041784.051     -884415.664 3   -612041.344 2
  21864233.043    -2810672.855 7  -2162610.083 8
  23255903.199     2662005.174 6   2134459.873 7
  22415652.605   -12885755.695 7  -9732683.373 7
  23573553.832    -9354345.906 6  -7232659.346 6
 94  2 17 19 36 30.0040000  0  6 14 27 29 22 18 19
  22797438.934     9826463.057 7   7677622.307 7
  26029436.574     -949291.541 3   -662593.890 2
  21866920.449    -2796546.163 7  -2151602.261 8
  23271631.566     2744638.665 6   2198849.586 6
  22408567.277   -12922975.838 7  -9761686.051 7
  23565487.707    -9396723.935 6  -7265681.151 6
 94  2 17 19 37  0.0040000  0  7 14 27 28 29 22 18 19
  22816956.660     9929037.361 7   7757550.304 7
  26017109.246    -1014065.772 3   -713067.255 2
  26006679.168      -24593.93013
  21869660.496    -2782152.624 7  -2140386.523 8
  23287432.144     2827702.411 6   2263574.573 6
  22401523.402   -12960000.209 7  -9790536.180 7
  23557464.223    -9438879.910 7  -7298529.916 6
 94  2 17 19 37 30.0040000  0  7 14 27 28 29 22 18 19
  22836551.191    10031998.449 7   7837779.693 7
  26004799.941    -1078758.803 4   -763477.322 3
  25997338.137      -73703.343 3    -19124.13311
  21872445.449    -2767508.378 7  -2128975.428 8
  23303321.441     2911191.694 6   2328631.134 6
  22394513.191   -12996843.923 7  -9819245.551 7
  23549486.684    -9480811.398 6  -7331203.779 6
 94  2 17 19 38  0.0040000  0  7 14 27 28 29 22 18 19
  22856216.496    10135340.715 7   7918306.111 7
  25992501.762    -1143380.050 4   -813831.467 3
  25988019.035     -122727.601 3    -57324.812 2
  21875284.590    -2752599.203 7  -2117357.893 8
  23319289.832     2995111.519 6   2394023.190 6
  22387538.699   -13033490.079 7  -9847800.966 7
  23541550.324    -9522521.234 6  -7363704.908 6
 94  2 17 19 38 30.0040000  0  7 14 27 28 29 22 18 19
  22875954.285    10239057.814 7   7999124.602 7
  25980216.762    -1207956.634 4   -864150.787 3
  25978701.246     -171662.069 3    -95455.557 1
  21878172.394    -2737423.096 7  -2105532.354 8
  23335340.582     3079464.589 6   2459752.832 6
  22380600.238   -13069946.022 7  -9876208.173 7
  23533650.504    -9564034.504 6  -7396052.872 6
 94  2 17 19 39  0.0040000  0  7 14 27 28 29 22 18 19
  22895761.769    10343146.553 7   8080232.677 7
  25967934.894    -1272484.235 4   -914431.965 3
  25969409.012     -220502.015 3   -133512.668 1
  21881107.855    -2721993.947 7  -2093509.641 8
  23351477.996     3164242.529 6   2525813.541 6
  22373700.879   -13106221.759 7  -9904474.960 7
  23525782.691    -9605369.351 7  -7428261.801 6
 94  2 17 19 39 30.0040000  0  7 14 27 28 29 22 18 19
  22915638.168    10447607.172 7   8161630.528 7
  25955673.621    -1336928.537 5   -964648.230 4
  25960137.770     -269234.591 3   -171486.153 1
  21884092.496    -2706314.516 7  -2081291.904 8
  23367688.902     3249448.483 6   2592207.765 6
  22366829.191   -13142318.937 7  -9932602.615 7
  23517952.363    -9646524.860 6  -7460330.986 6
 94  2 17 19 40  0.0040000  0  7 14 27 28 29 22 18 19
  22935584.246    10552419.479 6   8243302.436 7
  25943432.160    -1401277.615 5  -1014790.297 4
  25950888.348     -317856.042 3   -209373.061 1
  21887125.262    -2690370.526 7  -2068868.023 8
  23383986.496     3335086.747 6   2658938.860 6
  22359994.660   -13178230.197 7  -9960585.395 7
  23510153.520    -9687499.033 6  -7492258.866 6
 94  2 17 19 40 30.0040000  0  7 14 27 28 29 22 18 19
  22955592.535    10657573.673 6   8325240.740 7
  25931205.098    -1465524.973 5  -1064853.114 5
  25941651.309     -366356.154 3   -247165.412 2
  21890208.738    -2674162.782 7  -2056238.609 8
  23400362.785     3421149.755 6   2726000.919 6
  22353194.316   -13213963.730 7  -9988429.687 7
  23502399.637    -9728268.461 6  -7524027.214 6
 94  2 17 19 41  0.0040000  0  7 14 27 28 29 22 18 19
  22975664.355    10763051.409 6   8407431.157 7
  25918997.496    -1529639.805 5  -1114812.662 5
  25932451.207     -414727.521 3   -284857.445 1
  21893345.762    -2657692.695 7  -2043404.773 8
  23416823.277     3507628.087 6   2793386.610 6
  22346434.309   -13249501.728 7 -10016121.612 7
  23494681.762    -9768810.258 7  -7555618.154 6
 94  2 17 19 41 30.0040000  0  7 14 27 28 29 22 18 19
  22995800.629    10868856.317 6   8489876.507 7
  25906820.559    -1593622.444 4  -1164669.231 4
  25923265.988     -462957.489 3   -322439.320 1
  21896537.918    -2640921.009 7  -2030335.925 8
  23433357.738     3594534.988 6   2861106.239 6
  22339709.988   -13284833.952 7 -10043653.210 7
  23487011.332    -9809112.822 7  -7587022.702 6
 94  2 17 19 42  0.0040000  0  7 14 27 28 29 22 18 19
  23015992.418    10974980.204 6   8572570.416 7
  25894671.590    -1657517.276 4  -1214457.334 2
  25914119.457     -511060.584 3   -359922.334 2
  21899786.707    -2623845.124 7  -2017030.040 8
  23449977.652     3681851.455 6   2929145.016 6
  22333023.746   -13319964.496 7 -10071027.648 7
  23479390.184    -9849175.380 7  -7618240.215 6
 94  2 17 19 42 30.0040000  0  7 14 27 28 29 22 18 19
  23036247.621    11081431.530 6   8655519.471 7
  25882523.574    -1721330.179 5  -1264181.618 5
  25904983.316     -559026.854 3   -397298.713 2
  21903087.660    -2606478.118 7  -2003497.307 8
  23466668.449     3769573.285 6   2997499.670 6
  22326379.598   -13354886.697 7 -10098239.746 7
  23471811.316    -9889004.358 7  -7649275.728 6
 94  2 17 19 43  0.0040000  0  7 14 27 28 29 22 18 19
  23056571.348    11188210.834 6   8738724.098 7
  25870396.004    -1785074.964 5  -1313852.793 5
  25895891.871     -606852.022 3   -434565.120 2
  21906449.965    -2588817.310 7  -1989735.640 8
  23483436.168     3857705.083 6   3066173.777 6
  22319775.535   -13389592.428 7 -10125283.169 7
  23464265.512    -9928620.846 7  -7680145.656 6
 94  2 17 19 43 30.0040000  0  7 14 27 28 29 22 18 19
  23076954.777    11295324.253 6   8822189.066 7
  25858267.340    -1848791.633 5  -1363502.042 5
  25886810.441     -654541.244 3   -471725.571 1
  21909868.902    -2570854.808 7  -1975738.882 8
  23500286.730     3946244.792 6   3135165.747 6
  22313209.449   -13424087.659 7 -10152162.566 7
  23456770.809    -9968026.634 7  -7710851.402 6
 94  2 17 19 44  0.0040000  0  7 14 27 28 29 22 18 19
  23097396.355    11402759.396 6   8905904.727 7
  25846155.801    -1912469.361 5  -1413120.936 3
  25877775.496     -702091.328 3   -508777.589 1
  21913339.176    -2552615.702 7  -1961526.586 8
  23517211.793     4035181.396 6   3204466.975 6
  22306688.301   -13458357.314 7 -10178866.187 7
  23449313.105   -10007222.663 6  -7741393.710 6
 94  2 17 19 44 30.0040000  0  7 14 27 28 29 22 18 19
  23117898.145    11510506.268 6   8989863.299 7
  25834051.809    -1976077.993 5  -1462685.942 3
  25868747.965     -749487.076 3   -545709.282 2
  21916863.785    -2534097.717 7  -1947096.991 8
  23534212.496     4124522.169 6   3274083.138 6
  22300211.855   -13492389.392 7 -10205384.692 7
  23441893.363   -10046223.426 7  -7771783.855 6
 94  2 17 19 45  0.0040000  0  7 14 27 28 29 22 18 19
  23138465.668    11618565.385 6   9074065.171 7
  25821955.519    -2039611.467 5  -1512192.366 5
  25859760.543     -796729.871 3   -582521.776 2
  21920445.457    -2515282.825 7  -1932436.027 8
  23551287.121     4214267.920 6   3344014.869 6
  22293780.793   -13526193.748 7 -10231725.739 7
  23434506.980   -10085024.016 7  -7802018.024 7
 94  2 17 19 45 30.0040000  0  7 14 27 28 29 22 18 19
  23159091.371    11726947.504 6   9158518.732 7
  25809888.199    -2103046.111 5  -1561621.744 4
  25850793.285     -843812.243 3   -619209.259 3
  21924080.668    -2496175.487 7  -1917547.196 8
  23568444.316     4304422.792 6   3414265.397 6
  22287388.105   -13559782.662 7 -10257898.915 7
  23427160.746   -10123620.767 7  -7832093.372 7
 94  2 17 19 46  0.0040000  0  7 14 27 28 29 22 18 19
  23179780.176    11835663.350 6   9243232.341 7
  25797840.301    -2166351.146 5  -1610950.139 3
  25841872.988     -890717.765 3   -655758.906 2
  21927769.340    -2476784.592 7  -1902437.401 8
  23585680.699     4395003.180 6   3484847.495 6
  22281037.746   -13593157.278 7 -10283905.102 7
  23419855.402   -10162026.120 7  -7862019.571 6
 94  2 17 19 46 30.0040000  0  7 14 27 28 29 22 18 19
  23200530.223    11944734.513 6   9328222.817 6
  25785811.965    -2229545.504 5  -1660192.281 4
  25832980.668     -937442.197 3   -692167.433 2
  21931516.793    -2457098.565 7  -1887097.639 8
  23602998.754     4486011.381 6   3555762.953 6
  22274725.160   -13626332.803 7 -10309756.153 7
  23412584.887   -10200237.470 7  -7891794.608 6
 94  2 17 19 47  0.0040000  0  7 14 27 28 29 22 18 19
  23221356.527    12054169.741 6   9413496.980 7
  25773803.129    -2292653.866 5  -1709367.402 5
  25824117.129     -984001.118 3   -728446.965 2
  21935316.254    -2437129.605 7  -1871537.417 8
  23620398.809     4577437.915 6   3627004.373 6
  22268444.676   -13659323.301 7 -10335463.030 7
  23405348.277   -10238250.096 7  -7921414.793 6
 94  2 17 19 47 30.0040000  0  7 14 27 28 29 22 18 19
  23242253.027    12163970.783 6   9499056.187 6
  25761806.676    -2355683.149 5  -1758480.937 3
  25815297.402    -1030389.171 3   -764593.351 1
  21939168.254    -2416883.119 7  -1855760.935 8
  23637872.285     4669270.768 6   3698562.406 6
  22262208.754   -13692109.297 7 -10361010.553 7
  23398153.902   -10276059.509 7  -7950876.640 7
 94  2 17 19 48  0.0040000  0  7 14 27 28 29 22 18 19
  23263210.191    12274118.589 6   9584885.600 6
  25749825.637    -2418640.408 5  -1807538.331 4
  25806499.855    -1076607.134 3   -800607.194 2
  21943075.707    -2396350.742 7  -1839761.684 8
  23655420.285     4761488.795 6   3770420.567 6
  22256010.980   -13724677.335 7 -10386388.233 7
  23391001.848   -10313656.840 6  -7980173.228 7
 94  2 17 19 48 30.0040000  0  7 14 27 28 29 22 18 19
  23284242.535    12384602.379 6   9670976.821 6
  25737862.223    -2481520.139 5  -1856535.356 5
  25797735.535    -1122668.992 3   -836499.429 1
  21947041.309    -2375512.241 7  -1823523.895 8
  23673037.934     4854073.976 6   3842564.808 6
  22249856.285   -13757023.564 7 -10411593.069 7
  23383886.840   -10351025.439 7  -8009291.571 7
 94  2 17 19 49  0.0040000  0  7 14 27 28 29 22 18 19
  23305320.754    12495398.318 6   9757311.277 6
  25725916.051    -2544309.268 5  -1905461.788 4
  25788997.879    -1168572.303 3   -872268.091 1
  21951066.496    -2354365.784 7  -1807046.137 8
  23690727.035     4947022.460 6   3914992.149 6
  22243742.879   -13789139.074 7 -10436618.127 7
  23376821.441   -10388162.680 6  -8038229.645 6
 94  2 17 19 49 30.0040000  0  7 14 27 28 29 22 18 19
  23326457.418    12606486.480 6   9843873.437 6
  25713985.246    -2606991.917 5  -1954305.290 4
  25780288.980    -1214299.781 3   -907899.738 1
  21955148.738    -2332909.370 7  -1790326.863 8
  23708484.832     5040335.194 6   3987703.317 6
  22237676.473   -13821022.594 7 -10461462.410 7
  23369796.160   -10425076.077 6  -8066993.297 7
 94  2 17 19 50  0.0040000  0  7 14 27 28 29 22 18 19
  23347653.480    12717851.193 6   9930651.084 6
  25702082.676    -2669555.072 5  -2003055.689 4
  25771622.980    -1259847.989 3   -943391.736 2
  21959294.223    -2311133.720 7  -1773358.830 8
  23726312.504     5134024.879 6   4060708.207 6
  22231651.082   -13852680.950 7 -10486131.240 7
  23362815.309   -10461768.390 6  -8095584.661 6
 94  2 17 19 50 30.0040000  0  7 14 27 28 29 22 18 19
  23368893.137    12829504.045 6  10017653.268 6
  25690194.605    -2732009.080 5  -2051721.069 4
  25762995.262    -1305204.832 3   -978734.617 1
  21963497.332    -2289041.488 7  -1756144.120 8
  23744214.082     5228095.153 6   4134009.660 6
  22225669.254   -13884107.510 7 -10510619.454 7
  23355873.277   -10498247.457 6  -8124009.870 7
 94  2 17 19 51  0.0040000  0  7 14 27 28 29 22 18 19
  23390200.785    12941447.855 6  10104882.168 6
  25678326.160    -2794359.365 5  -2100305.637 4
  25754406.098    -1350348.359 3  -1013911.285 2
  21967759.480    -2266643.661 7  -1738691.282 8
  23762188.324     5322552.610 6   4207612.809 6
  22219739.059   -13915294.928 7 -10534921.313 8
  23348968.895   -10534520.747 6  -8152274.721 7
 94  2 17 19 51 30.0040000  0  7 14 27 28 29 22 18 19
  23411558.934    13053682.662 6  10192337.812 6
  25666488.191    -2856603.798 5  -2148807.755 5
  25745856.285    -1395279.482 3  -1048922.441 1
  21972080.809    -2243932.089 7  -1720993.971 8
  23780234.879     5417388.320 6   4281510.703 6
  22213847.613   -13946250.511 7 -10559042.514 8
  23342107.449   -10570587.529 6  -8180378.666 7
 94  2 17 19 52  0.0040000  0  7 14 27 28 29 22 18 19
  23432978.840    13166222.287 6  10280030.979 6
  25654657.926    -2918758.487 5  -2197239.941 4
  25737340.973    -1440009.538 3  -1083776.958 2
  21976463.215    -2220903.459 7  -1703049.603 8
  23798351.488     5512594.168 6   4355697.011 6
  22208000.082   -13976968.333 7 -10582978.466 8
  23335281.441   -10606445.653 7  -8208320.015 7
 94  2 17 19 52 30.0040000  0  7 14 27 28 29 22 18 19
  23454448.957    13279074.929 6  10367968.053 6
  25642848.949    -2980830.819 5  -2245607.961 5
  25728872.082    -1484542.233 3  -1118477.700 1
  21980902.098    -2197571.724 7  -1684869.052 8
  23816539.004     5608162.865 6   4430166.059 6
  22202199.738   -14007446.885 7 -10606727.973 8
  23328498.793   -10642096.439 7  -8236099.808 7
 94  2 17 19 53  0.0040000  0  7 14 27 28 29 22 18 19
  23475975.988    13392207.902 6  10456123.576 6
  25631052.894    -3042813.657 5  -2293906.214 5
  25720431.934    -1528885.724 3  -1153031.022 2
  21985398.191    -2173949.031 7  -1666461.773 8
  23834793.535     5704096.181 6   4504919.234 6
  22196443.871   -14037696.063 7 -10630298.751 8
  23321756.027   -10677538.357 7  -8263716.843 7
 94  2 17 19 53 30.0040000  0  7 14 27 28 29 22 18 19
  23497561.559    13505619.500 6  10544496.201 6
  25619273.832    -3104699.860 5  -2342129.171 5
  25712024.738    -1573028.921 3  -1187428.255 2
  21989951.402    -2150027.559 7  -1647821.686 8
  23853115.762     5800387.529 6   4579951.389 6
  22190734.152   -14067703.838 7 -10653681.419 8
  23315050.418   -10712757.773 7  -8291160.504 7
 94  2 17 19 54  0.0040000  0  7 14 27 28 29 22 18 19
  23519194.527    13619311.822 6  10633087.568 6
  25607516.277    -3166490.286 5  -2390277.490 5
  25703670.363    -1616967.871 3  -1221666.369 2
  21994557.894    -2125828.527 7  -1628965.316 8
  23871509.004     5897032.525 6   4655259.114 6
  22185071.652   -14097464.662 7 -10676871.661 8
  23308391.590   -10747767.214 7  -8318440.549 7
 94  2 17 19 54 30.0040000  0  8 14 27 28 29 22 18 19 31
  23540879.426    13733267.295 6  10721883.997 6
  25595780.754    -3228157.366 5  -2438329.667 5
  25695342.230    -1660688.869 3  -1255734.660 2
  21999214.582    -2101343.815 7  -1609886.339 8
  23889967.363     5994030.549 6   4730841.923 6
  22179454.285   -14126979.937 7 -10699870.562 8
  23301774.559   -10782553.218 7  -8345546.483 7
  26034594.043          -0.41713
 94  2 17 19 55  0.0040000  0  8 14 27 28 29 22 18 19 31
  23562613.871    13847477.836 6  10810879.169 6
  25584067.012    -3289699.480 5  -2486284.467 5
  25687067.246    -1704185.278 3  -1289627.971 2
  22003931.144    -2076557.414 7  -1590572.282 8
  23908489.457     6091375.264 6   4806694.879 6
  22173883.684   -14156252.614 7 -10722680.437 8
  23295191.871   -10817125.404 7  -8372485.820 7
  26022009.488      -66174.067 3
 94  2 17 19 55 30.0040000  0  8 14 27 28 29 22 18 19 31
  23584401.988    13961969.068 6  10900093.051 6
  25572384.949    -3351115.190 5  -2534140.729 5
  25678831.566    -1747469.899 3  -1323356.218 2
  22008706.621    -2051455.143 7  -1571012.083 8
  23927080.121     6189062.196 6   4882814.496 6
  22168359.426   -14185282.999 7 -10745301.514 8
  23288654.027   -10851490.703 7  -8399263.929 7
  26009418.926     -132385.314 3    -25800.22411
 94  2 17 19 56  0.0040000  0  8 14 27 28 29 22 18 19 31
  23606238.488    14076750.207 6  10989532.848 6
  25560720.785    -3412403.864 5  -2581898.005 5
  25670641.004    -1790547.857 3  -1356923.479 2
  22013547.691    -2026017.856 7  -1551190.833 8
  23945740.238     6287107.888 6   4959213.667 6
  22162881.293   -14214064.850 7 -10767728.930 8
  23282153.254   -10885648.594 7  -8425880.438 7
  25996793.605     -198627.493 3    -77417.574 1
 94  2 17 19 56 30.0040000  0  8 14 27 28 29 22 18 19 31
  23628138.527    14191818.578 6  11079196.460 6
  25549077.770    -3473575.805 5  -2629564.312 5
  25662480.738    -1833414.112 3  -1390325.761 2
  22018455.996    -2000229.475 7  -1531096.008 8
  23964464.230     6385509.163 6   5035889.923 6
  22157455.152   -14242590.314 7 -10789956.564 8
  23275692.215   -10919600.026 7  -8452336.073 7
  25984182.309     -264911.045 3   -129067.217 1
 94  2 17 19 57  0.0040000  0  8 14 27 28 29 22 18 19 31
  23650090.551    14307181.891 6  11169089.889 6
  25537457.832    -3534658.276 5  -2677160.892 5
  25654369.566    -1876063.220 3  -1423558.822 2
  22023432.801    -1974095.892 7  -1510732.177 8
  23983250.363     6484258.434 6   5112837.344 6
  22152076.098   -14270851.702 7 -10811978.422 8
  23269268.457   -10953360.816 7  -8478643.151 6
  25971551.410     -331253.714 3   -180762.915 1
 94  2 17 19 57 30.0040000  0  8 14 27 28 29 22 18 19 31
  23672102.066    14422832.569 6  11259207.250 6
  25525844.043    -3595669.365 5  -2724701.838 5
  25646289.769    -1918491.296 3  -1456619.638 2
  22028465.559    -1947625.036 7  -1490105.555 8
  24002112.848     6583345.727 6   5190048.134 6
  22146750.551   -14298847.305 7 -10833793.184 8
  23262883.496   -10986919.126 7  -8504792.466 7
  25958925.402     -397655.551 3   -232504.744 1
 94  2 17 19 58  0.0040000  0  8 14 27 28 29 22 18 19 31
  23694163.066    14538759.408 6  11349539.801 6
  25514250.238    -3656614.512 5  -2772191.410 5
  25638266.262    -1960667.470 3  -1489484.144 1
  22033567.488    -1920822.271 7  -1469220.299 8
  24021028.762     6682760.970 6   5267514.474 6
  22141474.230   -14326567.229 7 -10855393.118 8
  23256537.590   -11020265.011 7  -8530776.250 6
  25946279.410     -464109.595 3   -284287.247 1
 94  2 17 19 58 30.0040000  0  8 14 27 28 29 22 18 19 31
  23716273.660    14654951.476 6  11440079.015 6
  25502664.230    -3717487.951 5  -2819625.126 5
  25630285.793    -2002571.621 3  -1522136.670 2
  22038726.637    -1893700.152 7  -1448086.173 8
  24040008.887     6782504.140 6   5345236.346 6
  22136252.770   -14354012.169 7 -10876778.785 8
  23250233.121   -11053395.154 7  -8556591.926 7
  25933625.535     -530611.591 3   -336107.076 1
 94  2 17 19 59  0.0040000  0  8 14 27 28 29 22 18 19 31
  23738434.613    14771395.028 6  11530814.195 6
  25491093.895    -3778274.385 5  -2866991.024 5
  25622375.207    -2044201.279 3  -1554575.245 2
  22043949.777    -1866263.719 7  -1426707.135 8
  24059054.199     6882590.479 6   5423225.623 6
  22131082.551   -14381181.655 7 -10897949.807 8
  23243972.074   -11086287.904 7  -8582222.615 7
  25920961.613     -597138.543 3   -387946.327 1
 94  2 17 19 59 30.0040000  0  8 14 27 28 29 22 18 19 31
  23760631.137    14888076.121 6  11621734.475 6
  25479554.551    -3838957.664 5  -2914276.572 5
  25614487.527    -2085572.895 3  -1586812.763 2
  22049227.574    -1838525.832 7  -1405093.198 8
  24078168.684     6983025.523 6   5501486.624 6
  22125962.316   -14408080.278 7 -10918909.760 8
  23237761.394   -11118941.169 7  -8607666.698 7
  25908297.809     -663684.084 3   -439800.011 2
 94  2 17 20  0  0.0040000  0  8 14 27 28 29 22 18 19 31
  23782885.996    15004997.336 6  11712841.867 6
  25468026.418    -3899519.402 5  -2961467.421 5
  25606672.926    -2126683.727 3  -1618847.054 2
  22054564.059    -1810488.458 7  -1383245.900 8
  24097347.918     7083822.533 6   5580029.671 6
  22120897.855   -14434698.758 7 -10939651.411 8
  23231590.309   -11151362.114 7  -8632929.758 6
  25895633.113     -730237.061 3   -491659.439 1
 94  2 17 20  0 30.0040000  0  8 14 27 28 29 22 18 19 31
  23805174.254    15122148.600 6  11804128.513 6
  25456527.027    -3959950.794 5  -3008556.701 5
  25598900.246    -2167549.826 3  -1650690.595 2
  22059954.285    -1782144.098 7  -1361159.389 8
  24116601.090     7184991.247 6   5658862.355 6
  22115886.215   -14461036.674 7 -10960174.438 8
  23225463.113   -11183552.004 7  -8658012.768 7
  25882973.629     -796788.807 3   -543517.911 1
 94  2 17 20  1  0.0040000  0  8 14 27 28 29 22 18 19 31
  23827515.410    15239533.973 6  11895597.582 6
  25445052.629    -4020250.538 5  -3055543.427 5
  25591164.676    -2208185.739 4  -1682354.805 3
  22065410.754    -1753481.866 7  -1338825.182 8
  24135918.434     7286511.122 6   5737968.682 6
  22110925.176   -14487097.596 7 -10980481.619 8
  23219383.465   -11215506.620 7  -8682912.450 7
  25870307.059     -863343.326 3   -595378.470 1
 94  2 17 20  1 30.0040000  0  8 14 27 28 29 22 18 19 31
  23849903.098    15357172.284 6  11987263.748 6
  25433607.824    -4080424.498 5  -3102432.145 5
  25583479.043    -2248577.720 3  -1713828.903 2
  22070926.520    -1724491.200 7  -1316235.056 8
  24155300.590     7388355.579 6   5817327.932 6
  22106019.309   -14512881.190 7 -11000572.706 8
  23213346.301   -11247231.890 7  -8707633.415 7
  25857650.371     -929908.869 3   -647247.642 1
 94  2 17 20  2  0.0040000  0  8 14 27 28 29 22 18 19 31
  23872339.738    15475058.397 6  12079123.005 6
  25422172.301    -4140489.029 5  -3149235.591 5
  25575848.512    -2288705.641 4  -1745097.284 3
  22076508.543    -1695162.668 7  -1293381.660 8
  24174741.098     7490503.151 6   5896923.351 5
  22101164.738   -14538392.955 7 -11020451.975 8
  23207352.582   -11278729.639 7  -8732177.089 7
  25844977.051     -996478.088 3   -699119.645 2
 94  2 17 20  2 30.0040000  0  8 14 27 28 29 22 18 19 31
  23894815.848    15593206.221 6  12171186.198 6
  25410760.785    -4200438.913 5  -3195949.734 5
  25568263.246    -2328557.679 4  -1776150.667 2
  22082154.504    -1665480.588 7  -1270252.767 8
  24194233.254     7592956.110 6   5976756.752 5
  22096362.184   -14563632.497 7 -11040119.128 8
  23201406.121   -11309988.572 7  -8756534.671 7
  25832305.316    -1063044.827 3   -750989.719 2
 94  2 17 20  3  0.0040000  0  8 14 27 28 29 22 18 19 31
  23917348.176    15711621.151 6  12263457.526 6
  25399372.980    -4260288.439 5  -3242585.663 5
  25560718.879    -2368128.136 4  -1806984.657 2
  22087870.574    -1635456.354 7  -1246857.268 8
  24213785.488     7695712.985 6   6056826.983 5
  22091610.207   -14588602.748 7 -11059576.437 8
  23195498.652   -11341026.542 7  -8780720.068 7
  25819645.512    -1129608.505 3   -802857.437 1
 94  2 17 20  3 30.0040000  0  8 14 27 28 29 22 18 19 31
  23939938.363    15830308.307 6  12355940.986 6
  25388003.152    -4320044.916 5  -3289149.092 5
  25553249.332    -2407406.086 4  -1837590.714 3
  22093646.504    -1605100.197 7  -1223203.126 8
  24233404.988     7798792.376 6   6137148.528 5
  22086915.441   -14613287.404 7 -11078811.205 8
  23189631.293   -11371863.901 7  -8804749.151 7
  25806980.543    -1196150.726 3   -854708.436 2
 94  2 17 20  4  0.0040000  0  8 14 27 28 29 22 18 19 31
  23962571.035    15949255.710 6  12448627.226 6
  25376648.340    -4379710.844 5  -3335641.961 5
  25545834.777    -2446416.172 4  -1867988.067 2
  22099486.098    -1574413.115 7  -1199291.120 8
  24253086.137     7902216.482 6   6217738.682 5
  22082270.738   -14637686.746 7 -11097823.650 8
  23183796.887   -11402524.411 7  -8828640.421 7
  25794315.480    -1262670.078 3   -906541.644 1
 94  2 17 20  4 30.0040000  0  8 14 27 28 29 22 18 19 31
  23985251.777    16068459.899 6  12541513.560 6
  25365311.855    -4439275.265 5  -3382055.731 5
  25538461.223    -2485173.455 5  -1898188.427 2
  22105387.215    -1543396.882 7  -1175122.634 8
  24272834.348     8005994.795 6   6298604.846 6
  22077680.496   -14661792.438 7 -11116607.284 8
  23177995.629   -11433011.362 7  -8852396.462 7
  25781663.191    -1329175.080 4   -958363.724 1
 94  2 17 20  5  0.0040000  0  8 14 27 28 29 22 18 19 31
  24007979.980    16187908.419 6  12634590.270 6
  25353998.269    -4498726.952 5  -3428381.671 5
  25531133.035    -2523667.818 4  -1928183.907 3
  22111352.613    -1512047.778 7  -1150694.763 8
  24292645.262     8110109.310 6   6379732.981 5
  22073156.199   -14685586.881 7 -11135148.386 8
  23172227.574   -11463315.523 7  -8876010.060 7
  25769008.965    -1395665.284 3  -1010174.288 2
 94  2 17 20  5 30.0040000  0  8 14 27 28 29 22 18 19 31
  24030759.363    16307588.556 6  12727847.467 6
  25342705.527    -4558052.025 5  -3474608.937 5
  25523858.855    -2561898.128 5  -1957973.648 2
  22117383.277    -1480357.959 7  -1126001.399 8
  24312514.871     8214540.686 6   6461108.016 5
  22068687.098   -14709073.237 7 -11153449.429 8
  23166497.387   -11493417.693 7  -8899466.261 7
  25756366.449    -1462147.977 4  -1061979.018 1
 94  2 17 20  6  0.0050000  0  8 14 27 28 29 22 18 19 31
  24053571.352    16427487.169 6  12821274.894 6
  25331447.899    -4617238.188 5  -3520727.962 5
  25516633.634    -2599855.053 5  -1987550.361 3
  22123483.610    -1448304.865 7  -1101024.978 8
  24332446.220     8319275.598 6   6542719.562 5
  22064271.782   -14732266.219 7 -11171521.875 8
  23160813.095   -11523290.181 7  -8922743.501 7
  25743707.087    -1528634.227 4  -1113786.572 1
 94  2 17 20  6 30.0050000  0  8 14 27 28 29 22 18 19 31
  24076428.657    16547585.569 6  12914858.017 6
  25320215.243    -4676282.683 5  -3566736.586 5
  25509469.665    -2637505.624 5  -2016888.351 3
  22129652.837    -1415889.334 7  -1075766.126 8
  24352431.102     8424285.730 6   6624545.593 5
  22059913.798   -14755169.508 7 -11189368.578 8
  23155174.579   -11552911.954 7  -8945825.367 7
  25731058.392    -1595114.281 4  -1165589.272 1
 94  2 17 20  7  0.0050000  0  8 14 27 28 29 22 18 19 31
  24099324.220    16667897.529 6  13008607.542 5
  25309003.399    -4735194.471 5  -3612641.806 4
  25502361.798    -2674840.295 5  -2045980.218 2
  22135891.712    -1383097.483 7  -1050214.043 6
  24372465.462     8529566.708 6   6706582.670 4
  22055610.774   -14777784.211 7 -11206990.410 6
  23149588.126   -11582277.686 7  -8968707.726 6
  25718417.454    -1661567.066 3  -1217370.757 1
 94  2 17 20  7 30.0050000  0  8 14 27 28 29 22 18 19 31
  24122258.063    16788429.098 6  13102528.188 6
  25297810.782    -4794003.715 5  -3658467.122 5
  25495320.782    -2711859.506 4  -2074826.258 3
  22142203.142    -1349933.400 7  -1024371.921 8
  24392546.173     8635124.436 6   6788835.369 5
  22051359.681   -14800122.958 7 -11224397.227 8
  23144045.696   -11611411.319 7  -8991409.227 7
  25705776.290    -1727983.633 3
 94  2 17 20  8  0.0050000  0  8 14 27 28 29 22 18 19 31
  24145238.478    16909177.234 6  13196617.588 6
  25286632.727    -4852732.396 5  -3704229.665 5
  25488340.642    -2748556.713 4  -2103421.410 4
  22148583.126    -1316405.244 7   -998246.099 8
  24412689.438     8740959.213 6   6871303.959 5
  22047161.274   -14822184.397 7 -11241587.952 8
  23138541.017   -11640329.270 7  -9013942.663 7
  25693134.899    -1794353.869 3        -0.11911
 94  2 17 20  8 30.0050000  0  8 14 27 28 29 22 18 19 31
  24168257.063    17030132.832 6  13290868.650 6
  25275467.665    -4911400.392 5  -3749944.922 5
  25481407.142    -2784945.258 4  -2131776.067 4
  22155026.978    -1282535.470 7   -971854.081 8
  24432883.157     8847063.382 6   6953982.478 5
  22043018.095   -14843952.508 7 -11258550.111 8
  23133075.134   -11669052.300 7  -9036324.216 7
  25680525.970    -1860680.947 4    -51683.604 2
 94  2 17 20  9  0.0050000  0  8 14 27 28 29 22 18 19 31
  24191309.415    17151298.186 6  13385283.143 6
  25264320.782    -4970004.029 5  -3795610.030 5
  25474544.829    -2821027.712 4  -2159892.237 3
  22161536.478    -1248322.672 7   -945194.779 8
  24453130.235     8953444.175 6   7036876.527 5
  22038934.860   -14865414.906 7 -11275274.042 8
  23127645.821   -11697582.476 7  -9058555.498 7
  25667910.095    -1926960.662 4   -103330.144 1
 94  2 17 20  9 30.0050000  0  8 14 27 28 29 22 18 19 31
  24214407.454    17272659.589 6  13479850.412 6
  25253182.790    -5028533.379 5  -3841217.231 5
  25467734.790    -2856799.272 4  -2187766.171 3
  22168114.134    -1213765.799 7   -918267.363 8
  24473426.532     9060117.558 6   7119998.569 5
  22034908.243   -14886569.778 7 -11291758.363 8
  23122254.103   -11725920.618 7  -9080637.139 7
  25655302.360    -1993211.517 4   -154954.163 2
 94  2 17 20 10  0.0050000  0  8 14 27 28 29 22 18 19 31
  24237529.852    17394210.870 6  13574565.632 6
  25242063.024    -5086954.299 5  -3886739.932 5
  25460993.868    -2892259.550 5  -2215397.542 4
  22174758.454    -1178847.934 7   -891058.657 8
  24493779.477     9167090.860 6   7203354.314 5
  22030943.579   -14907410.444 7 -11307997.844 8
  23116905.962   -11754037.200 7  -9102546.138 7
  25642705.892    -2059430.912 4   -206553.635 2
 94  2 17 20 10 30.0050000  0  8 14 27 28 29 22 18 19 31
  24260704.376    17515960.413 6  13669435.344 6
  25230967.727    -5145244.334 5  -3932160.657 5
  25454306.227    -2927402.289 4  -2242781.493 4
  22181474.040    -1143561.633 7   -863562.856 8
  24514192.227     9274368.991 6   7286947.571 5
  22027040.532   -14927925.857 7 -11323983.864 8
  23111599.095   -11781925.674 7  -9124277.392 7
  25630110.345    -2125620.466 4   -258129.801 1
 94  2 17 20 11  0.0050000  0  8 14 27 28 29 22 18 19 31
  24283911.462    17637912.792 6  13764463.106 5
  25219900.376    -5203394.426 5  -3977472.321 5
  25447673.603    -2962228.828 4  -2269919.047 4
  22188260.790    -1107902.437 7   -835776.497 8
  24534671.673     9381950.724 6   7370777.410 5
  22023195.931   -14948132.436 7 -11339729.240 8
  23106332.040   -11809590.735 7  -9145834.563 7
  25617526.829    -2191766.507 4   -309672.052 1
 94  2 17 20 11 30.0050000  0  8 14 27 28 29 22 18 19 31
  24307157.470    17760076.655 6  13859655.660 5
  25208864.454    -5261398.148 5  -4022669.911 5
  25441105.438    -2996736.438 4  -2296808.068 4
  22195114.243    -1071876.170 7   -807704.106 8
  24555198.548     9489835.946 6   7454843.726 5
  22019409.688   -14968023.878 7 -11355229.052 8
  23101113.392   -11837016.094 7  -9167204.947 7
  25604944.017    -2257856.111 4   -361170.297 2
 94  2 17 20 12  0.0050000  0  8 14 27 28 29 22 18 19 31
  24330445.368    17882441.735 6  13955005.014 5
  25197856.485    -5319257.983 5  -4067755.380 5
  25434603.907    -3030925.744 4  -2323449.040 4
  22202036.087    -1035504.230 7   -779362.358 8
  24575782.329     9598001.743 6   7539128.673 5
  22015686.118   -14987590.332 7 -11370475.638 8
  23095939.837   -11864201.642 7  -9188388.479 7
  25592375.767    -2323869.754 4   -412609.346 2
 94  2 17 20 12 30.0050000  0  8 14 27 28 29 22 18 19 31
  24353768.134    18005006.721 6  14050510.123 5
  25186871.696    -5376982.532 5  -4112735.442 5
  25428153.728    -3064792.157 4  -2349838.382 5
  22209020.220     -998802.454 7   -750763.583 8
  24596417.978     9706444.005 5   7623629.037 5
  22012027.103   -15006821.204 7 -11385460.727 8
  23090809.454   -11891162.970 7  -9209397.288 7
  25579831.001    -2389791.973 4   -463977.120 2
 94  2 17 20 13  0.0050000  0  8 14 27 28 29 22 18 19 31
  24377123.946    18127755.917 6  14146158.793 5
  25175909.735    -5434580.753 5  -4157617.026 5
  25421766.142    -3098342.592 5  -2375981.491 3
  22216066.977     -961768.301 7   -721905.819 8
  24617109.462     9815157.325 5   7708340.633 5
  22008429.727   -15025724.408 7 -11400190.478 8
  23085723.931   -11917891.245 7  -9230224.480 7
  25567307.962    -2455610.892 5   -515264.385 2
 94  2 17 20 13 30.0050000  0  8 14 27 28 29 22 18 19 31
  24400513.462    18250679.266 6  14241943.136 5
  25164977.970    -5492057.292 5  -4202403.844 5
  25415449.181    -3131565.545 5  -2401869.396 4
  22223181.970     -924398.544 7   -692786.551 8
  24637841.259     9924136.975 5   7793259.725 5
  22004895.884   -15044287.416 7 -11414655.164 8
  23080683.024   -11944385.373 7  -9250869.246 7
  25554809.892    -2521335.592 5   -566478.271 2
 94  2 17 20 14  0.0050000  0  8 14 27 28 29 22 18 19 31
  24423936.407    18373761.921 6  14337851.630 5
  25154055.774    -5549427.085 5  -4247107.473 5
  25409193.829    -3164455.882 5  -2427498.123 3
  22230357.743     -886682.109 7   -663397.136 8
  24658633.767    10033368.143 5   7878374.823 5
  22001427.931   -15062508.951 7 -11428853.746 8
  23075679.751   -11970677.183 7  -9271356.348 7
  25542314.548    -2586979.765 5   -617629.386 1
 94  2 17 20 14 30.0050000  0  8 14 27 28 29 22 18 19 31
  24447394.634    18497019.216 6  14433896.205 5
  25143160.829    -5606694.256 5  -4291731.110 5
  25402993.118    -3197009.823 5  -2452864.691 4
  22237604.837     -848595.958 7   -633719.636 8
  24679463.977    10142852.603 5   7963687.292 5
  21998024.696   -15080400.038 7 -11442794.833 8
  23070712.790   -11996768.289 7  -9291687.054 7
  25529830.743    -2652557.339 5   -668728.579 1
 94  2 17 20 15  0.0050000  0  8 14 27 28 29 22 18 19 31
  24470877.392    18620455.141 6  14530079.967 5
  25132282.438    -5663860.120 6  -4336275.818 5
  25396866.454    -3229218.456 5  -2477962.181 4
  22244923.860     -810134.308 7   -603749.534 7
  24700342.282    10252584.313 5   8049192.416 5
  21994680.845   -15097967.979 7 -11456484.122 8
  23065785.962   -12022661.871 7  -9311863.856 7
  25517359.954    -2718082.935 5   -719787.286 1
 94  2 17 20 15 30.0050000  0  8 14 27 28 29 22 18 19 31
  24494409.337    18744079.083 6  14626410.239 5
  25121421.813    -5720918.476 5  -4380736.782 5
  25390802.852    -3261063.863 5  -2502776.622 4
  22252311.556     -771307.985 7   -573495.283 8
  24721275.227    10362558.684 5   8134886.641 5
  21991400.946   -15115205.078 7 -11469915.612 8
  23060892.563   -12048369.736 7  -9331895.934 7
  25504902.837    -2783560.254 5   -770808.356 1
 94  2 17 20 16  0.0050000  0  8 14 27 28 29 22 18 19 31
  24517970.306    18867897.814 6  14722892.299 5
  25110585.540    -5777869.902 6  -4425114.399 5
  25384815.563    -3292544.615 5  -2527306.942 4
  22259767.642     -732125.724 7   -542963.671 8
  24742246.024    10472777.631 5   8220771.438 5
  21988181.548   -15132125.938 7 -11483100.674 8
  23056041.235   -12073882.191 7  -9351775.745 7
  25492453.517    -2848981.174 5   -821785.463 2
 94  2 17 20 16 30.0050000  0  8 14 27 28 29 22 18 19 31
  24541569.587    18991916.898 6  14819530.466 5
  25099766.790    -5834695.075 6  -4469393.661 5
  25378891.212    -3323664.675 5  -2551556.196 4
  22267289.540     -692592.826 7   -512158.831 8
  24763267.071    10583251.269 5   8306854.703 5
  21985019.806   -15148738.902 7 -11496045.830 8
  23051225.118   -12099176.042 7  -9371485.207 7
  25480017.438    -2914330.852 5   -872707.048 2
 94  2 17 20 17  0.0050000  0  8 14 27 28 29 22 18 19 31
  24565205.892    19116116.443 6  14916309.253 5
  25088978.282    -5891391.459 5  -4513572.555 5
  25373043.884    -3354411.248 5  -2575514.438 3
  22274881.079     -652716.259 7   -481086.195 8
  24784341.126    10693986.067 5   8393141.468 5
  21981918.579   -15165029.146 7 -11508739.505 8
  23046456.634   -12124244.408 7  -9391018.970 7
  25467600.337    -2979583.576 5   -923553.109 2
 94  2 17 20 17 30.0050000  0  8 14 27 28 29 22 18 19 31
  24588869.079    19240491.360 6  15013224.693 5
  25078215.532    -5947963.560 5  -4557654.615 6
  25367258.681    -3384796.399 5  -2599191.059 4
  22282536.313     -612478.764 7   -449732.315 8
  24805459.110    10804978.059 5   8479628.649 5
  21978881.977   -15180993.147 7 -11521178.975 8
  23041732.470   -12149075.991 7  -9410368.225 7
  25455207.110    -3044723.475 5   -974311.273 2
 94  2 17 20 18  0.0050000  0  8 14 27 28 29 22 18 19 31
  24612568.868    19365037.467 5  15110273.522 5
  25067470.493    -6004415.579 5  -4601643.116 5
  25361550.009    -3414845.533 5  -2622605.873 4
  22290267.501     -571854.077 7   -418076.724 8
  24826628.634    10916226.158 5   8566315.402 5
  21975904.993   -15196628.001 7 -11533361.969 8
  23037051.634   -12173663.538 7  -9429527.326 7
  25442831.423    -3109745.121 5  -1024977.283 1
 94  2 17 20 18 30.0050000  0  8 14 27 28 29 22 18 19 31
  24636303.087    19489740.365 5  15207444.529 5
  25056753.196    -6060741.434 6  -4645533.307 6
  25355894.274    -3444554.975 5  -2645756.008 3
  22298075.446     -530826.148 7   -386106.920 8
  24847849.556    11027717.461 5   8653191.663 5
  21972998.274   -15211920.522 7 -11545278.202 8
  23032415.751   -12198019.023 7  -9448505.595 7
  25430480.884    -3174636.038 4  -1075541.438 1
 94  2 17 20 19  0.0050000  0  8 14 27 28 29 22 18 19 31
  24660062.892    19614591.346 5  15304730.923 5
  25046062.032    -6116957.627 6  -4689338.051 5
  25350303.204    -3473926.070 5  -2668642.510 4
  22305958.032     -489397.283 7   -353824.701 8
  24869104.368    11139436.001 5   8740244.994 5
  21970151.845   -15226875.647 7 -11556931.537 7
  23027821.962   -12222160.466 7  -9467317.072 7
  25418157.532    -3239401.078 5  -1126007.517 3
 94  2 17 20 19 30.0050000  0  8 14 27 28 29 22 18 19 31
  24683849.813    19739604.138 5  15402143.400 5
  25035381.712    -6173061.367 6  -4733055.183 5
  25344773.868    -3502966.023 5  -2691271.008 4
  22313915.821     -447568.035 7   -321230.498 8
  24890403.009    11251369.155 5   8827465.555 5
  21967369.267   -15241498.614 7 -11568326.040 8
  23023266.821   -12246100.042 7  -9485971.254 7
  25405853.204    -3304055.273 4  -1176387.252 1
 94  2 17 20 20  0.0050000  0  8 14 27 28 29 22 18 19 31
  24707665.688    19864759.772 5  15499667.171 5
  25024728.735    -6229043.459 6  -4776677.532 6
  25339319.743    -3531661.986 5  -2713631.464 4
  22321947.884     -405373.060 7   -288351.314 8
  24911749.634    11363515.982 5   8914852.611 5
  21964648.993   -15255785.733 7 -11579458.846 7
  23018748.040   -12269847.919 7  -9504476.060 7
  25393577.235    -3368599.938 4  -1226681.641 2
 94  2 17 20 20 30.0050000  0  8 14 27 28 29 22 18 19 31
  24731510.767    19990050.640 5  15597296.324 5
  25014099.540    -6284901.605 6  -4820203.294 6
  25333909.431    -3559993.745 5  -2735708.154 4
  22330042.868     -362829.505 7   -255200.500 8
  24933134.829    11475885.117 5   9002412.895 5
  21961994.852   -15269729.509 7 -11590324.109 7
  23014263.868   -12293406.940 7  -9522833.716 7
  25381311.329    -3433018.968 4  -1276878.156 2
 94  2 17 20 21  0.0050000  0  8 14 27 28 29 22 18 19 31
  24755380.212    20115481.649 5  15695034.673 5
  25003493.556    -6340631.986 6  -4863629.523 6
  25328603.040    -3587975.413 5  -2757512.045 4
  22338203.142     -319945.030 7   -221784.040 8
  24954561.751    11588493.171 5   9090159.368 5
  21959408.946   -15283316.577 7 -11600911.421 8
  23009816.134   -12316777.538 7  -9541044.537 7
  25369068.876    -3497320.904 5  -1326983.430 2
 94  2 17 20 21 30.0050000  0  8 14 27 28 29 22 18 19 31
  24779271.774    20241040.448 5  15792872.598 5
  24992915.696    -6396229.619 6  -4906952.301 6
  25323340.493    -3615601.714 5  -2779039.044 4
  22346430.931     -276721.885 7   -188103.680 8
  24976039.071    11701344.789 5   9178095.627 5
  21956896.110   -15296528.561 7 -11611206.457 8
  23005408.595   -12339952.289 7  -9559102.760 7
  25356868.204    -3561490.497 5  -1376985.619 2
 94  2 17 20 22  0.0050000  0  8 14 27 28 29 22 18 19 31
  24803185.970    20366720.789 5  15890805.226 5
  24982358.392    -6451703.366 6  -4950178.558 5
  25318155.868    -3642860.051 5  -2800279.323 4
  22354718.110     -233155.237 7   -154155.661 8
  24997559.040    11814451.848 5   9266230.919 5
  21954454.790   -15309360.894 7 -11621205.661 8
  23001038.142   -12362916.768 7  -9576997.140 7
  25344680.149    -3625502.269 5  -1426864.856 4
 94  2 17 20 22 30.0050000  0  8 14 27 28 29 22 18 19 31
  24827120.907    20492536.037 5  15988842.988 5
  24971825.009    -6507064.031 6  -4993316.699 5
  25313042.540    -3669736.887 5  -2821222.315 3
  22363080.126     -189220.275 7   -119920.644 8
  25019126.837    11927817.618 5   9354567.815 5
  21952084.392   -15321818.642 7 -11630912.971 8
  22996708.345   -12385670.892 7  -9594727.597 7
  25332530.813    -3689367.874 5  -1476630.198 3
 94  2 17 20 23  0.0050000  0  8 14 27 28 29 22 18 19 31
  24851090.212    20618484.938 5  16086984.880 5
  24961305.368    -6562321.950 6  -5036374.776 5
  25307996.829    -3696214.941 5  -2841854.571 3
  22371509.415     -144923.115 7    -85403.399 8
  25040749.063    12041418.988 5   9443088.271 5
  21949780.946   -15333916.538 7 -11640339.885 7
  22992419.892   -12408211.950 7  -9612292.029 7
  25320398.329    -3753116.325 5  -1526304.279 3
 94  2 17 20 23 30.0050000  0  8 14 27 28 29 22 18 19 31
  24875093.884    20744571.117 5  16185233.751 5
  24950812.431    -6617491.442 6  -5079363.954 6
  25303045.345    -3722259.961 5  -2862149.406 3
  22380008.017     -100261.521 7    -50602.179 8
  25062412.923    12155241.432 5   9531780.998 5
  21947546.009   -15345669.909 7 -11649498.345 8
  22988171.954   -12430529.645 7  -9629682.404 7
  25308295.298    -3816745.625 5  -1575885.519 3
 94  2 17 20 24  0.0050000  0  8 14 27 28 29 22 18 19 31
  24899110.501    20870800.844 5  16283594.449 3
  24940332.102    -6672573.686 6  -5122285.168 5
  25298175.017    -3747877.008 5  -2882110.755 1
  22388575.345      -55232.887 7    -15514.954 6
  25084105.853    12269271.803 5   9620635.740 3
  21945370.040   -15357095.809 7 -11658401.631 6
  22983964.470   -12452632.846 7  -9646905.658 6
  25296202.485    -3880280.888 5  -1625393.491 1
 94  2 17 20 24 30.0050000  0  8 14 27 28 29 22 18 19 31
  24923157.548    20997171.322 5
  24929864.017    -6727551.908 6
  25293380.392    -3773071.873 5
  22397219.001       -9826.305 7
  25105848.259    12383502.642 5
  21943262.126   -15368179.779 7
  22979798.188   -12474526.289 7
  25284128.509    -3943726.502 5
 94  2 17 20 25  0.0050000  0  8 14 27 28 29 22 18 19 31
  24947234.759    21123683.176 5        -0.10015
  24919421.868    -6782424.966 6        -0.49015
  25288656.657    -3797867.310 5        -0.24114
  22405932.267       35958.732 7        -0.09018
  25127621.485    12497919.078 5        -0.19615
  21941218.806   -15378912.809 7        -0.37618
  22975673.298   -12496209.669 7        -0.07817
  25272075.712    -4007054.682 5        -0.28214
 94  2 17 20 25 30.0050000  0  8 14 27 28 29 22 18 19 31
  24971332.142    21250332.754 5     98687.759 5
  24909005.446    -6837182.035 6    -42668.300 5
  25284013.485    -3822281.915 5    -19024.595 4
  22414718.290       82138.335 7     35983.999 8
  25149431.188    12612529.266 5     89306.365 4
  21939244.634   -15389281.334 7     -8079.735 8
  22971586.892   -12517687.029 7    -16735.658 7
  25260051.313    -4070240.920 5    -49236.325 4
 94  2 17 20 26  0.0050000  0  8 14 27 28 29 22 18 19 31
  24995455.352    21377101.878 5    197468.782 5
  24898606.970    -6891812.748 6    -85237.641 6
  25279430.259    -3846334.965 5    -37767.211 5
  22423584.227      128728.296 7     72287.843 8
  25171269.860    12727331.977 5    178762.920 5
  21937345.353   -15399273.906 7    -15866.141 8
  22967537.181   -12538954.454 7    -33307.652 7
  25248060.212    -4133266.318 5    -98347.017 3
 94  2 17 20 26 30.0050000  0  8 14 27 28 29 22 18 19 31
  25019598.923    21503969.608 5    296326.632 5
  24888236.095    -6946319.326 6   -127710.259 5
  25274927.642    -3870024.462 5    -56226.537 5
  22432527.063      175726.670 7    108909.933 8
  25193165.165    12842324.287 5    268367.222 4
  21935516.267   -15408882.499 7    -23353.345 8
  22963533.478   -12560008.273 7    -49713.205 7
  25236098.352    -4196114.973 5   -147320.013 4
 94  2 17 20 27  0.0050000  0  8 14 27 28 29 22 18 19 31
  25043754.376    21630926.706 5    395254.130 5
  24877887.610    -7000695.870 6   -170081.537 6
  25270491.704    -3893334.983 5    -74390.545 5
  22441545.587      223114.989 7    145835.874 8
  25215083.212    12957497.663 5    358112.626 4
  21933758.360   -15418121.004 7    -30552.171 8
  22959567.118   -12580838.842 7    -65944.800 7
  25224181.728    -4258780.412 5   -196150.197 3
 94  2 17 20 27 30.0050000  0  8 14 27 28 29 22 18 19 31
  25067927.446    21757938.346 5    494224.119 5
  24867566.813    -7054934.252 6   -212345.148 5
  25266133.665    -3916250.513 5    -92246.769 5
  22450633.556      270883.055 7    183057.713 8
  25237025.446    13072851.967 5    447999.020 4
  21932067.407   -15426997.728 7    -37469.089 8
  22955650.993   -12601440.129 7    -81997.724 7
  25212278.813    -4321272.957 5   -244845.654 2
 94  2 17 20 28  0.0050000  0  8 14 27 28 29 22 18 19 31
  25092109.063    21884998.454 5    593231.867 5
  24857271.829    -7109030.988 6   -254498.393 6
  25261851.681    -3938761.673 5   -109787.890 5
  22459795.478      319016.956 7    220564.630 8
  25259013.751    13188399.958 5    538036.328 4
  21930448.806   -15435517.557 7    -44107.923 8
  22951771.454   -12621811.384 7    -97871.410 7
  25200430.493    -4383579.598 5   -293396.205 4
 94  2 17 20 28 30.0050000  0  8 14 27 28 29 22 18 19 31
  25116295.431    22012127.492 5    692293.330 5
  24847004.673    -7162984.754 6   -296540.232 6
  25257632.056    -3960852.475 5   -127001.439 5
  22469015.931      367492.701 7    258337.927 8
  25281045.735    13304156.666 5    628236.265 4
  21928895.626   -15443672.333 7    -50462.289 8
  22947938.860   -12641960.406 7   -113571.927 7
  25188603.290    -4445702.907 5   -341803.887 3
 94  2 17 20 29  0.0050000  0  8 14 27 28 29 22 18 19 31
  25140508.212    22139338.459 5    791418.629 4
  24836758.056    -7216807.563 6   -338480.037 6
  25253510.845    -3982508.709 5   -143876.355 5
  22478313.056      416313.271 7    296379.915 8
  25303114.556    13420129.066 5    718604.273 5
  21927411.540   -15451463.191 7    -56533.090 8
  22944142.923   -12661890.295 7   -129101.688 8
  25176821.274    -4507637.293 5   -390064.318 2
 94  2 17 20 29 30.0050000  0  8 14 27 28 29 22 18 19 31
  25164732.907    22266643.768 5    890617.441 5
  24826544.087    -7270517.890 6   -380332.184 6
  25249478.860    -4003735.308 5   -160416.503 4
  22487672.321      465502.447 7    334709.126 8
  25325221.032    13536330.179 5    809150.517 4
  21926001.017   -15458876.832 7    -62309.959 8
  22940390.704   -12681616.511 7   -144472.748 7
  25165068.321    -4569378.735 5   -438174.387 2
 94  2 17 20 30  0.0050000  0  8 14 27 28 29 22 18 19 31
  25188973.071    22394074.063 5    989913.635 4
  24816343.017    -7324130.637 6   -422108.299 6
  25245518.876    -4024546.670 4   -176633.071 4
  22497100.704      515056.829 7    373322.914 8
  25347377.540    13652740.088 5    899859.461 4
  21924666.415   -15465906.110 7    -67787.323 8
  22936670.423   -12701161.693 7   -159702.738 8
  25153356.899    -4630930.963 5   -486136.978 2
 94  2 17 20 30 30.0050000  0  8 14 27 28 29 22 18 19 31
  25213253.923    22521639.215 5   1089314.910 4
  24806156.212    -7377655.384 6   -463815.856 6
  25241640.454    -4044943.804 5   -192526.868 4
  22506601.907      564992.441 7    412233.767 8
  25369558.634    13769320.742 5    990701.450 4
  21923401.688   -15472552.413 7    -72966.264 8
  22932986.806   -12720528.051 7   -174793.387 7
  25141684.477    -4692316.022 5   -533969.320 2
 94  2 17 20 31  0.0050000  0  8 14 27 28 29 22 18 19 31
  25237555.517    22649324.831 5   1188810.043 4
  24795985.876    -7431094.576 6   -505456.734 6
  25237832.579    -4064932.726 5   -208102.584 4
  22516181.634      615328.381 7    451456.557 8
  25391773.360    13886038.432 5   1081650.220 5
  21922207.501   -15478827.162 7    -77855.675 8
  22929335.399   -12739712.737 7   -189742.474 8
  25130025.001    -4753535.631 5   -581672.678 2
 94  2 17 20 31 30.0050000  0  8 14 27 28 29 22 18 19 31
  25261878.743    22777133.708 5   1288401.239 4
  24785835.134    -7484429.703 6   -547016.531 6
  25234106.657    -4084517.831 5   -223363.654 4
  22525834.696      666065.500 7    490991.955 8
  25414009.563    14002878.536 5   1172694.373 4
  21921086.142   -15484719.655 8    -82447.225 8
  22925719.188   -12758714.752 7   -204549.216 8
  25118407.571    -4814589.115 5   -629246.611 3
 94  2 17 20 32  0.0050000  0  8 14 27 28 29 22 18 19 31
  25286217.587    22905061.796 5   1388085.321 4
  24775706.821    -7537647.755 6   -588485.091 6
  25230452.946    -4103682.393 5   -238296.998 4
  22535564.446      717196.926 7    530834.613 8
  25436263.501    14119836.828 5   1263830.637 4
  21920037.251   -15490223.549 8    -86735.970 8
  22922142.720   -12777516.025 7   -219199.540 8
  25106821.290    -4875471.981 5   -676687.590 3
 94  2 17 20 32 30.0050000  0  8 14 27 28 29 22 18 19 31
  25310577.993    23033077.747 5   1487837.858 3
  24765604.165    -7590747.243 6   -629861.259 6
  25226903.313    -4122401.476 5   -252883.244 5
  22545369.915      768724.653 7    570986.072 8
  25458545.024    14236931.886 5   1355073.482 4
  21919065.048   -15495340.298 8    -90723.039 8
  22918608.321   -12796091.639 7   -233674.022 8
  25095264.626    -4936176.141 5   -723989.321 3
 94  2 17 20 33  0.0050000  0  8 14 27 28 29 22 18 19 31
  25334954.384    23161163.150 5   1587644.521 3
  24755523.923    -7643721.480 6   -671139.857 6
  25223420.759    -4140678.232 5
  22555245.227      820624.461 7    611427.459 8
  25480851.368    14354183.913 5   1446438.651 4
  21918166.571   -15500054.622 7    -94396.540 8
  22915116.134   -12814446.038 7   -247976.131 8
  25083756.798    -4996684.037 5   -771138.101 3
 94  2 17 20 33 30.0050000  0  8 14 27 28 29 22 18 19 31
  25359335.915    23289311.507 5   1687500.225 3
  24745468.852    -7696569.540 6   -712320.112 6
  25220024.196    -4158517.033 5        -0.19113
  22565190.470      872882.091 7    652147.673 8
  25503209.142    14471616.803 5   1537944.750 4
  21917350.040   -15504355.933 8    -97748.201 8
  22911662.157   -12832588.928 7   -262113.436 8
  25072279.243    -5056995.265 5   -818133.646 3
 94  2 17 20 34  0.0050000  0  8 14 27 28 29 22 18 19 31
  25383735.212    23417510.312 5   1787395.243 4
  24735433.767    -7749294.251 6   -753404.242 6
  25216705.563    -4175923.512 5    -13563.661 4
  22575202.892      925497.840 7    693146.943 8
  25525592.298    14589247.741 5   1629605.176 4
  21916606.071   -15508257.379 8   -100788.281 8
  22908251.009   -12850518.579 7   -276084.577 8
  25060837.798    -5117110.106 5   -864976.193 4
 94  2 17 20 34 30.0050000  0  8 14 27 28 29 22 18 19 31
  25408131.017    23545757.428 5   1887327.909 4
  24725420.884    -7801895.460 6   -794392.140 6
  25213482.235    -4192911.616 5    -26801.150 4
  22585284.235      978466.195 7    734420.965 8
  25548011.657    14707064.139 5   1721410.102 4
  21915936.868   -15511768.157 8   -103523.940 8
  22904875.306   -12868250.745 7   -289901.829 7
  25049437.532    -5177031.278 5   -911667.846 4
 94  2 17 20 35  0.0050000  0  8 14 27 28 29 22 18 19 31
  25432556.548    23674065.932 5   1987308.407 4
  24715439.743    -7854369.708 6   -835281.100 6
  25210326.938    -4209494.911 5    -39723.193 5
  22595427.634     1031794.069 7    775975.131 8
  25570465.720    14825057.057 5   1813352.586 3
  21915343.626   -15514891.939 8   -105958.048 8
  22901532.024   -12885813.562 7   -303587.121 7
  25038061.392    -5236761.516 5   -958210.724 4
 94  2 17 20 35 30.0050000  0  8 14 27 28 29 22 18 19 31
  25456982.298    23802445.144 5   2087343.985 4
  24705476.134    -7906718.800 6   -876072.518 6
  25207249.892    -4225649.858 5    -52311.468 4
  22605653.056     1085511.955 7    817833.208 8
  25592945.829    14943221.051 5   1905428.372 4
  21914820.540   -15517640.020 8   -108099.402 8
  22898227.024   -12903197.154 7   -317132.758 8
  25026742.868    -5296296.637 5  -1004601.577 4
 94  2 17 20 36  0.0050000  0  8 14 27 28 29 22 18 19 31
  25481432.157    23930887.417 5   2187428.715 4
  24695538.735    -7958939.800 6   -916764.140 6
  25204257.235    -4241360.311 5    -64553.394 5
  22615952.540     1139629.864 7    860002.994 8
  25615462.985    15061534.962 5   1997620.994 3
  21914367.837   -15520026.956 8   -109959.344 8
  22894952.931   -12920395.709 7   -330534.200 7
  25015454.759    -5355624.780 5  -1050831.178 5
 94  2 17 20 36 30.0050000  0  8 14 27 28 29 22 18 19 31
  25505873.548    24059379.933 5   2287552.571 4
  24685625.938    -8011035.734 6   -957358.307 6
  25201365.837    -4256612.681 5    -76438.379 5
  22626327.845     1194150.405 7    902486.511 8
  25637999.892    15179971.042 5   2089908.812 3
  21913983.931   -15522032.064 8   -111521.750 8
  22891714.954   -12937403.557 7   -343787.043 7
  25004209.048    -5414719.789 5  -1096879.124 4
 94  2 17 20 37  0.0050000  0  8 14 27 28 29 22 18 19 31
  25530336.415    24187911.515 5   2387706.873 4
  24675735.938    -8063012.114 6   -997859.318 6
  25198545.454    -4271396.549 5    -87958.290 5
  22636778.751     1249084.564 7    945292.329 7
  25660556.196    15298538.491 5   2182298.974 3
  21913679.813   -15523646.170 8   -112779.479 8
  22888516.118   -12954205.971 7   -356879.801 7
  24993006.735    -5473557.241 5  -1142726.410 5
 94  2 17 20 37 30.0050000  0  8 14 27 28 29 22 18 19 31
  25554798.985    24316458.935 5   2487873.521 3
  24665870.040    -8114874.516 6  -1038271.506 6
  25195819.540    -4285714.495 5    -99115.161 5
  22647309.681     1304418.486 7    988409.651 8
  25683136.712    15417234.541 4   2274789.355 3
  21913446.438   -15524862.912 8   -113727.582 8
  22885364.907   -12970772.784 7   -369788.970 7
  24981867.509    -5532125.083 5  -1188363.632 4
 94  2 17 20 38  0.0050000  0  8 14 27 28 29 22 18 19 31
  25579259.931    24445009.101 5   2588042.323 2
  24656015.938    -8166631.207 6  -1078601.322 6
  25193177.032    -4299584.181 5   -109922.710 5
  22657910.673     1360127.976 7   1031819.636 7
  25705764.946    15536058.378 5   2367379.301 4
  21913291.157   -15525667.684 8   -114354.647 8
  22882257.884   -12987099.006 7   -382510.648 7
  24970773.079    -5590422.744 5  -1233790.313 4
 94  2 17 20 38 30.0050000  0  8 14 27 28 29 22 18 19 31
  25603724.587    24573567.604 5   2688217.587 4
  24646183.743    -8218297.136 6  -1118860.452 6
  25190622.220    -4313022.676 5   -120394.319 5
  22668582.985     1416210.520 7   1075520.287 8
  25728399.032    15655019.726 4   2460076.369 3
  21913220.337   -15526051.388 8   -114653.654 8
  22879195.782   -13003186.860 7   -395046.612 7
  24959723.376    -5648471.482 5  -1279023.109 4
 94  2 17 20 39  0.0050000  0  8 14 27 28 29 22 18 19 31
  25628191.087    24702156.964 5   2788416.919 3
  24636372.845    -8269862.769 6  -1159041.411 6
  25188142.392    -4326033.228 5   -130532.429 5
  22679328.063     1472670.871 7   1119515.341 8
  25751073.321    15774143.019 5   2552899.673 2
  21913226.579   -15526025.621 7   -114633.568 8
  22876181.727   -13019041.792 7   -407401.066 7
  24948724.571    -5706297.839 5  -1324082.596 5
 94  2 17 20 39 30.0050000  0  8 14 27 28 29 22 18 19 31
  25652672.134    24830798.406 5   2888656.812 2
  24626583.110    -8321308.730 6  -1199129.129 6
  25185755.298    -4338614.320 5   -140335.893 5
  22690140.704     1529499.268 7   1163797.182 8
  25773772.876    15893424.742 5   2645846.427 3
  21913310.907   -15525582.739 8   -114288.454 8
  22873206.798   -13034669.676 7   -419578.599 7
  24937754.376    -5763925.267 5  -1368987.105 4
 94  2 17 20 40  0.0050000  0  8 14 27 28 29 22 18 19 31
  25677180.298    24959509.677 5   2988951.134 3
  24616815.352    -8372622.378 6  -1239113.737 6
  25183439.556    -4350762.769 5   -149802.235 5
  22701025.860     1586708.890 7   1208376.090 8
  25796490.204    16012852.154 5   2738906.686 2
  21913471.290   -15524723.290 8   -113618.745 8
  22870269.985   -13050106.453 7   -431607.223 7
  24926827.923    -5821362.935 5  -1413743.763 4
 94  2 17 20 40 30.0050000  0  8 14 27 28 29 22 18 19 31
  25701677.446    25088292.977 4   3089301.562 4
  24607075.126    -8423800.188 6  -1278992.502 6
  25181220.259    -4362479.393 5   -158932.088 5
  22711990.032     1644308.375 7   1253258.784 7
  25819246.259    16132415.472 5   2832072.864 4
  21913715.173   -15523458.463 8   -112633.161 8
  22867364.892   -13065368.969 7   -443500.057 7
  24915931.876    -5878606.726 5  -1458349.363 3
 94  2 17 20 41  0.0050000  0  8 14 27 28 29 22 18 19 31
  25726199.196    25217157.643 5   3189715.392 2
  24597367.188    -8474827.217 6  -1318753.799 6
  25179061.673    -4373736.303 5   -167703.730 5
  22723022.673     1702295.957 7   1298443.891 7
  25842021.712    16252116.286 4   2925346.156 2
  21914033.173   -15521777.522 8   -111323.336 8
  22864495.485   -13080438.523 7   -455242.535 7
  24905077.337    -5935610.820 5  -1502768.183 5
 94  2 17 20 41 30.0050000  0  8 14 27 28 29 22 18 19 31
  25750737.063    25346089.717 5   3290181.758 3
  24587683.235    -8525718.199 6  -1358409.078 6
  25177020.751    -4384521.456 5   -176107.751 5
  22734132.845     1760676.292 7   1343935.039 7
  25864822.860    16371938.640 5   3018714.170 4
  21914434.790   -15519669.105 8   -109680.406 8
  22861667.399   -13095308.281 7   -466829.328 7
  24894286.642    -5992342.647 5  -1546974.848 4
 94  2 17 20 42  0.0050000  0  8 14 27 28 29 22 18 19 31
  25775278.837    25475065.089 5   3390681.853 3
  24578019.524    -8576504.128 6  -1397982.488 6
  25175061.712    -4394823.912 5   -184135.644 5
  22745323.032     1819472.016 7   1389749.866 7
  25887649.118    16491878.514 5   3112173.781 3
  21914916.767   -15517142.177 7   -107711.360 8
  22858877.157   -13109967.951 7   -478252.436 7
  24883549.423    -6048775.419 5  -1590948.492 3
 94  2 17 20 42 30.0050000  0  8 14 27 28 29 22 18 19 31
  25799824.251    25604066.717 4   3491202.407 3
  24568372.181    -8627203.650 6  -1437488.588 6
  25173189.251    -4404638.659 5   -191783.511 5
  22756585.813     1878669.571 7   1435877.797 7
  25910498.470    16611940.929 5   3205728.868 3
  21915473.962   -15514210.071 7   -105426.592 8
  22856133.407   -13124399.950 7   -489498.134 7
  24872868.181    -6104905.067 5  -1634685.934 5
 94  2 17 20 43  0.0050000  0  8 14 27 28 29 22 18 19 31
  25824375.727    25733074.170 5   3591727.502 2
  24558740.157    -8677814.639 6  -1476925.683 6
  25171410.142    -4413968.978 5   -199053.884 5
  22767926.665     1938262.156 7   1482313.558 7
  25933362.907    16732112.334 5   3299368.860 3
  21916107.352   -15510874.082 8   -102827.115 8
  22853425.321   -13138612.835 7   -500573.094 7
  24862246.251    -6160739.609 5  -1678193.422 3
 94  2 17 20 43 30.0050000  0  8 14 27 28 29 22 18 19 31
  25848917.524    25862071.095 5   3692244.407 2
  24549132.009    -8728323.972 6  -1516283.569 6
  25169731.102    -4422817.254 5   -205948.651 5
  22779347.517     1998266.990 7   1529070.546 7
  25956249.048    16852388.381 5   3393090.407 4
  21916821.876   -15507125.549 7    -99906.169 8
  22850760.001   -13152629.524 7   -511495.185 7
  24851671.681    -6216296.253 5  -1721484.357 4
 94  2 17 20 44  0.0050000  0  8 14 27 28 29 22 18 19 31
  25873464.267    25991055.148 5   3792751.274 3
  24539543.134    -8778707.765 6  -1555543.625 6
  25168143.892    -4431185.984 5   -212469.722 5
  22790838.704     2058667.414 7   1576135.800 7
  25979159.681    16972770.578 4   3486894.683 3
  21917612.720   -15502972.529 7    -96670.031 8
  22848125.345   -13166461.224 7   -522273.117 7
  24841152.087    -6271585.459 5  -1764566.864 4
 94  2 17 20 44 30.0050000  0  8 14 27 28 29 22 18 19 31
  25898013.134    26120033.112 5   3893253.364 2
  24529984.438    -8828939.695 6  -1594685.372 6
  25166637.446    -4439089.954 5   -218628.654 5
  22802404.813     2119438.373 7   1623489.759 8
  26002076.423    17093249.614 4   3580774.392 4
  21918480.876   -15498400.466 7    -93107.385 8
  22845526.056   -13180126.258 7   -532921.200 7
  24830675.884    -6326606.076 5  -1807440.082 4
 94  2 17 20 45  0.0050000  0  8 14 27 28 29 22 18 19 31
  25922556.329    26249013.072 4   3993757.027 2
  24520453.462    -8879011.891 6  -1633702.652 6
  25165225.477    -4446516.955 5   -224415.899 5
  22814039.423     2180587.557 7   1671138.447 8
  26025022.681    17213807.489 4   3674715.548 3
  21919433.313   -15493392.569 7    -89205.126 7
  22842955.173   -13193628.043 7   -543442.068 7
  24820262.962    -6381353.375 5  -1850100.317 4
 94  2 17 20 45 30.0050000  0  8 14 27 28 29 22 18 19 31
  25947096.993    26378010.160 4   4094274.028 2
  24510952.642    -8928940.181 6  -1672607.769 6
  25163902.806    -4453457.010 5   -229823.707 5
  22825751.048     2242118.662 7   1719084.737 7
  26047981.720    17334454.207 4   3768725.935 3
  21920469.423   -15487952.449 7    -84966.064 7
  22840420.688   -13206954.907 7   -553826.627 7
  24809897.228    -6435827.209 5  -1892547.429 4
 94  2 17 20 46  0.0050000  0  8 14 27 28 29 22 18 19 31
  25971657.517    26507025.616 5   4194805.347 3
  24501480.001    -8978739.930 6  -1711412.731 6
  25162666.954    -4459921.137 5   -234860.657 5
  22837525.524     2304013.452 7   1767314.416 8
  26070969.563    17455190.534 5   3862806.150 2
  21921585.243   -15482086.832 7    -80395.442 8
  22837923.931   -13220088.890 7   -564060.885 7
  24799580.290    -6490024.676 5  -1934779.215 4
 94  2 17 20 46 30.0050000  0  8 14 27 28 29 22 18 19 31
  25996213.431    26636061.256 5   4295352.399 3
  24492020.431    -9028434.102 6  -1750135.433 6
  25161525.610    -4465911.318 5   -239528.321 5
  22849377.321     2366277.987 7   1815832.217 8
  26093951.415    17576015.608 4   3956955.499 2
  21922781.829   -15475794.853 7    -75492.589 7
  22835461.524   -13233021.411 7   -574138.163 7
  24789316.657    -6543947.977 5  -1976797.344 4
 94  2 17 20 47  0.0050000  0  8 14 27 28 29 22 18 19 31
  26020766.688    26765102.168 5   4395903.540 2
  24482582.978    -9078036.569 6  -1788786.669 6
  25160481.813    -4471427.205 5   -243826.389 5
  22861296.501     2428917.446 7   1864642.162 8
  26116963.571    17696949.688 4   4051189.786 2
  21924057.524   -15469097.565 7    -70273.915 7
  22833041.095   -13245747.020 7   -584054.208 7
  24779114.196    -6597608.938 5  -2018611.033 5
 94  2 17 20 47 30.0050000  0  8 14 27 28 29 22 18 19 31
  26045323.399    26894134.190 5   4496447.743 2
  24473161.204    -9127546.627 6  -1827365.900 6
  25159520.267    -4476486.504 5   -247768.671 5
  22873285.438     2491922.855 7   1913737.267 8
  26140004.790    17818013.630 4   4145525.281 2
  21925408.571   -15461999.185 7    -64742.698 7
  22830657.376   -13258266.761 7   -593809.833 7
  24768947.829    -6651003.300 5  -2060216.977 4
 94  2 17 20 48  0.0050000  0  8 14 27 28 29 22 18 19 31
  26069880.243    27023153.555 5   4596982.092 3
  24463760.845    -9176949.315 6  -1865861.460 6
  25158645.407    -4481085.619 5   -251352.379 5
  22885344.884     2555294.402 7   1963117.675 8
  26163062.884    17939207.581 5   4239962.058 2
  21926838.274   -15454485.196 7    -58887.629 7
  22828313.571   -13270584.528 7   -603408.069 7
  24758847.392    -6704113.627 5  -2101601.608 5
 94  2 17 20 48 30.0050000  0  8 14 27 28 29 22 18 19 31
  26094421.399    27152159.158 4   4697505.715 2
  24454377.923    -9226235.644 6  -1904266.350 6
  25157855.423    -4485203.689 5   -254561.268 5
  22897478.196     2619056.816 7   2012802.651 8
  26186153.501    18060523.587 4   4334493.970 1
  21928350.884   -15446544.913 7    -52700.387 7
  22826006.899   -13282707.187 7   -612854.270 7
  24748793.352    -6756924.847 5  -2142753.161 5
 94  2 17 20 49  0.0050000  0  8 14 27 28 29 22 18 19 31
  26118970.837    27281153.028 4   4798020.190 2
  24445028.431    -9275389.280 6  -1942567.840 6
  25157163.876    -4488830.275 5   -257387.175 5
  22909689.860     2683219.265 7   2062799.344 7
  26209254.532    18181950.888 4   4429112.599 2
  21929943.142   -15438167.343 7    -46172.391 7
  22823736.251   -13294632.868 7   -622146.992 7
  24738801.798    -6809429.737 5  -2183666.024 5
 94  2 17 20 49 30.0050000  0  8 14 27 28 29 22 18 19 31
  26143516.938    27410143.405 4   4898531.940 2
  24435695.892    -9324409.799 6  -1980765.597 6
  25156582.298    -4491947.971 5   -259816.551 5
  22921975.259     2747795.466 7   2113118.443 7
  26232378.556    18303456.603 4   4523792.306 2
  21931626.634   -15429330.308 7    -39286.383 7
  22821504.767   -13306353.305 7   -631279.779 7
  24728868.220    -6861619.556 5  -2224333.369 5
 94  2 17 20 50  0.0050000  0  8 14 27 28 29 22 18 19 31
  26168064.071    27539135.039 4   4999044.698 2
  24426394.009    -9373293.471 6  -2018856.718 6
  25156081.774    -4494539.022 5   -261835.527 5
  22934345.626     2812797.851 7   2163769.636 8
  26255511.188    18425013.738 4   4618512.107 2
  21933395.423   -15420032.017 7    -32040.946 7
  22819315.563   -13317865.140 7   -640250.011 7
  24718998.134    -6913494.406 5  -2264755.286 5
 94  2 17 20 50 30.0050000  0  8 14 27 28 29 22 18 19 31
  26192604.821    27668125.094 4   5099556.190 1
  24417119.431    -9422045.171 6  -2056845.013 6
  25155695.923    -4496609.251 5   -263448.685 5
  22946794.977     2878215.342 7   2214744.286 8
  26278651.126    18546605.298 4   4713258.704 1
  21935249.681   -15410279.966 7    -24441.933 7
  22817161.665   -13329167.477 7   -649057.009 7
  24709185.056    -6965061.201 5  -2304937.169 5
 94  2 17 20 51  0.0050000  0  8 14 27 28 29 22 18 19 31
  26217158.993    27797104.397 4   5200059.327 1
  24407865.587    -9470671.739 6  -2094735.791 6
  25155387.227    -4498165.832 5   -264661.565 5
  22959318.626     2944024.800 7   2266024.370 7
  26301799.813    18668240.426 3   4808039.258 2
  21937191.923   -15400075.816 7    -16490.634 7
  22815058.618   -13340251.371 7   -657693.793 7
  24699430.446    -7016313.206 5  -2344873.754 5
 94  2 17 20 51 30.0050000  0  8 14 27 28 29 22 18 19 31
  26241683.368    27926051.523 3   5300537.387 3
  24398635.142    -9519184.807 6  -2132538.140 6
  25155193.501    -4499209.322 5   -265474.631 5
  22971913.173     3010215.030 7   2317601.148 7
  26324953.485    18789934.012 3   4902865.382 2
  21939218.181   -15389424.497 7     -8190.892 7
  22812985.759   -13351128.325 7   -666169.330 7
  24689745.985    -7067231.163 5  -2384550.039 5
 94  2 17 20 52  0.0050000  0  8 14 27 28 29 22 18 19 31
  26266217.376    28054951.826 3   5400978.980 2
  24389417.977    -9567590.272 6  -2170256.636 6
  25155089.204    -4499761.639 5   -265904.937 5
  22984576.618     3076757.900 7   2369452.718 7
  26348129.595    18911694.725 3   4997743.801 2
  21941326.915   -15378342.003 7       444.822 7
  22810952.337   -13361819.465 7   -674500.074 7
  24680112.665    -7117811.363 5  -2423963.132 5
 94  2 17 20 52 30.0050000  0  8 14 27 28 29 22 18 19 31
  26290733.915    28183802.572 4   5501381.962 1
  24380220.821    -9615895.413 6  -2207896.967 6
  25155077.446    -4499826.738 5   -265955.576 5
  22997306.767     3143654.156 7   2421579.644 7
  26371323.009    19033554.676 3   5092699.565 1
  21943524.259   -15366820.488 7      9422.640 7
  22808953.040   -13372318.255 7   -682680.947 7
  24670565.352    -7168034.929 5  -2463098.326 5
 94  2 17 20 53  0.0060000  0  8 14 27 28 29 22 18 19 31
  26315243.154    28312593.320 3   5601738.182 1
  24371055.732    -9664104.269 6  -2245462.272 6
  25155161.365    -4499405.518 5   -265627.306 5
  23010106.646     3210923.598 7   2473997.374 7
  26394527.217    19155520.131 3   5187737.538 1
  21945794.131   -15354869.885 7     18734.811 7
  22806993.685   -13382635.445 7   -690720.319 7
  24661074.623    -7217902.860 5  -2501956.393 5
 94  2 17 20 53 30.0060000  0  8 14 27 28 29 22 18 19 31
  26339742.537    28441337.487 4   5702058.169 1
  24361905.287    -9712196.096 6  -2282936.353 6
  25155327.873    -4498497.117 5   -264919.365 5
  23022980.920     3278581.451 7   2526717.765 7
  26417748.139    19277573.988 3   5282844.383 2
  21948151.279   -15342489.807 7     28381.644 7
  22805060.373   -13392780.905 7   -698625.862 7
  24651646.451    -7267418.317 5  -2540539.812 5
 94  2 17 20 54  0.0060000  0  8 14 27 28 29 22 18 19 31
  26364235.568    28570066.019 3   5802365.944 2
  24352778.545    -9760152.344 6  -2320304.808 6
  25155591.100    -4497099.879 5   -263830.495 5
  23035936.889     3346652.448 7   2579760.082 7
  26441000.506    19399720.986 3   5378023.804 2
  21950591.896   -15329662.624 7     38376.858 7
  22803167.107   -13402731.117 7   -706379.275 7
  24642293.029    -7316588.202 5  -2578853.940 5
 94  2 17 20 54 30.0060000  0  8 14 27 28 29 22 18 19 31
  26388744.756    28698769.047 3   5902653.850 1
  24343681.225    -9807966.243 6  -2357562.332 6
  25155962.826    -4495199.204 5   -262349.337 5
  23048968.795     3415143.595 7   2633129.800 7
  26464255.357    19521954.321 3   5473270.515 1
  21953119.303   -15316382.723 7     48724.857 7
  22801309.967   -13412474.470 7   -713971.484 7
  24632998.373    -7365430.937 5  -2616913.137 5
 94  2 17 20 55  0.0060000  0  8 14 27 28 29 22 18 19 31
  26413217.271    28827443.398 3   6002919.407 2
  24334608.779    -9855628.285 6  -2394701.572 6
  25156418.615    -4492795.598 5   -260476.329 5
  23062077.006     3484038.587 7   2686814.161 7
  26487516.365    19644249.039 3   5568565.004 2
  21955732.810   -15302651.833 7     59424.223 8
  22799495.951   -13422020.968 7   -721410.343 8
  24623761.295    -7413963.551 5  -2654730.718 5
 94  2 17 20 55 30.0060000  0  8 14 27 28 29 22 18 19 31
  26437695.873    28956081.548 3   6103156.818 1
  24325569.381    -9903149.200 6  -2431730.813 6
  25156970.029    -4489897.112 5   -258217.689 5
  23075262.326     3553310.443 7   2740792.216 7
  26510798.482    19766595.397 3   5663899.797 1
  21958431.170   -15288466.362 7     70477.852 7
  22797718.107   -13431366.293 7   -728692.401 8
  24614583.139    -7462202.468 5  -2692319.416 5
 94  2 17 20 56  0.0060000  0  8 14 27 28 29 22 18 19 31
  26462170.842    29084659.420 3   6203347.238 1
  24316550.904    -9950532.233 6  -2468652.639 6
  25157623.631    -4486493.988 5   -255565.847 5
  23088513.092     3622950.726 7   2795057.329 7
  26534097.975    19888989.241 3   5759271.526 1
  21961217.178   -15273818.937 7     81891.417 7
  22795979.201   -13440491.880 7   -735803.269 8
  24605456.553    -7510144.799 5  -2729677.024 5
 94  2 17 20 56 30.0060000  0  8 14 27 28 29 22 18 19 31
  26486626.576    29213176.155 3   6303490.035 2
  24307557.693    -9997788.225 6  -2505475.444 6
  25158366.342    -4482578.845 5   -252515.028 5
  23101835.654     3692958.167 7   2849608.552 7
  26557389.646    20011420.601 3   5854672.531 2
  21964092.357   -15258714.635 7     93660.998 7
  22794286.740   -13449405.112 7   -742748.642 8
  24596391.725    -7557778.951 5  -2766794.477 5
 94  2 17 20 57  0.0060000  0  8 14 27 28 29 22 18 19 31
  26511064.014    29341649.536 3   6403599.112 1
  24298589.842   -10044929.849 6  -2542209.137 6
  25159197.334    -4478162.886 5   -249073.974 5
  23115228.412     3763348.044 7   2904457.774 7
  26580700.092    20133881.099 3   5950096.256 1
  21967051.006   -15243169.738 7    105773.897 7
  22792628.693   -13458112.549 7   -749533.649 8
  24587397.318    -7605075.799 5  -2803649.101 5
 94  2 17 20 57 30.0060000  0  7 27 28 29 22 18 19 31
  24289636.920   -10091963.670 6  -2578858.832 6
  25160129.053    -4473237.297 5   -245235.824 5
  23128699.584     3834134.769 7   2959616.236 7
  26604010.576    20256376.624 3   6045547.246 2
  21970091.467   -15227190.118 7    118225.542 7
  22791008.904   -13466613.167 7   -756157.489 8
  24578461.850    -7652018.414 5  -2840227.712 5
 94  2 17 20 58  0.0060000  0  7 27 28 29 22 18 19 31
  24280708.123   -10138888.971 6  -2615423.957 6
  25161166.170    -4467791.352 5   -240992.214 5
  23142245.842     3905326.895 7   3015090.581 7
  26627317.545    20378914.871 3   6141031.547 1
  21973214.428   -15210773.066 7    131018.042 7
  22789428.310   -13474915.494 7   -762626.816 8
  24569597.092    -7698580.877 6  -2876510.089 5
 94  2 17 20 58 30.0060000  0  7 27 28 29 22 18 19 31
  24271798.717   -10185710.375 6  -2651908.130 6
  25162300.982    -4461823.204 5   -236341.684 5
  23155869.935     3976921.337 7   3070878.424 7
  26650656.232    20501507.342 3   6236558.088 1
  21976420.912   -15193931.600 7    144141.250 7
  22787885.006   -13483037.169 7   -768955.368 8
  24560814.295    -7744752.771 6  -2912488.130 5
 94  2 17 20 59  0.0060000  0  7 27 28 29 22 18 19 31
  24262908.740   -10232412.867 6  -2688299.648 6
  25163545.951    -4455323.672 5   -231277.090 5
  23169565.740     4048897.454 7   3126963.673 7
  26673998.943    20624148.652 3   6332122.707 1
  21979708.740   -15176655.777 7    157602.920 7
  22786372.131   -13490980.333 7   -775144.835 8
  24552099.021    -7790540.041 6  -2948166.473 5
 94  2 17 20 59 30.0060000  0  7 27 28 29 22 18 19 31
  24254047.310   -10278988.285 6  -2724592.143 6
  25164881.670    -4448282.633 5   -225790.541 5
  23183330.756     4121234.995 7   3183330.548 7
  26697341.904    20746832.986 3   6427720.828 1
  21983082.928   -15158922.836 7    171420.789 7
  22784896.420   -13498742.629 7   -781193.347 8
  24543457.857    -7835954.157 6  -2983554.040 5
 94  2 17 21  0  0.0060000  0  6 27 28 29 18 19 31
  24245210.685   -10325431.538 6  -2760781.650 6
  25166327.279    -4440705.927 5   -219886.591 5
  23197167.435     4193921.859 7   3239969.629 7
  21986544.951   -15140723.299 7    185602.232 7
  22783453.389   -13506321.808 7   -787099.179 8
  24534884.967    -7880997.523 6  -3018652.730 5
 94  2 17 21  0 30.0060000  0  6 27 28 29 18 19 31
  24236397.639   -10371729.734 6  -2796858.142 6
  25167868.889    -4432598.025 5   -213568.717 5
  23211061.514     4266958.294 7   3296881.101 7
  21990097.287   -15122048.773 7    200153.801 7
  22782044.646   -13513713.272 7   -792858.741 8
  24526383.123    -7925676.686 6  -3053467.629 5
 94  2 17 21  1  0.0060000  0  6 27 28 29 18 19 31
  24227613.264   -10417894.769 6  -2832830.857 6
  25169517.482    -4423972.900 5   -206847.806 5
  23225029.576     4340348.619 7   3354068.338 7
  21993745.162   -15102889.660 7    215082.965 7
  22780674.600   -13520917.371 7   -798472.306 8
  24517952.967    -7970002.533 6  -3088007.216 5
 94  2 17 21  1 30.0060000  0  6 27 28 29 18 19 31
  24218856.514   -10463933.520 6  -2868705.180 6
  25171249.107    -4414840.438 5   -199731.567 5
  23239066.889     4414111.446 7   3411545.827 7
  21997481.279   -15083249.439 7    230387.023 7
  22779342.029   -13527932.075 7   -803938.278 8
  24509584.365    -8013962.095 6  -3122261.391 5
 94  2 17 21  2  0.0060000  0  7  2 27 28 29 18 19 31
  26638643.100      -40443.433 4
  24210116.998   -10509845.010 6  -2904480.339 6
  25173080.178    -4405212.062 5   -192228.887 5
  23253174.459     4488257.088 7   3469321.616 7
  22001306.982   -15063142.444 7    246054.805 7
  22778039.592   -13534765.123 7   -809262.711 8
  24501294.631    -8057551.976 6  -3156227.520 5
 94  2 17 21  2 30.0060000  0  7  2 27 28 29 18 19 31
  26623274.412     -121251.350 4
  24201401.795   -10555645.997 6  -2940169.382 6
  25175006.623    -4395085.929 5   -184338.345 5
  23267358.318     4562799.054 7   3527406.233 7
  22005223.740   -15042567.157 7    262087.493 7
  22776775.529   -13541421.183 7   -814449.231 8
  24493064.162    -8100763.555 5  -3189898.858 5
 94  2 17 21  3  0.0060000  0  7  2 27 28 29 18 19 31
  26607912.373     -201938.882 4    -31424.21013
  24192707.928   -10601336.438 6  -2975772.296 6
  25177035.115    -4384443.561 5   -176045.552 5
  23281623.209     4637745.836 7   3585806.291 7
  22009227.615   -15021527.522 7    278482.011 7
  22775545.701   -13547888.902 7   -819488.994 8
  24484920.842    -8143574.965 6  -3223258.406 5
 94  2 17 21  3 30.0060000  0  7  2 27 28 29 18 19 31
  26592584.701     -282487.569 4    -94189.270 2
  24184036.350   -10646909.115 6  -3011283.454 6
  25179157.998    -4373284.362 5   -167350.058 5
  23295959.764     4713088.107 7   3644514.526 7
  22013318.842   -15000027.930 7    295234.935 7
  22774348.240   -13554166.353 7   -824380.508 8
  24476850.896    -8185973.474 6  -3256296.206 5
 94  2 17 21  4  0.0060000  0  7  2 27 28 29 18 19 31
  26577284.881     -362898.665 4   -156847.139 2
  24175380.990   -10692378.996 6  -3046714.497 6
  25181375.092    -4361609.393 5   -158252.654 5
  23310370.725     4788816.147 7   3703523.359 7
  22017498.217   -14978062.538 7    312350.828 7
  22773191.600   -13560250.104 7   -829121.082 8
  24468860.545    -8227967.452 6  -3289018.801 5
 94  2 17 21  4 30.0060000  0  7  2 27 28 29 18 19 31
  26562008.225     -443174.122 4   -219399.321 2
  24166747.553   -10737752.932 6  -3082070.786 6
  25183706.256    -4349405.430 5   -148743.029 5
  23324854.303     4864927.782 7   3762831.096 7
  22021768.873   -14955629.329 7    329831.243 7
  22772067.342   -13566139.045 7   -833709.864 8
  24460949.959    -8269555.619 6  -3321425.179 5
 94  2 17 21  5  0.0060000  0  7  2 27 28 29 18 19 31
  26546760.631     -523306.778 4   -281840.233 4
  24158132.662   -10783012.626 6  -3117338.046 6
  25186128.420    -4336665.709 5   -138815.938 5
  23339409.662     4941422.426 7   3822437.282 7
  22026125.482   -14932726.917 7    347677.288 7
  22770988.514   -13571823.645 7   -838139.415 8
  24453108.053    -8310736.792 5  -3353514.418 5
 94  2 17 21  5 30.0060000  0  7  2 27 28 29 18 19 31
  26531539.201     -603310.478 5   -344180.696 3
  24149542.990   -10828160.432 6  -3152518.137 6
  25188648.810    -4323396.766 5   -128476.496 5
  23354039.678     5018300.241 7   3882342.046 7
  22030572.568   -14909356.584 7    365887.934 7
  22769946.232   -13577307.476 7   -842412.535 8
  24445345.912    -8351524.678 6  -3385297.198 5
 94  2 17 21  6  0.0060000  0  7  2 27 28 29 18 19 31
  26516337.607     -683189.888 5   -406424.279 4
  24140973.857   -10873199.312 6  -3187613.333 6
  25191282.318    -4309588.778 5   -117717.020 5
  23368739.209     5095556.727 7   3942541.880 7
  22035109.685   -14885530.028 7    384454.087 7
  22768940.740   -13582596.024 7   -846533.481 8
  24437662.428    -8391922.912 6  -3416776.336 5
 94  2 17 21  6 30.0060000  0  7  2 27 28 29 18 19 31
  26501163.717     -762949.393 5   -468574.415 3
  24132428.162   -10918107.906 6  -3222607.017 6
  25194006.951    -4295236.106 5   -106533.115 5
  23383513.600     5173186.933 7   4003032.934 7
  22039724.725   -14861263.832 7    403362.815 7
  22767968.373   -13587699.160 7   -850509.946 8
  24430051.568    -8431922.546 6  -3447944.861 5
 94  2 17 21  7  0.0060000  0  7  2 27 28 29 18 19 31
  26485998.764     -842589.087 5   -530631.202 3
  24123911.139   -10962874.110 6  -3257489.742 6
  25196841.162    -4280329.832 5    -94917.849 5
  23398356.310     5251187.681 6   4063812.713 7
  22044427.412   -14836551.417 7    422619.247 7
  22767034.295   -13592606.135 7   -854333.568 8
  24422514.334    -8471520.702 6  -3478800.540 5
 94  2 17 21  7 30.0060000  0  7  2 27 28 29 18 19 31
  26470876.084     -922099.730 5   -592587.409 3
  24115417.162   -11007502.298 6  -3292264.933 6
  25199785.725    -4264876.258 5    -82876.102 5
  23413270.600     5329553.974 7   4124877.330 7
  22049214.365   -14811393.787 7    442222.604 7
  22766134.967   -13597318.720 7   -858005.717 8
  24415061.404    -8510713.670 6  -3509340.467 5
 94  2 17 21  8  0.0060000  0  7  2 27 28 29 18 19 31
  26455772.600    -1001466.478 5   -654431.477 4
  24106951.381   -11051985.931 6  -3326927.483 6
  25202833.498    -4248871.239 5    -70404.660 5
  23428252.920     5408295.700 6   4186234.494 7
  22054088.639   -14785773.932 7    462186.133 7
  22765279.795   -13601839.494 7   -861528.401 8
  24407680.256    -8549476.775 6  -3539545.419 5
 94  2 17 21  8 30.0060000  0  7  2 27 28 29 18 19 31
  26440693.318    -1080700.286 5   -716171.942 4
  24098511.943   -11096318.210 6  -3361472.096 6
  25205981.404    -4232320.142 5    -57507.701 5
  23443310.693     5487426.982 6   4247895.210 7
  22059058.357   -14759667.565 7    482528.765 7
  22764456.654   -13606158.440 7   -864893.814 8
  24400388.240    -8587802.355 6  -3569409.440 5
 94  2 17 21  9  0.0060000  0  7  2 27 28 29 18 19 31
  26425645.553    -1159801.088 5   -777808.759 4
  24090100.498   -11140524.840 6  -3395918.797 6
  25209228.576    -4215238.573 5    -44197.368 5
  23458443.810     5566943.551 6   4309856.163 7
  22064119.240   -14733067.715 7    503255.924 7
  22763673.053   -13610274.171 7   -868100.878 8
  24393175.389    -8625700.758 6  -3598940.570 5
 94  2 17 21  9 30.0060000  0  7  2 27 28 29 18 19 31
  26410612.771    -1238761.527 5   -839336.226 4
  24081711.201   -11184610.590 6  -3430271.314 6
  25212573.912    -4197648.654 5    -30490.908 5
  23473646.896     5646846.490 6   4372118.172 7
  22069274.607   -14705978.574 7    524364.355 7
  22762926.428   -13614192.663 7   -871154.237 8
  24386047.850    -8663163.620 6  -3628132.316 5
 94  2 17 21 10  0.0060000  0  7  2 27 28 29 18 19 31
  26395612.404    -1317594.314 5   -900764.231 3
  24073347.404   -11228568.429 6  -3464524.160 6
  25216031.381    -4179541.429 5    -16381.377 5
  23488925.896     5727133.388 6   4434679.366 7
  22074523.201   -14678399.985 7    545854.173 7
  22762218.584   -13617913.321 7   -874053.450 8
  24379001.740    -8700204.734 6  -3656995.406 5
 94  2 17 21 10 30.0060000  0  7  2 27 28 29 18 19 31
  26380633.803    -1396302.357 5   -962095.027 4
  24065006.662   -11272403.972 6  -3498681.703 6
  25219571.256    -4160926.768 5     -1876.422 5
  23504274.068     5807785.763 6   4497525.347 7
  22079862.045   -14650346.135 7    567714.323 7
  22761548.334   -13621442.028 7   -876803.078 8
  24372022.279    -8736851.068 6  -3685550.882 5
 94  2 17 21 11  0.0060000  0  7  2 27 28 29 18 19 31
  26365688.139    -1474857.553 5  -1023306.740 4
  24056690.428   -11316115.488 6  -3532742.600 6
  25223204.084    -4141797.528 5     13029.506 5
  23519696.076     5888806.888 6   4560658.668 7
  22085288.631   -14621822.468 7    589940.572 7
  22760908.537   -13624788.503 7   -879410.699 8
  24365126.764    -8773097.052 6  -3713794.375 5
 94  2 17 21 11 30.0060000  0  7  2 27 28 29 18 19 31
  26350764.006    -1553264.914 5  -1084403.261 3
  24048392.350   -11359695.477 6  -3566701.012 6
  25226953.967    -4122145.464 5     28342.851 5
  23535178.951     5970191.614 6   4624075.318 7
  22090805.115   -14592835.149 7    612528.100 7
  22760305.803   -13627967.260 7   -881887.639 8
  24358304.904    -8808941.730 6  -3741725.150 5
 94  2 17 21 12  0.0060000  0  7  2 27 28 29 18 19 31
  26335870.795    -1631509.872 5  -1145373.250 2
  24040128.654   -11403138.447 6  -3600552.647 6
  25230786.920    -4101947.343 5     44081.702 5
  23550735.865     6051952.162 6   4687784.816 7
  22096413.029   -14563361.155 7    635494.856 7
  22759732.709   -13630975.089 7   -884231.383 8
  24351563.365    -8844370.266 6  -3769331.663 5
 94  2 17 21 12 30.0060000  0  7  2 27 28 29 18 19 31
  26321017.115    -1709576.159 5  -1206204.027 4
  24031891.084   -11446441.477 6  -3634295.231 6
  25234732.764    -4081195.603 5     60251.953 5
  23566366.232     6134097.811 6   4751794.386 7
  22102118.435   -14533390.860 7    658848.340 7
  22759193.459   -13633811.148 7   -886441.272 8
  24344912.701    -8879338.647 6  -3796579.602 5
 94  2 17 21 13  0.0060000  0  7  2 27 28 29 18 19 31
  26306198.975    -1787471.685 5  -1266901.730 5
  24023676.529   -11489609.349 6  -3667932.497 6
  25238796.639    -4059880.153 5     76861.464 5
  23582071.795     6216621.802 6   4816098.772 7
  22107912.365   -14502931.319 7    682583.051 7
  22758688.685   -13636463.814 7   -888508.260 8
  24338344.334    -8913827.197 6  -3823453.651 5
 94  2 17 21 13 30.0060000  0  7  2 27 28 29 18 19 31
  26291404.889    -1865205.739 5  -1327473.645 4
  24015484.279   -11532656.500 6  -3701475.691 6
  25242959.779    -4038002.114 5     93909.346 5
  23597847.201     6299513.231 6   4880689.477 6
  22113800.748   -14471990.251 7    706692.979 7
  22758223.037   -13638922.295 7   -890423.933 8
  24331877.943    -8947827.211 6  -3849947.027 5
 94  2 17 21 14  0.0060000  0  7  2 27 28 29 18 19 31
  26276644.568    -1942776.477 5  -1387918.276 5
  24007311.873   -11575589.577 6  -3734929.998 7
  25247228.928    -4015559.671 5    111397.017 5
  23613689.553     6382773.213 6   4945567.364 7
  22119780.646   -14440570.619 7    731175.811 7
  22757792.217   -13641167.848 7   -892173.690 8
  24325499.201    -8981331.271 6  -3876053.955 5
 94  2 17 21 14 30.0060000  0  7  2 27 28 29 18 19 31
  26261908.678    -2020205.458 5  -1448252.461 4
  23999164.256   -11618411.284 6  -3768297.516 6
  25251597.451    -3992567.084 5    129313.370 5
  23629599.771     6466379.356 6   5010714.991 6
  22125846.654   -14408693.072 7    756015.467 7
  22757407.631   -13643198.824 7   -893756.244 8
  24319209.803    -9014363.619 6  -3901793.321 5
 94  2 17 21 15  0.0060000  0  7  2 27 28 29 18 19 31
  26247202.170    -2097492.873 5  -1508476.327 5
  23991035.631   -11661125.382 6  -3801581.189 6
  25256078.998    -3969038.011 5    147647.746 5
  23645573.646     6550325.951 6   5076127.901 6
  22131999.646   -14376356.758 7    781212.592 8
  22757061.318   -13645005.310 7   -895163.868 8
  24313009.943    -9046951.904 6  -3927186.681 5
 94  2 17 21 15 30.0060000  0  7  2 27 28 29 18 19 31
  26232526.529    -2174632.939 5  -1568585.376 5
  23982926.811   -11703726.610 6  -3834776.896 6
  25260658.740    -3944979.404 5    166394.759 5
  23661618.475     6634626.722 6   5141816.801 7
  22138243.896   -14343545.805 7    806779.568 8
  22756760.264   -13646595.913 7   -896403.282 8
  24306893.935    -9079111.070 6  -3952245.675 5
 94  2 17 21 16  0.0060000  0  7  2 27 28 29 18 19 31
  26217872.217    -2251625.882 5  -1628579.766 5
  23974848.389   -11746189.290 6  -3867864.653 7
  25265333.646    -3920392.159 5    185553.694 5
  23677726.146     6719289.758 6   5207787.983 6
  22144580.545   -14310242.022 7    832730.570 7
  22756497.162   -13647981.364 7   -897482.832 8
  24300858.232    -9110842.047 6  -3976971.021 6
 94  2 17 21 16 30.0060000  0  7  2 27 28 29 18 19 31
  26203244.529    -2328459.052 5  -1688449.670 4
  23966796.053   -11788506.588 6  -3900839.122 6
  25270121.482    -3895275.087 5    205125.482 5
  23693910.287     6804320.852 6   5274045.954 6
  22151015.545   -14276430.643 7    859077.099 8
  22756270.303   -13649177.413 7   -898414.808 8
  24294893.600    -9142134.282 6  -4001354.504 6
 94  2 17 21 17  0.0060000  0  7  2 27 28 29 18 19 31
  26188665.404    -2405122.798 5  -1748187.540 5
  23958768.545   -11830689.278 6  -3933708.712 7
  25275002.506    -3869621.472 5    225115.336 5
  23710161.576     6889730.902 6   5340599.226 7
  22157543.865   -14242113.494 7    885817.733 7
  22756072.670   -13650202.546 7   -899213.605 8
  24289032.709    -9172969.358 6  -4025381.771 6
 94  2 17 21 17 30.0060000  0  7  2 27 28 29 18 19 31
  26174108.232    -2481619.641 5  -1807795.357 5
  23950766.373   -11872741.550 6  -3966476.679 7
  25279983.475    -3843422.263 5    245530.313 5
  23726486.818     6975519.769 6   5407447.671 6
  22164172.467   -14207292.016 7    912951.347 7
  22755910.209   -13651075.950 7   -899894.171 8
  24283251.920    -9203337.604 6  -4049045.262 6
 94  2 17 21 18  0.0060000  0  7  2 27 28 29 18 19 31
  26159585.748    -2557947.308 5  -1867271.370 4
  23942786.889   -11914665.459 6  -3999144.616 7
  25285072.350    -3816678.291 5    266369.773 5
  23742881.154     7061674.841 6   5474581.465 6
  22170892.678   -14171974.345 7    940471.606 7
  22755769.646   -13651798.763 7   -900457.390 8
  24277574.029    -9233219.341 6  -4072329.688 6
 94  2 17 21 18 30.0060000  0  7  2 27 28 29 18 19 31
  26145090.842    -2634102.512 5  -1926612.961 5
  23934831.646   -11956470.095 6  -4031719.611 7
  25290271.271    -3789390.876 5    287632.706 5
  23759345.787     7148191.799 6   5541997.256 7
  22177700.279   -14136182.352 7    968361.465 7
  22755666.060   -13652353.337 7   -900889.521 8
  24271970.498    -9262617.539 6  -4095237.327 6
 94  2 17 21 19  0.0060000  0  7  2 27 28 29 18 19 31
  26130631.560    -2710086.741 5  -1985821.345 5
  23926901.365   -11998146.410 6  -4064194.621 7
  25295553.139    -3761561.349 5    309318.067 5
  23775880.185     7235075.971 6   5609699.183 7
  22184600.443   -14099928.718 7    996611.041 7
  22755594.787   -13652718.160 7   -901173.790 8
  24266469.514    -9291538.880 6  -4117773.409 6
 94  2 17 21 19 30.0060000  0  7  2 27 28 29 18 19 31
  26116204.615    -2785912.606 5  -2044906.321 5
  23918997.060   -12039687.800 6  -4096564.499 6
  25300956.670    -3733202.230 5    331416.094 5
  23792480.295     7322320.643 6   5677682.018 7
  22191588.482   -14063216.954 7   1025217.600 8
  22755561.193   -13652881.395 7   -901300.982 8
  24261050.693    -9319989.317 6  -4139942.556 6
 94  2 17 21 20  0.0060000  0  7  2 27 28 29 18 19 31
  26101805.201    -2861576.736 5  -2103865.273 5
  23911120.771   -12081079.324 6  -4128817.606 7
  25306454.639    -3704310.238 5    353929.369 5
  23809150.857     7409922.387 6   5745943.082 7
  22198660.693   -14026049.834 7   1054178.981 8
  22755576.514   -13652829.794 7   -901260.765 7
  24255729.600    -9347962.525 6  -4161739.850 6
 94  2 17 21 20 30.0060000  0  7  2 27 28 29 18 19 31
  26087435.717    -2937063.859 5  -2162686.298 5
  23903274.529   -12122315.625 6  -4160949.763 7
  25312065.178    -3674871.957 5    376868.299 5
  23825888.912     7497890.339 6   5814489.504 7
  22205821.193   -13988420.748 7   1083500.339 8
  22755626.725   -13652557.777 7   -901048.827 8
  24250501.623    -9375459.374 6  -4183165.965 6
 94  2 17 21 21  0.0060000  0  7  2 27 28 29 18 19 31
  26073105.873    -3012363.313 5  -2221361.095 5
  23895453.576   -12163404.165 6  -4192966.779 7
  25317767.209    -3644876.917 5    400241.080 5
  23842700.678     7586222.360 6   5883319.607 7
  22213074.092   -13950302.705 7   1113202.706 8
  22755717.389   -13652075.497 7   -900673.026 8
  24245359.506    -9402471.015 6  -4204213.990 6
 94  2 17 21 21 30.0060000  0  7  2 27 28 29 18 19 31
  26058810.271    -3087474.782 5  -2279889.415 5
  23887660.404   -12204362.026 6  -4224881.983 6
  25323586.881    -3614320.115 5    424051.617 5
  23859574.287     7674903.273 6   5952421.584 7
  22220423.006   -13911686.510 7   1143293.243 8
  22755846.217   -13651400.594 7   -900147.130 8
  24240313.990    -9428989.096 6  -4224877.425 6
 94  2 17 21 22  0.0060000  0  7  2 27 28 29 18 19 31
  26044558.365    -3162376.905 5  -2338254.605 5
  23879888.678   -12245204.945 6  -4256707.612 7
  25329504.920    -3583197.533 5    448303.010 5
  23876517.225     7763927.809 6   6021791.305 6
  22227865.693   -13872578.239 7   1173767.205 7
  22756011.646   -13650539.876 7   -899476.438 8
  24235359.467    -9455028.413 6  -4245167.797 6
 94  2 17 21 22 30.0060000  0  7  2 27 28 29 18 19 31
  26030345.896    -3237069.585 5  -2396456.607 5
  23872132.920   -12285958.309 6  -4288463.463 7
  25335533.568    -3551515.517 5    472990.345 5
  23893521.607     7853297.550 6   6091430.017 6
  22235400.232   -13832981.015 7   1204622.177 7
  22756209.006   -13649499.418 7   -898665.682 8
  24230492.342    -9480592.557 6  -4265087.904 6
 94  2 17 21 23  0.0060000  0  7  2 27 28 29 18 19 31
  26016170.771    -3311585.110 5  -2454520.560 5
  23864395.725   -12326626.201 6  -4320152.716 6
  25341668.935    -3519293.191 5    498098.698 5
  23910591.639     7943008.135 6   6161334.321 6
  22243027.975   -13792904.428 7   1235850.676 7
  22756436.404   -13648291.309 7   -897724.291 8
  24225716.014    -9505689.227 6  -4284643.741 6
 94  2 17 21 23 30.0060000  0  7  2 27 28 29 18 19 31
  26002022.404    -3385923.708 5  -2512446.662 5
  23856677.435   -12367185.803 6  -4351757.582 7
  25347900.404    -3486527.942 5    523630.112 5
  23927730.725     8033068.505 6   6231511.187 6
  22250743.295   -13752353.087 7   1267449.115 7
  22756700.256   -13646900.205 7   -896640.314 8
  24221030.006    -9530314.946 6  -4303832.595 6
 94  2 17 21 24  0.0060000  0  7  2 27 28 29 18 19 31
  25987909.131    -3460093.464 5  -2570241.193 5
  23848980.467   -12407620.766 6  -4383265.336 7
  25354237.146    -3453226.035 5    549579.704 5
  23944934.568     8123484.662 6   6301965.287 6
  22258551.537   -13711319.452 7   1299423.371 7
  22757006.498   -13645315.823 7   -895405.737 8
  24216436.029    -9554465.007 6  -4322650.800 6
 94  2 17 21 24 30.0060000  0  7  2 27 28 29 18 19 31
  25973816.560    -3534119.266 5  -2627923.555 5
  23841312.162   -12447922.027 6  -4414668.889 7
  25360671.209    -3419394.067 5    575942.336 5
  23962213.709     8214255.573 6   6372695.814 6
  22266454.154   -13669790.197 7   1331783.825 7
  22757345.146   -13643531.935 7   -894015.693 8
  24211936.545    -9578110.283 6  -4341075.660 6
 94  2 17 21 25  0.0060000  0  7  2 27 28 29 18 19 31
  25959764.592    -3607998.848 5  -2685491.967 5
  23833672.725   -12488067.386 6  -4445950.963 7
  25367211.873    -3385032.559 5    602717.593 5
  23979552.068     8305373.794 6   6443696.984 6
  22274454.154   -13627754.426 7   1364538.966 7
  22757721.131   -13641537.995 7   -892461.974 8
  24207530.693    -9601241.880 6  -4359100.245 6
 94  2 17 21 25 30.0060000  0  7  2 27 28 29 18 19 31
  25945735.560    -3681708.738 5  -2742928.160 5
  23826063.185   -12528062.884 6  -4477116.264 6
  25373857.029    -3350134.400 5    629911.009 5
  23996951.654     8396828.239 6   6514960.139 6
  22282545.920   -13585221.445 7   1397681.538 7
  22758146.123   -13639325.751 7   -890738.139 8
  24203234.756    -9623845.591 6  -4376713.480 6
 94  2 17 21 26  0.0060000  0  7  2 27 28 29 18 19 31
  25931749.154    -3755235.444 5  -2800221.602 5
  23818478.600   -12567911.161 6  -4508166.840 7
  25380600.178    -3314700.137 5    657522.169 5
  24014421.037     8488628.628 6   6586492.856 6
  22290735.662   -13542185.499 7   1431216.035 7
  22758604.240   -13636901.471 7   -888849.091 8
  24199033.998    -9645908.601 6  -4393905.382 6
 94  2 17 21 26 30.0060000  0  7  2 27 28 29 18 19 31
  25917787.053    -3828569.762 5  -2857365.133 5
  23810923.006   -12607611.725 6  -4539102.314 7
  25387445.365    -3278725.220 5    685554.623 5
  24031959.256     8580779.902 6   6658298.994 6
  22299019.021   -13498658.491 7   1465133.179 7
  22759107.545   -13634274.320 7   -886801.963 8
  24194938.412    -9667439.288 6  -4410682.488 6
 94  2 17 21 27  0.0060000  0  7  2 27 28 29 18 19 31
  25903869.514    -3901694.270 5  -2914345.187 5
  23803396.826   -12647155.837 7  -4569915.859 7
  25394395.381    -3242196.004 5    714018.987 5
  24049564.717     8673296.981 6   6730390.173 6
  22307394.482   -13454645.121 7   1499429.309 7
  22759644.943   -13631450.262 7   -884601.395 8
  24190937.498    -9688460.962 6  -4427062.952 6
 94  2 17 21 27 30.0060000  0  7  2 27 28 29 18 19 31
  25889994.029    -3974617.901 5  -2971168.705 5
  23795899.810   -12686561.371 7  -4600621.430 7
  25401445.201    -3205120.947 5    742908.670 5
  24067256.014     8766181.698 6   6802767.826 6
  22315858.529   -13410171.056 7   1534084.417 7
  22760206.967   -13628449.395 7   -882263.051 8
  24187031.506    -9708988.358 6  -4443058.258 6
 94  2 17 21 28  0.0060000  0  7  2 27 28 29 18 19 31
  25876155.568    -4047358.732 5  -3027849.792 5
  23788428.232   -12725837.115 7  -4631225.865 7
  25408604.623    -3167512.001 5    772214.356 5
  24084983.717     8859428.871 6   6875427.913 6
  22324409.185   -13365226.157 7   1569106.418 7
  22760815.342   -13625288.336 7   -879799.878 8
  24183220.357    -9729028.869 6  -4458674.172 6
 94  2 17 21 28 30.0060000  0  7  2 27 28 29 18 19 31
  25862342.185    -4119917.283 5  -3084388.837 5
  23780978.303   -12764981.314 6  -4661727.798 7
  25415873.779    -3129358.136 5    801944.639 5
  24102796.123     8953024.955 6   6948359.873 6
  22333052.615   -13319807.374 7   1604497.669 7
  22761448.365   -13621962.447 7   -877208.265 8
  24179499.982    -9748582.071 6  -4473910.362 6
 94  2 17 21 29  0.0060000  0  8  2 27 28 29 16 18 19 31
  25848581.334    -4192276.087 5  -3140772.239 5
  23773555.428   -12803996.520 6  -4692129.215 7
  25423230.779    -3090656.417 5    832101.812 4
  24120665.709     9046952.447 6   7021550.072 6
  26746969.076          -0.43413
  22341789.412   -13273905.507 7   1640265.353 7
  22762114.225   -13618463.577 7   -874481.870 8
  24175873.318    -9767622.914 6  -4488747.305 6
 94  2 17 21 29 30.0060000  0  8  2 27 28 29 16 18 19 31
  25834848.670    -4264424.677 5  -3196991.854 5
  23766154.021   -12842878.188 6  -4722426.577 7
  25430692.264    -3051419.265 5    862676.193 5
  24138599.271     9141190.652 6   7094982.392 6
  26737375.787      -50454.760 3        -0.17511
  22350617.365   -13227509.083 7   1676418.401 7
  22762815.053   -13614786.647 7   -871616.715 8
  24172352.139    -9786127.717 6  -4503166.557 6
 94  2 17 21 30  0.0060000  0  8  2 27 28 29 16 18 19 31
  25821158.357    -4336366.456 5  -3253050.314 5
  23758778.498   -12881630.028 6  -4752622.777 7
  25438274.225    -3011645.154 5    893668.980 4
  24156591.084     9235730.968 6   7168650.118 6
  26727849.428     -100494.631 3    -38992.217 1
  22359543.537   -13180597.348 7   1712972.994 7
  22763545.115   -13610938.271 7   -868617.971 8
  24168933.076    -9804092.806 6  -4517165.252 6
 94  2 17 21 30 30.0060000  0  8  2 27 28 29 16 18 19 31
  25807510.529    -4408083.193 5  -3308933.420 5
  23751433.006   -12920241.593 6  -4782709.674 7
  25445947.576    -2971324.540 5    925087.600 5
  24174640.693     9330583.753 6   7242561.323 6
  26718412.334     -150118.784 3    -77660.336 1
  22368569.146   -13133173.070 7   1749926.967 7
  22764311.131   -13606908.797 7   -865478.117 8
  24165615.975    -9821513.674 6  -4530739.875 6
 94  2 17 21 31  0.0060000  0  8  2 27 28 29 16 18 19 31
  25793908.185    -4479579.335 5  -3364644.648 5
  23744110.303   -12958714.816 7  -4812688.779 7
  25453716.014    -2930459.123 5    956930.737 5
  24192751.701     9425758.297 6   7316723.254 6
  26709039.271     -199320.104 3   -115998.940 1
  22377689.178   -13085250.351 7   1787269.339 7
  22765115.420   -13602694.921 7   -862194.573 8
  24162409.451    -9838385.973 6  -4543887.044 6
 94  2 17 21 31 30.0060000  0  8  2 27 28 29 16 18 19 31
  25780341.428    -4550870.649 5  -3420196.252 5
  23736815.225   -12997052.605 6  -4842562.341 7
  25461599.717    -2889045.371 5    989201.172 5
  24210928.467     9521274.021 6   7391151.061 6
  26699766.701     -248101.891 3   -154010.655 2
  22386899.482   -13036833.552 7   1824996.712 7
  22765952.365   -13598295.608 7   -858766.512 7
  24159298.764    -9854716.744 6  -4556612.227 6
 94  2 17 21 32  0.0060000  0  8  2 27 28 29 16 18 19 31
  25766810.264    -4621970.888 5  -3475599.010 5
  23729543.928   -13035264.461 6  -4872337.801 7
  25469586.318    -2847069.249 5   1021909.772 4
  24229173.014     9617145.886 6   7465856.332 6
  26690560.217     -296457.857 3   -191690.580 1
  22396206.318   -12987933.915 7   1863100.294 7
  22766826.670   -13593708.753 7   -855192.339 8
  24156292.732    -9870507.183 6  -4568916.403 6
 94  2 17 21 32 30.0060000  0  8  2 27 28 29 16 18 19 31
  25753314.060    -4692886.997 6  -3530858.267 5
  23722296.576   -13073350.592 6  -4902015.284 7
  25477677.639    -2804542.741 5   1055047.284 5
  24247477.834     9713367.579 6   7540834.210 6
  26681438.912     -344389.100 3   -229039.545 1
  22405600.967   -12938567.686 7   1901567.474 7
  22767734.021   -13588927.597 7   -851466.747 8
  24153388.295    -9885769.359 6  -4580808.922 6
 94  2 17 21 33  0.0060000  0  8  2 27 28 29 16 18 19 31
  25739855.998    -4763626.405 5  -3585979.833 5
  23715074.006   -13111301.402 6  -4931587.329 7
  25485877.146    -2761460.490 5   1088617.850 5
  24265858.287     9809931.915 6   7616079.096 6
  26672404.475     -391896.515 3   -266058.255 2
  22415085.592   -12888730.568 7   1940401.581 7
  22768679.764   -13583952.569 7   -847590.094 8
  24150589.412    -9900507.307 6  -4592292.970 6
 94  2 17 21 33 30.0060000  0  8  2 27 28 29 16 18 19 31
  25726425.693    -4834175.721 6  -3640953.280 5
  23707881.162   -13149107.481 7  -4961046.608 7
  25494176.967    -2717825.574 5   1122619.089 5
  24284300.396     9906850.326 6   7691599.875 6
  26663438.975     -438977.491 3   -302744.675 3
  22424666.467   -12838390.551 7   1979627.556 7
  22769666.803   -13578776.592 7   -843556.856 8
  24147884.498    -9914716.615 6  -4603365.091 6
 94  2 17 21 34  0.0060000  0  8  2 27 28 29 16 18 19 31
  25713046.092    -4904523.134 6  -3695769.405 5
  23700713.928   -13186764.540 6  -4990389.761 7
  25502594.092    -2673647.494 5   1157043.570 5
  24302812.428    10004116.668 6   7767391.766 6
  26654561.920     -485634.627 3   -339100.799 2
  22434340.881   -12787543.166 7   2019248.878 7
  22770686.990   -13573403.360 7   -839369.923 8
  24145275.904    -9928403.469 6  -4614030.108 6
 94  2 17 21 34 30.0060000  0  8  2 27 28 29 16 18 19 31
  25699701.717    -4974654.797 6  -3750417.407 5
  23693574.842   -13224274.806 6  -5019618.532 7
  25511091.912    -2628934.661 5   1191884.753 5
  24321383.959    10101713.754 6   7843441.391 6
  26645767.256     -531869.609 3   -375128.007 1
  22444112.678   -12736187.264 7   2059266.447 7
  22771747.725   -13567833.213 7   -835029.544 8
  24142767.029    -9941574.223 6  -4624292.968 6
 94  2 17 21 35  0.0060000  0  8  2 27 28 29 16 18 19 31
  25686398.553    -5044562.096 6  -3804890.568 5
  23686464.662   -13261646.266 7  -5048739.144 7
  25519703.014    -2583696.537 5   1227135.276 5
  24340016.857    10199639.778 6   7919747.318 6
  26637041.068     -577675.841 3   -410821.120 3
  22453979.920   -12684330.916 7   2099673.976 7
  22772845.623   -13562065.239 7   -830535.008 8
  24140365.443    -9954220.574 6  -4634147.210 6
 94  2 17 21 35 30.0060000  0  8  2 27 28 29 16 18 19 31
  25673133.842    -5114249.921 6  -3859192.715 5
  23679375.342   -13298896.519 6  -5077765.306 7
  25528411.037    -2537954.345 5   1262778.584 5
  24358714.857    10297892.579 6   7996307.891 6
  26628413.006     -623041.454 3   -446170.895 2
  22463943.225   -12631972.399 7   2140472.805 7
  22773981.787   -13556094.179 7   -825882.228 8
  24138059.623    -9966333.056 6  -4643585.455 6
 94  2 17 21 36  0.0060000  0  8  2 27 28 29 16 18 19 31
  25659907.162    -5183723.108 6  -3913327.604 5
  23672307.115   -13336026.456 7  -5106697.716 8
  25537215.787    -2491706.490 5   1298815.899 5
  24377465.982    10396444.332 6   8073101.393 6
  26619862.529     -667962.984 3   -481174.642 2
  22474000.810   -12579130.525 7   2181648.273 7
  22775157.975   -13549922.930 7   -821073.466 8
  24135860.670    -9977912.186 6  -4652608.101 6
 94  2 17 21 36 30.0060000  0  8  2 27 28 29 16 18 19 31
  25646734.904    -5252983.072 6  -3967296.353 5
  23665271.795   -13373025.486 7  -5135528.113 7
  25546109.857    -2444943.949 5   1335254.270 5
  24396281.053    10495299.826 6   8150131.593 6
  26611403.443     -712426.947 3   -515821.843 2
  22484145.100   -12525819.637 7   2223189.206 7
  22776370.521   -13543540.014 7   -816099.760 8
  24133755.451    -9988941.090 6  -4661202.005 6
 94  2 17 21 37  0.0060000  0  8  2 27 28 29 16 18 19 31
  25633593.154    -5322032.839 6  -4021101.310 5
  23658256.443   -13409880.260 7  -5164246.094 7
  25555102.607    -2397664.824 5   1372095.159 5
  24415151.170    10594475.780 6   8227411.500 6
  26603024.256     -756431.082 3   -550110.720 2
  22494379.068   -12472035.279 7   2265099.078 7
  22777625.068   -13536950.608 7   -810965.165 8
  24131764.560    -9999406.904 6  -4669357.141 6
 94  2 17 21 37 30.0060000  0  8  2 27 28 29 16 18 19 31
  25620491.600    -5390871.994 6  -4074742.152 6
  23651271.928   -13446589.712 7  -5192850.842 7
  25564191.014    -2349857.606 5   1409347.546 5
  24434081.787    10693961.649 6   8304932.899 5
  26594743.576     -799982.597 3   -584046.916 2
  22504703.475   -12417777.463 7   2307377.874 7
  22778915.514   -13530168.838 7   -805680.668 8
  24129882.428   -10009312.880 6  -4677076.039 6
 94  2 17 21 38  0.0060000  0  8  2 27 28 29 16 18 19 31
  25607437.623    -5459484.941 6  -4128206.734 5
  23644316.732   -13483139.370 7  -5221331.072 7
  25573405.615    -2301497.992 5   1447030.360 5
  24453072.537    10793758.222 6   8382696.411 5
  26586540.865     -843085.746 3   -617633.732 2
  22515117.287   -12363060.036 7   2350014.804 7
  22780242.779   -13523199.019 7   -800249.651 8
  24128101.451   -10018664.262 6  -4684362.794 6
 94  2 17 21 38 30.0060000  0  8  2 27 28 29 16 18 19 31
  25594424.771    -5527871.322 6  -4181494.756 6
  23637391.631   -13519538.103 7  -5249693.700 7
  25582709.373    -2252581.560 5   1485147.057 5
  24472128.693    10893883.573 6   8460716.109 5
  26578431.889     -885739.164 3   -650870.124 2
  22525618.498   -12307879.936 7   2393012.258 7
  22781604.818   -13516036.938 7   -794668.814 8
  24126429.568   -10027455.916 6  -4691213.384 6
 94  2 17 21 39  0.0060000  0  8  2 27 28 29 16 18 19 31
  25581446.373    -5596035.502 6  -4234609.641 5
  23630491.451   -13555793.361 7  -5277944.521 7
  25592116.435    -2203117.572 5   1523690.417 5
  24491240.342    10994318.407 6   8538976.961 5
  26570393.225     -927946.966 4   -683759.308 1
  22536210.232   -12252216.882 7   2436386.044 8
  22783002.209   -13508692.037 7   -788945.521 8
  24124861.881   -10035690.476 6  -4697629.881 6
 94  2 17 21 39 30.0060000  0  8  2 27 28 29 16 18 19 31
  25568516.928    -5663987.888 6  -4287559.496 5
  23623616.287   -13591910.365 7  -5306087.618 7
  25601642.912    -2153102.543 5   1562663.151 5
  24510409.381    11095053.928 6   8617472.126 5
  26562447.670     -969696.623 4   -716291.477 2
  22546893.725   -12196073.460 7   2480134.143 8
  22784436.303   -13501157.732 7   -783074.647 7
  24123399.748   -10043366.436 6  -4703611.109 6
 94  2 17 21 40  0.0060000  0  8  2 27 28 29 16 18 19 31
  25555624.920    -5731732.565 6  -4340347.487 5
  23616775.967   -13627877.036 7  -5334113.568 7
  25611260.639    -2102535.346 5   1602066.145 5
  24529638.076    11196102.197 6   8696210.981 5
  26554601.717    -1010978.891 4   -748459.471 1
  22557669.920   -12139443.422 7   2524261.422 8
  22785908.060   -13493421.390 7   -777046.330 8
  24122047.443   -10050481.516 6  -4709155.290 6
 94  2 17 21 40 30.0070000  0  8  2 27 28 29 16 18 19 31
  25542775.190    -5799276.993 6  -4392979.458 6
  23609958.886   -13663695.842 7  -5362024.299 7
  25620993.659    -2051430.963 5   1641887.705 5
  24548927.831    11297474.121 6   8775202.033 5
  26546830.401    -1051790.402 3   -780260.610 2
  22568541.808   -12082309.120 7   2568781.632 8
  22787418.183   -13485488.375 7   -770864.761 8
  24120801.511   -10057023.720 6  -4714253.076 6
 94  2 17 21 41  0.0070000  0  8  2 27 28 29 16 18 19 31
  25529964.034    -5866608.440 6  -4445445.468 6
  23603170.776   -13699360.526 7  -5389814.935 7
  25630814.925    -1999802.396 5   1682117.731 5
  24568280.894    11399163.869 6   8854440.745 5
  26539141.183    -1092130.472 3   -811694.412 2
  22579510.128   -12024664.481 7   2613699.501 8
  22788961.604   -13477372.669 7   -764540.827 8
  24119664.034   -10062998.963 6  -4718909.080 6
 94  2 17 21 41 30.0070000  0  8  2 27 28 29 16 18 19 31
  25517191.823    -5933710.905 6  -4497733.048 5
  23596413.690   -13734872.223 7  -5417486.362 7
  25640740.753    -1947639.186 5   1722764.351 5
  24587694.425    11501197.273 6   8933947.239 6
  26531565.784    -1132004.413 3   -842764.964 2
  22590574.683   -11966519.437 7   2659007.300 8
  22790542.792   -13469067.868 7   -758069.568 8
  24118633.886   -10068414.884 6  -4723129.256 6
 94  2 17 21 42  0.0070000  0  8  2 27 28 29 16 18 19 31
  25504467.948    -6000567.783 6  -4549829.253 6
  23589684.479   -13770236.017 7  -5445042.537 7
  25650759.003    -1894949.627 5   1763821.141 4
  24607180.479    11603575.240 6   9013722.216 6
  26524071.081    -1171427.078 3   -873483.893 3
  22601735.214   -11907877.075 7   2704702.621 8
  22792158.628   -13460578.368 7   -751454.356 8
  24117710.276   -10073275.554 6  -4726916.762 6
 94  2 17 21 42 30.0070000  0  8  2 27 28 29 16 18 19 31
  25491795.870    -6067177.962 6  -4601733.218 6
  23582980.331   -13805472.460 7  -5472499.480 7
  25660889.276    -1841749.532 5   1805275.726 4
  24626722.878    11706286.856 6   9093757.182 5
  26516652.112    -1210409.973 3   -903860.125 1
  22612987.956   -11848749.472 7   2750776.048 8
  22793807.386   -13451913.338 7   -744702.381 8
  24116891.003   -10077582.735 6  -4730272.995 6
 94  2 17 21 43  0.0070000  0  8  2 27 28 29 16 18 19 31
  25479170.620    -6133534.261 6  -4653439.361 6
  23576299.737   -13840579.660 7  -5499855.712 7
  25671110.831    -1788034.460 5   1847131.596 5
  24646329.901    11809314.034 6   9174038.037 6
  26509306.979    -1248950.717 3   -933891.854 2
  22624328.987   -11789143.539 7   2797222.193 8
  22795491.933   -13443059.003 7   -737802.900 8
  24116176.089   -10081333.393 6  -4733195.570 6
 94  2 17 21 43 30.0070000  0  8  2 27 28 29 16 18 19 31
  25466588.081    -6199635.753 6  -4704946.956 6
  23569644.245   -13875547.345 7  -5527103.232 7
  25681427.136    -1733802.820 5   1889389.990 4
  24665992.026    11912635.341 6   9254548.081 6
  26502060.558    -1287038.069 3   -963570.263 1
  22635760.479   -11729076.164 7   2844027.919 8
  22797215.761   -13434002.380 7   -730745.793 8
  24115571.206   -10084521.031 6  -4735679.436 6
 94  2 17 21 44  0.0070000  0  8  2 27 28 29 16 18 19 31
  25454060.034    -6265492.580 6  -4756263.902 6
  23563016.636   -13910372.309 7  -5554239.557 7
  25691850.940    -1679061.187 5   1932045.775 3
  24685707.972    12016232.723 6   9335273.245 6
  26494910.019    -1324657.326 3   -992883.921 2
  22647279.503   -11668545.332 7   2891194.764 8
  22798975.378   -13424753.918 7   -723539.201 8
  24115073.526   -10087125.648 6  -4737708.991 6
 94  2 17 21 44 30.0070000  0  8  2 27 28 29 16 18 19 31
  25441571.269    -6331101.458 6  -4807387.643 6
  23556419.315   -13945043.021 7  -5581255.682 7
  25702356.948    -1623800.799 5   1975105.782 5
  24705466.823    12120103.010 6   9416211.075 6
  26487837.261    -1361788.804 3  -1021817.483 1
  22658889.737   -11607540.051 7   2938731.318 8
  22800774.214   -13415296.760 7   -716169.986 8
  24114690.144   -10089133.354 6  -4739273.405 6
 94  2 17 21 45  0.0070000  0  8  2 27 28 29 16 18 19 31
  25429130.636    -6396472.693 6  -4858326.215 6
  23549853.854   -13979553.349 7  -5608146.837 7
  25712979.784    -1568010.841 5   2018578.432 4
  24725285.948    12224245.825 6   9497361.252 6
  26480857.003    -1398424.775 3  -1050364.933 2
  22670589.261   -11546058.153 7   2986639.265 8
  22802612.854   -13405631.011 7   -708638.231 8
  24114419.792   -10090545.734 6  -4740373.931 6
 94  2 17 21 45 30.0070000  0  8  2 27 28 29 16 18 19 31
  25416735.300    -6461607.162 6  -4909080.288 6
  23543315.276   -14013903.372 7  -5634913.064 7
  25723699.675    -1511674.786 5   2062476.631 5
  24745159.972    12328694.634 6   9578749.866 5
  26473991.104    -1434556.872 3  -1078519.738 1
  22682380.386   -11484096.156 7   3034921.316 8
  22804493.542   -13395748.969 7   -700937.946 8
  24114267.386   -10091357.332 6  -4741006.318 6
 94  2 17 21 46  0.0070000  0  8  2 27 28 29 16 18 19 31
  25404381.839    -6526523.850 6  -4959664.667 6
  23536801.878   -14048120.792 7  -5661575.978 7
  25734523.019    -1454797.208 5   2106796.790 4
  24765097.198    12433450.525 6   9660377.760 5
  26467210.120    -1470205.574 4  -1106297.882 2
  22694257.534   -11421662.465 7   3083570.918 8
  22806414.370   -13385668.558 7   -693083.086 8
  24114226.526   -10091579.282 6  -4741179.242 6
 94  2 17 21 46 30.0070000  0  8  2 27 28 29 16 18 19 31
  25392073.144    -6591220.431 6  -5010077.529 6
  23530317.769   -14082208.091 7  -5688137.491 7
  25745453.558    -1397365.890 5   2151548.406 4
  24785090.558    12538513.919 6   9742245.274 5
  26460516.011    -1505373.284 3  -1133701.203 2
  22706229.784   -11358749.108 7   3132594.302 8
  22808372.737   -13375378.717 7   -685065.025 8
  24114294.573   -10091228.562 6  -4740905.917 6
 94  2 17 21 47  0.0070000  0  8  2 27 28 29 16 18 19 31
  25379802.433    -6655697.366 6  -5060319.243 6
  23523857.511   -14116158.778 7  -5714592.558 7
  25756484.206    -1339391.702 5   2196723.077 5
  24805144.808    12643882.665 6   9824350.728 5
  26453909.315    -1540058.914 3  -1160728.873 3
  22718292.675   -11295362.259 7   3181986.628 8
  22810366.612   -13364899.926 7   -676899.733 8
  24114468.948   -10090313.164 6  -4740192.585 6
 94  2 17 21 47 30.0070000  0  8  2 27 28 29 16 18 19 31
  25367579.784    -6719946.968 6  -5110383.831 6
  23517423.370   -14149963.814 7  -5740934.131 7
  25767618.644    -1280898.082 5   2242302.487 4
  24825247.948    12749532.489 6   9906675.191 5
  26447410.964    -1574262.905 3  -1187381.235 2
  22730447.534   -11231498.159 7   3231750.844 8
  22812395.253   -13354236.190 7   -668590.334 8
  24114746.698   -10088840.155 6  -4739044.751 6
 94  2 17 21 48  0.0070000  0  8  2 27 28 29 16 18 19 31
  25355389.604    -6783965.758 6  -5160268.533 6
  23511022.362   -14183604.324 7  -5767147.474 7
  25778840.245    -1221902.529 5   2288273.055 2
  24845400.870    12855441.090 6   9989201.342 5
  26440982.511    -1607985.139 4  -1213658.165 5
  22742693.511   -11167139.792 7   3281900.234 7
  22814457.589   -13343398.147 7   -660145.074 8
  24115129.698   -10086809.707 6  -4737462.509 6
 94  2 17 21 48 30.0070000  0  8  2 27 28 29 16 18 19 31
  25343253.120    -6847752.983 6  -5209972.863 6
  23504655.714   -14217058.919 7  -5793216.011 7
  25790165.870    -1162423.839 5   2334620.026 3
  24865604.597    12961617.626 6  10071936.195 5
  26434658.011    -1641219.510 5  -1239555.031 2
  22755037.151   -11102277.213 7   3332442.448 7
  22816554.050   -13332375.254 7   -651555.836 8
  24115626.558   -10084223.126 6  -4735447.000 6
 94  2 17 21 49  0.0070000  0  8  2 27 28 29 16 18 19 31
  25331156.167    -6911312.972 6  -5259500.081 6
  23498326.026   -14250326.736 7  -5819138.956 7
  25801567.292    -1102477.540 5   2381331.416 3
  24885863.839    13068073.076 6  10154888.428 5
  26428428.519    -1673978.461 4  -1265081.390 2
  22767474.815   -11036916.566 7   3383372.811 8
  22818689.995   -13321157.511 7   -642814.722 8
  24116226.901   -10081061.655 6  -4732983.487 6
 94  2 17 21 49 30.0070000  0  8  2 27 28 29 16 18 19 31
  25319111.620    -6974653.657 6  -5308856.422 6
  23492024.800   -14283428.423 7  -5844932.466 7
  25813069.331    -1042050.208 5   2428417.612 4
  24906173.526    13174824.596 6  10238071.344 5
  26422278.847    -1706271.509 4  -1290244.710 2
  22780006.597   -10971057.899 7   3434691.236 7
  22820862.183   -13309730.239 7   -633910.341 8
  24116938.495   -10077322.615 6  -4730069.917 6
 94  2 17 21 50  0.0070000  0  8  2 27 28 29 16 18 19 31
  25307100.878    -7037771.008 6  -5358038.732 6
  23485755.042   -14316385.348 7  -5870613.181 7
  25824662.550     -981132.119 5   2475886.226 4
  24926552.339    13281895.746 6  10321503.317 5
  26416224.167    -1738105.903 5  -1315050.647 3
  22792631.362   -10904712.542 7   3486388.897 7
  22823078.362   -13298091.908 7   -624841.493 8
  24117760.597   -10073006.755 6  -4726706.877 6
 94  2 17 21 50 30.0070000  0  8  2 27 28 29 16 18 19 31
  25295119.354    -7100647.224 6  -5407033.162 6
  23479511.487   -14349209.204 7  -5896190.194 7
  25836345.776     -919714.567 5   2523744.015 3
  24946988.753    13389279.549 6  10405178.923 5
  26410253.425    -1769469.562 5  -1339489.789 2
  22805346.503   -10837898.505 7   3538451.763 7
  22825337.854   -13286225.696 7   -615595.071 8
  24118688.542   -10068109.778 6  -4722891.017 6
 94  2 17 21 51  0.0070000  0  8  2 27 28 29 16 18 19 31
  25283210.089    -7163267.838 6  -5455828.413 6
  23473287.206   -14381901.173 7  -5921664.435 7
  25848134.253     -857775.419 5   2572008.251 3
  24967476.347    13496955.072 6  10489081.848 5
  26404380.323    -1800356.134 4  -1363557.159 2
  22818147.604   -10770621.363 7   3590875.489 7
  22827636.245   -13274136.469 7   -606174.883 8
  24119737.909   -10062608.328 6  -4718604.142 6
 94  2 17 21 51 30.0070000  0  8  2 27 28 29 16 18 19 31
  25271353.847    -7225616.555 6  -5504411.779 6
  23467094.784   -14414454.955 7  -5947030.974 7
  25860017.300     -795312.265 5   2620680.833 3
  24988019.683    13604910.446 6  10573202.855 5
  26398599.440    -1830745.501 3  -1387237.092 4
  22831040.081   -10702879.776 7   3643661.148 7
  22829976.222   -13261844.164 7   -596596.432 8
  24120900.104   -10056500.970 6  -4713845.117 6
 94  2 17 21 52  0.0070000  0  8  2 27 28 29 16 18 19 31
  25259541.854    -7287681.406 6  -5552773.994 6
  23460929.745   -14446851.012 7  -5972274.658 7
  25872000.800     -732333.049 5   2669755.498 2
  25008611.628    13713119.717 5  10657521.650 5
  26392907.464    -1860632.787 3  -1410525.835 2
  22844019.284   -10634671.900 7   3696810.101 8
  22832351.901   -13249358.910 7   -586867.675 8
  24122177.784   -10049778.889 6  -4708607.142 6
 94  2 17 21 52 30.0070000  0  8  2 27 28 29 16 18 19 31
  25247780.526    -7349477.679 6  -5600926.909 6
  23454794.714   -14479089.087 7  -5997395.211 7
  25884088.550     -668828.898 5   2719239.226 3
  25029248.050    13821565.541 5  10742024.810 5
  26387318.815    -1890023.036 4  -1433427.253 3
  22857088.050   -10565998.676 7   3750321.688 8
  22834761.026   -13236693.160 7   -576998.252 8
  24123578.815   -10042425.269 6  -4702877.033 6
 94  2 17 21 53  0.0070000  0  8  2 27 28 29 16 18 19 31
  25236071.112    -7411023.920 6  -5648884.992 6
  23448686.026   -14511184.408 7  -6022404.519 8
  25896279.323     -604804.924 5   2769127.996 3
  25049935.604    13930267.701 5  10826727.701 5
  26381814.800    -1918928.971 4  -1455951.312 3
  22870244.487   -10496862.296 7   3804194.171 8
  22837202.604   -13223864.648 7   -567001.997 8
  24125100.620   -10034443.125 6  -4696657.178 6
 94  2 17 21 53 30.0070000  0  8  2 27 28 29 16 18 19 31
  25224404.409    -7472322.001 6  -5696649.699 6
  23442603.315   -14543145.826 7  -6047309.491 8
  25908550.183     -540272.585 5   2819412.900 4
  25070672.729    14039242.251 5  10911642.833 5
  26376408.940    -1947348.492 3  -1478096.310 2
  22883489.237   -10427262.980 7   3858427.382 8
  22839676.964   -13210868.750 7   -556875.308 8
  24126729.300   -10025865.612 6  -4689973.383 6
 94  2 17 21 54  0.0070000  0  8  2 27 28 29 16 18 19 31
  25212783.948    -7533388.129 6  -5744233.660 6
  23436544.862   -14574984.721 7  -6072118.997 8
  25920930.253     -475232.707 5   2870093.259 5
  25091462.417    14148488.515 6  10996769.684 5
  26371096.542    -1975287.228 4  -1499866.742 2
  22896818.401   -10357218.479 7   3913007.481 8
  22842184.284   -13197687.172 7   -546603.947 8
  24128468.815   -10016709.784 6  -4682838.975 6
 94  2 17 21 54 30.0070000  0  8  2 27 28 29 16 18 19 31
  25201205.206    -7594227.136 6  -5791640.634 6
  23430510.620   -14606701.165 7  -6096833.071 8
  25933395.651     -409687.870 5   2921167.119 4
  25112305.870    14258024.023 6  11082121.936 5
  26365869.198    -2002729.603 4  -1521250.355 3
  22910227.604   -10286736.051 7   3967928.831 8
  22844731.612   -13184304.541 7   -536175.921 8
  24130323.667   -10006984.089 6  -4675260.501 6
 94  2 17 21 55  0.0070000  0  8  2 27 28 29 16 18 19 31
  25189676.987    -7654829.973 6  -5838863.579 6
  23424499.683   -14638281.184 7  -6121440.853 8
  25945964.433     -343659.974 5   2972617.366 4
  25133200.565    14367853.185 5  11167703.004 5
  26360741.073    -2029662.858 4  -1542237.287 2
  22923724.401   -10215819.170 7   4023188.714 8
  22847320.534   -13170707.714 7   -525580.994 8
  24132275.167    -9996721.042 6  -4667263.310 6
 94  2 17 21 55 30.0070000  0  8  2 27 28 29 16 18 19 31
  25178185.706    -7715188.999 6  -5885896.527 6
  23418521.331   -14669696.399 7  -6145920.225 8
  25958620.925     -277142.728 4   3024448.946 4
  25154154.894    14477963.694 5  11253503.288 5
  26355710.472    -2056087.606 5  -1562827.992 2
  22937304.362   -10144455.799 7   4078796.511 8
  22849947.784   -13156890.747 7   -514814.526 8
  24134333.644    -9985919.887 6  -4658846.821 6
 94  2 17 21 56  0.0070000  0  8  2 27 28 29 16 18 19 31
  25166754.347    -7775304.708 6  -5932739.881 6
  23412578.745   -14700930.034 7  -6170258.097 8
  25971386.081     -210132.112 5   3076664.956 4
  25175163.526    14588344.914 5  11339514.514 5
  26350783.065    -2082002.066 5  -1583021.065 3
  22950967.737   -10072645.372 7   4134752.662 8
  22852616.714   -13142863.917 7   -503884.533 8
  24136494.558    -9974547.346 6  -4649985.093 6
 94  2 17 21 56 30.0070000  0  8  2 27 28 29 16 18 19 31
  25155351.472    -7835168.827 6  -5979387.181 6
  23406673.511   -14731969.082 7  -6194444.347 8
  25984227.120     -142627.971 5   3129265.553 3
  25196220.612    14698986.302 5  11425728.476 5
  26345956.183    -2107402.917 5  -1602813.925 3
  22964725.323   -10000357.886 7   4191080.549 8
  22855323.190   -13128646.938 7   -492806.373 8
  24138768.175    -9962591.473 6  -4640668.825 6
 94  2 17 21 57  0.0070000  0  8  2 27 28 29 16 18 19 31
  25144013.675    -7894776.129 6  -6025834.367 6
  23400802.269   -14762812.141 7  -6218477.882 8
  25997167.128      -74631.073 4   3182250.089 4
  25217320.847    14809873.293 5  11512133.829 5
  26341213.714    -2132311.966 4  -1622223.566 2
  22978575.175    -9927581.713 7   4247789.231 8
  22858061.659   -13114253.740 7   -481590.906 8
  24141159.831    -9950031.942 6  -4630882.162 6
 94  2 17 21 57 30.0070000  0  8  2 27 28 29 16 18 19 31
  25132715.300    -7954132.166 6  -6072085.729 6
  23394968.886   -14793467.977 7  -6242365.496 8
  26010196.253       -6139.867 4   3235619.825 4
  25238464.214    14920995.116 5  11598722.169 5
  26336568.456    -2156732.724 4  -1641252.735 2
  22992521.019    -9854316.093 7   4304879.310 8
  22860830.245   -13099696.296 7   -470247.433 8
  24143659.894    -9936831.507 6  -4620596.078 6
 94  2 17 21 58  0.0070000  0  8  2 27 28 29 16 18 19 31
  25121471.276    -8013234.759 6  -6118139.623 6
  23389167.995   -14823949.071 7  -6266116.982 8
  26023315.276       62836.841 4   3289367.859 4
  25259652.190    15032351.533 5  11685493.309 5
  26332007.690    -2180650.421 4  -1659889.927 3
  23006549.401    -9780568.405 7   4362345.011 8
  22863636.011   -13084958.302 7   -458763.296 8
  24146309.800    -9922982.785 6  -4609804.859 6
 94  2 17 21 58 30.0070000  0  8  2 27 28 29 16 18 19 31
  25110273.651    -8072076.781 6  -6163990.474 6
  23383397.847   -14854272.149 7  -6289745.320 8
  26036547.628      132286.325 4   3343484.303 3
  25280888.612    15143946.752 5  11772450.528 5
  26327546.979    -2204076.033 4  -1678143.627 3
  23020672.386    -9706342.821 7   4420183.116 8
  22866475.245   -13070024.045 7   -447126.214 8
  24149063.628    -9908503.740 6  -4598522.471 6
 94  2 17 21 59  0.0070000  0  8  2 27 28 29 16 18 19 31
  25099130.495    -8130659.585 6  -6209639.347 6
  23377657.323   -14884444.328 7  -6313256.093 8
  26049843.823      202202.227 4   3397964.183 2
  25302169.331    15255796.162 5  11859605.815 5
  26323187.620    -2227014.132 4  -1696017.499 2
  23034884.940    -9631666.059 7   4478372.769 8
  22869359.644   -13054879.086 7   -435324.953 8
  24151934.464    -9893398.765 6  -4586752.362 6
 94  2 17 21 59 30.0070000  0  8  2 27 28 29 16 18 19 31
  25088028.675    -8188988.815 6  -6255090.615 6
  23371942.253   -14914469.363 7  -6336652.196 8
  26063232.964      272580.528 4   3452804.381 3
  25323510.714    15367900.835 5  11946960.002 4
  26318912.831    -2249436.480 4  -1713489.456 2
  23049177.683    -9556546.571 7   4536907.419 8
  22872286.237   -13039507.765 7   -423347.291 8
  24154925.558    -9877698.206 6  -4574518.133 6
 94  2 17 22  0  0.0070000  0  8  2 27 28 29 16 18 19 31
  25076979.019    -8247054.627 6  -6300336.639 6
  23366260.065   -14944333.008 7  -6359922.556 8
  26076716.409      343424.790 4   3508007.654 3
  25344891.128    15480269.784 5  12034520.104 4
  26314759.175    -2271335.394 4  -1730553.572 2
  23063560.815    -9480973.969 7   4595795.126 8
  22875257.706   -13023892.128 7   -411179.278 8
  24158020.136    -9861426.059 6  -4561838.538 6
 94  2 17 22  0 30.0070000  0  8  2 27 28 29 16 18 19 31
  25065973.128    -8304860.984 6  -6345380.483 6
  23360610.065   -14974032.478 7  -6383064.970 8
  26090286.808      414736.518 3   3563575.200 3
  25366324.065    15592908.311 5  12122290.298 5
  26310689.706    -2292712.555 4  -1747211.121 3
  23078028.644    -9404938.405 7   4655043.597 8
  22878270.612   -13008052.453 7   -398836.668 8
  24161228.347    -9844583.404 6  -4548714.372 6
 94  2 17 22  1  0.0070000  0  8  2 27 28 29 16 18 19 31
  25055025.425    -8362417.412 6  -6390229.606 6
  23354988.948   -15003562.635 7  -6406075.465 8
  26103941.472      486518.885 3   3619509.456 3
  25387809.714    15705817.825 5  12210271.610 3
  26306724.487    -2313555.865 4  -1763452.683 4
  23092588.440    -9328436.068 7   4714655.769 7
  22881330.331   -12991991.014 7   -386321.279 8
  24164540.862    -9827167.781 6  -4535143.766 6
 94  2 17 22  1 30.0070000  0  8  2 27 28 29 16 18 19 31
  25044122.550    -8419713.728 6  -6434876.029 6
  23349404.581   -15032915.983 7  -6428948.181 8
  26117700.659      558790.511 3   3675824.965 3
  25409350.667    15819003.644 5  12298468.242 4
  26302848.995    -2333854.982 4  -1779270.209 3
  23107236.956    -9251457.290 7   4774639.213 7
  22884428.206   -12975704.149 7   -373630.218 8
  24167966.823    -9809178.989 6  -4521126.520 6
 94  2 17 22  2  0.0070000  0  8  2 27 28 29 16 18 19 31
  25033268.237    -8476738.246 6  -6479310.669 6
  23343852.448   -15062090.545 7  -6451681.589 8
  26131540.292      631560.356 3   3732528.664 4
  25430939.253    15932473.570 5  12386886.265 2
  26299087.323    -2353632.538 4  -1794681.314 3
  23121975.542    -9174001.737 7   4834994.164 7
  22887567.104   -12959209.120 7   -360776.953 8
  24171502.144    -9790586.023 6  -4506638.485 6
 94  2 17 22  2 30.0070000  0  8  2 27 28 29 16 18 19 31
  25022471.269    -8533490.842 6  -6523533.428 6
  23338330.964   -15091098.536 7  -6474285.199 8
  26145491.394      704830.432 3   3789622.185 3
  25452583.269    16046224.085 5  12475522.926 3
  26295430.315    -2372897.404 4  -1809692.904 3
  23136805.823    -9096082.749 7   4895710.235 7
  22890741.948   -12942522.087 7   -347774.072 8
  24175158.589    -9771373.750 6  -4491667.868 6
 94  2 17 22  3  0.0070000  0  8  2 27 28 29 16 18 19 31
  25011722.464    -8589973.508 6  -6567545.862 6
  23332843.659   -15119942.952 7  -6496761.350 8
  26159527.034      778608.709 4   3847111.697 3
  25474286.159    16160231.649 5  12564359.887 3
  26291865.737    -2391647.341 4  -1824303.267 3
  23151717.206    -9017712.534 7   4956777.912 7
  22893954.456   -12925634.817 7   -334615.159 8
  24178930.151    -9751553.383 6  -4476223.422 6
 94  2 17 22  3 30.0070000  0  8  2 27 28 29 16 18 19 31
  25001027.800    -8646184.668 6  -6611346.741 6
  23327385.995   -15148610.015 7  -6519099.300 8
  26173667.370      852888.298 4   3904991.846 2
  25496018.495    16274475.865 5  12653381.249 3
  26288386.143    -2409889.101 5  -1838517.641 3
  23166712.878    -8938902.195 7   5018188.536 7
  22897202.839   -12908558.735 7   -321309.121 8
  24182817.269    -9731113.321 6  -4460296.101 6
 94  2 17 22  4  0.0070000  0  8  2 27 28 29 16 18 19 31
  24990377.089    -8702132.744 6  -6654942.606 6
  23321966.534   -15177102.771 7  -6541301.421 8
  26187887.769      927635.435 4   3963236.314 1
  25517797.854    16388925.455 5  12742562.635 2
  26285019.558    -2427638.871 5  -1852348.638 3
  23181794.089    -8859649.422 7   5079943.920 7
  22900487.026   -12891306.802 7   -307866.057 8
  24186827.362    -9710051.057 6  -4443883.946 6
 94  2 17 22  4 30.0070000  0  8  2 27 28 29 16 18 19 31
  24979777.667    -8757830.187 6  -6698343.190 6
  23316574.214   -15205428.889 7  -6563373.695 8
  26202193.386     1002844.829 4   4021840.963 3
  25539617.026    16503556.693 5  12831885.546 3
  26281723.495    -2444883.886 5  -1865786.288 3
  23196959.011    -8779956.368 7   5142042.373 7
  22903806.159   -12873868.264 7   -294277.587 8
  24190949.776    -9688394.124 6  -4427008.408 6
 94  2 17 22  5  0.0070000  0  8  2 27 28 29 16 18 19 31
  24969229.347    -8813276.235 6  -6741547.879 6
  23311218.487   -15233582.497 7  -6585311.557 8
  26216596.870     1078508.859 4   4080799.849 3
  25561463.065    16618362.367 5  12921344.382 4
  26278552.597    -2461613.503 5  -1878822.366 4
  23212209.886    -8699817.849 7   5204487.943 7
  22907162.354   -12856231.978 7   -280535.034 8
  24195178.151    -9666148.100 6  -4409673.856 6
 94  2 17 22  5 30.0070000  0  8  2 27 28 29 16 18 19 31
  24958723.378    -8868460.265 6  -6784548.375 6
  23305894.175   -15261562.400 7  -6607114.047 8
  26231085.370     1154611.525 4   4140100.611 2
  25583349.253    16733356.279 5  13010949.925 4
  26275459.128    -2477835.752 4  -1891463.090 4
  23227544.979    -8619237.243 7   5267278.010 7
  22910555.362   -12838399.398 7   -266639.499 8
  24199527.144    -9643304.419 6  -4391873.581 6
 94  2 17 22  6  0.0070000  0  8  2 27 28 29 16 18 19 31
  24948274.940    -8923370.969 6  -6827335.913 6
  23300597.776   -15289394.104 7  -6628801.075 8
  26245643.995     1231165.682 4   4199753.138 3
  25605268.229    16848554.448 5  13100714.595 4
  26272468.737    -2493538.119 4  -1903698.697 4
  23242963.167    -8538210.140 7   5330415.981 7
  22913988.714   -12820364.993 7   -252586.710 8
  24203986.972    -9619872.900 6  -4373615.271 6
 94  2 17 22  6 30.0070000  0  8  2 27 28 29 16 18 19 31
  24937884.354    -8978016.672 6  -6869916.927 6
  23295327.792   -15317084.805 7  -6650378.213 8
  26260302.440     1308184.637 4   4259767.886 2
  25627233.120    16963979.964 5  13190656.454 4
  26269586.620    -2508707.445 4  -1915518.918 4
  23258460.925    -8456762.372 7   5393881.761 7
  22917458.026   -12802121.412 7   -238370.908 8
  24208556.847    -9595851.348 6  -4354897.171 6
 94  2 17 22  7  0.0070000  0  8  2 27 28 29 16 18 19 31
  24927531.292    -9032383.592 6  -6912280.720 6
  23290084.979   -15344620.420 7  -6671834.501 8
  26275048.456     1385660.586 3   4320138.712 2
  25649246.034    17079661.748 5  13280797.976 5
  26266786.222    -2523344.919 4  -1926924.711 2
  23274038.175    -8374904.772 7   5457666.885 7
  22920970.440   -12783662.735 7   -223987.505 8
  24213248.534    -9571216.064 6  -4335700.843 6
 94  2 17 22  7 30.0070000  0  8  2 27 28 29 16 18 19 31
  24917242.206    -9086461.165 6  -6954419.033 7
  23284881.331   -15371990.747 7  -6693162.008 7
  26289880.034     1463598.699 3   4380869.657 2
  25671317.253    17195619.434 5  13371154.489 4
  26264111.862    -2537442.593 4  -1937909.875 2
  23289692.269    -8292639.092 7   5521769.987 7
  22924523.222   -12764986.919 7   -209434.915 8
  24218053.933    -9545956.691 6  -4316018.222 6
 94  2 17 22  8  0.0070000  0  8  2 27 28 29 16 18 19 31
  24907002.651    -9140264.399 6  -6996343.591 6
  23279701.823   -15399194.122 7  -6714359.421 7
  26304788.815     1541998.643 3   4441960.441 3
  25693431.183    17311848.168 5  13461722.213 4
  26261536.378    -2550998.098 4  -1948472.584 4
  23305426.284    -8209960.491 7   5586194.843 7
  22928119.534   -12746092.498 7   -194711.983 8
  24222977.347    -9520078.273 6  -4295853.241 6
 94  2 17 22  8 30.0070000  0  8  2 27 28 29 16 18 19 31
  24896818.097    -9193806.617 6  -7038064.759 6
  23274563.097   -15426200.387 7  -6735403.243 8
  26319797.878     1620853.785 3   4503405.930 2
  25715587.214    17428335.257 5  13552491.248 4
  26259063.722    -2564019.794 5  -1958619.318 3
  23321239.269    -8126865.142 7   5650944.432 7
  22931759.151   -12726965.162 7   -179807.560 8
  24228019.386    -9493579.901 6  -4275205.165 6
 94  2 17 22  9  0.0070000  0  8  2 27 28 29 16 18 19 31
  24886677.409    -9247078.700 6  -7079575.412 6
  23269462.620   -15453006.181 7  -6756290.839 7
  26334894.042     1700156.178 3   4565199.961 2
  25737801.644    17545049.680 5  13643437.427 4
  26256685.323    -2576522.801 4  -1968361.886 3
  23337134.464    -8043336.123 7   5716031.960 7
  22935443.229   -12707612.141 7   -164727.260 8
  24233173.198    -9466480.191 6  -4254088.506 6
 94  2 17 22  9 30.0070000  0  8  2 27 28 29 16 18 19 31
  24876588.104    -9300096.797 6  -7120888.164 6
  23264396.284   -15479629.385 7  -6777036.155 7
  26350076.136     1779904.283 3   4627341.278 2
  25760055.339    17661955.555 5  13734532.788 3
  26254393.011    -2588523.332 4  -1977712.887 2
  23353112.394    -7959368.703 7   5781461.087 7
  22939164.683   -12688044.032 7   -149479.372 8
  24238442.464    -9438802.224 6  -4232521.264 6
 94  2 17 22 10  0.0070000  0  8  2 27 28 29 16 18 19 31
  24866543.073    -9352863.954 6  -7162005.377 6
  23259367.995   -15506058.466 7  -6797630.211 8
  26365324.886     1860107.311 3   4689837.108 1
  25782331.089    17779039.920 5  13825767.227 3
  26252204.534    -2600020.694 5  -1986671.834 3
  23369177.323    -7874951.925 7   5847240.360 7
  22942934.276   -12668247.164 7   -134053.230 8
  24243821.659    -9410540.601 6  -4210499.232 6
 94  2 17 22 10 30.0070000  0  8  2 27 28 29 16 18 19 31
  24856556.526    -9405365.482 6  -7202915.614 6
  23254373.776   -15532298.565 7  -6818077.011 7
  26380680.854     1940765.273 4   4752687.413 2
  25804647.769    17896288.255 5  13917129.441 3
  26250114.339    -2611019.251 5  -1995242.092 3
  23385323.597    -7790100.813 7   5913358.072 7
  22946741.073   -12648229.117 7   -118454.748 8
  24249312.065    -9381690.666 6  -4188018.771 6
 94  2 17 22 11  0.0070000  0  8  2 27 28 29 16 18 19 31
  24846618.253    -9457593.656 6  -7243612.847 6
  23249412.737   -15558369.506 7  -6838392.001 7
  26396110.026     2021864.087 3   4815881.236 2
  25826987.729    18013705.857 5  14008623.537 3
  26248124.089    -2621511.955 5  -2003418.196 2
  23401550.440    -7704823.718 7   5979807.723 8
  22950591.081   -12628007.459 7   -102697.602 8
  24254918.597    -9352244.134 6  -4165073.425 6
 94  2 17 22 11 30.0070000  0  8  2 27 28 29 16 18 19 31
  24836730.886    -9509548.454 6  -7284097.059 6
  23244486.042   -15584264.201 7  -6858569.660 7
  26411632.300     2103398.747 4   4879414.688 2
  25849370.159    18131312.464 5  14100264.922 3
  26246227.917    -2631470.737 5  -2011178.248 4
  23417859.862    -7619120.922 7   6046589.087 7
  22954478.503   -12607574.481 7    -86775.799 8
  24260636.948    -9322178.836 6  -4141645.924 6
 94  2 17 22 12  0.0070000  0  8  2 27 28 29 16 18 19 31
  24826897.956    -9561223.786 6  -7324363.504 6
  23239589.581   -15609979.205 7  -6878607.299 8
  26427226.214     2185361.045 4   4943281.355 2
  25871786.198    18249117.578 5  14192060.966 2
  26244431.159    -2640886.107 5  -2018514.844 4
  23434248.479    -7532992.675 7   6113701.964 8
  22958406.722   -12586933.064 7    -70691.568 8
  24266477.386    -9291486.924 6  -4117730.157 6
 94  2 17 22 12 30.0070000  0  8  2 27 28 29 16 18 19 31
  24817113.667    -9612627.472 6  -7364418.299 7
  23234730.362   -15635529.626 7  -6898516.710 8
  26442906.675     2267744.066 3   5007475.850 2
  25894243.440    18367130.444 5  14284018.898 3
  26242741.737    -2649753.865 5  -2025424.775 4
  23450722.167    -7446436.083 7   6181148.605 8
  22962371.792   -12566095.484 7    -54454.506 8
  24272437.409    -9260167.648 6  -4093325.560 6
 94  2 17 22 13  0.0070000  0  8  2 27 28 29 16 18 19 31
  24807385.808    -9663775.702 6  -7404274.032 7
  23229900.370   -15660912.595 7  -6918295.632 8
  26458650.909     2350540.534 3   5071992.503 2
  25916744.956    18485369.484 5  14376153.072 4
  26241157.315    -2658065.602 5  -2031901.416 3
  23467275.472    -7359434.833 7   6248941.750 8
  22966376.292   -12545059.680 7    -38062.966 8
  24278510.659    -9228232.746 6  -4068441.239 6
 94  2 17 22 13 30.0070000  0  8  2 27 28 29 16 18 19 31
  24797697.378    -9714677.244 7  -7443937.531 7
  23225100.792   -15686136.313 7  -6937950.448 7
  26474489.534     2433761.515 3   5136839.965 2
  25939287.120    18603826.529 5  14468457.127 4
  26239684.120    -2665845.619 5  -2037963.734 3
  23483917.292    -7271983.268 7   6317085.790 8
  22970414.464   -12523829.646 7    -21520.076 8
  24284704.948    -9195696.436 6  -4043088.268 6
 94  2 17 22 14  0.0070000  0  8  2 27 28 29 16 18 19 31
  24788058.925    -9765334.327 7  -7483410.552 7
  23220329.612   -15711196.243 7  -6957477.643 8
  26490431.331     2517427.139 4   5202033.907 3
  25961864.253    18722501.648 5  14560931.102 2
  26238298.956    -2673109.048 5  -2043623.503 4
  23500643.940    -7184082.766 7   6385579.655 8
  22974492.542   -12502406.423 7     -4826.657 8
  24291009.042    -9162558.491 6  -4017266.506 6
 94  2 17 22 14 30.0070000  0  8  2 27 28 29 16 18 19 31
  24778466.894    -9815735.406 6  -7522684.077 7
  23215597.308   -15736074.712 7  -6976863.440 7
  26506413.534     2601538.413 3   5267575.136 2
  25984494.940    18841390.054 5  14653571.279 2
  26237018.925    -2679855.328 5  -2048880.322 4
  23517453.667    -7095743.405 7   6454415.483 8
  22978606.573   -12480791.219 7     12016.358 8
  24297431.558    -9128822.313 6  -3990978.588 6
 94  2 17 22 15  0.0070000  0  8  2 27 28 29 16 18 19 31
  24768927.136    -9865859.231 7  -7561741.573 7
  23210896.620   -15760767.786 7  -6996104.787 8
  26522504.987     2686083.518 4   5333454.396 2
  26007156.097    18960479.951 5  14746368.459 3
  26235823.526    -2686095.926 5  -2053743.093 4
  23534344.448    -7006984.825 7   6523577.978 8
  22982757.909   -12458976.744 7     29014.659 8
  24303963.081    -9094494.040 6  -3964229.305 6
 94  2 17 22 15 30.0070000  0  8  2 27 28 29 16 18 19 31
  24759449.253    -9915685.183 7  -7600566.960 7
  23206236.526   -15785266.530 7  -7015194.684 8
  26538689.487     2771066.144 3   5399674.575 2
  26029849.112    19079759.092 5  14839313.098 2
  26234729.612    -2691832.770 5  -2058213.342 4
  23551309.933    -6917824.085 7   6593053.842 7
  22986947.144   -12436954.289 7     46175.007 8
  24310612.698    -9059568.703 6  -3937014.786 6
 94  2 17 22 16  0.0070000  0  8  2 27 28 29 16 18 19 31
  24750022.722    -9965199.296 7  -7639149.347 7
  23201612.370   -15809547.570 7  -7034114.961 8
  26554926.667     2856474.859 3   5466226.790 1
  26052589.003    19199229.770 5  14932406.978 1
  26233745.628    -2697040.616 5  -2062271.370 4
  23568352.456    -6828277.044 7   6662830.723 7
  22991181.261   -12414707.084 7     63510.489 8
  24317371.870    -9024044.990 6  -3909333.999 6
 94  2 17 22 16 30.0070000  0  8  2 27 28 29 16 18 19 31
  24740662.831   -10014398.002 7  -7677485.961 7
  23197032.737   -15833627.257 7  -7052878.331 8
  26571265.261     2942288.309 4   5533094.379 3
  26075362.300    19318892.755 5  15025650.725 4
  26232856.456    -2701717.122 5  -2065915.418 3
  23585465.362    -6738343.840 7   6732908.514 7
  22995457.448   -12392234.839 7     81021.330 8
  24324241.511    -8987936.083 6  -3881197.206 6
 94  2 17 22 17  0.0070000  0  8  2 27 28 29 16 18 19 31
  24731355.714   -10063297.380 7  -7715589.338 7
  23192484.597   -15857528.473 7  -7071502.644 8
  26587665.495     3028516.017 3   5600284.768 1
  26098167.433    19438758.421 5  15119052.401 2
  26232069.144    -2705860.875 5  -2069144.268 3
  23602655.394    -6648018.032 7   6803292.225 7
  22999776.534   -12369529.881 7     98713.508 8
  24331223.011    -8951239.387 6  -3852602.404 6
 94  2 17 22 17 30.0070000  0  8  2 27 28 29 16 18 19 31
  24722105.526   -10111912.009 6  -7753470.827 7
  23187970.479   -15881250.614 7  -7089987.420 8
  26604162.644     3115161.944 3   5667801.030 2
  26121019.026    19558822.591 5  15212608.754 3
  26231378.019    -2709472.078 5  -2071958.219 2
  23619920.487    -6557290.944 7   6873988.627 7
  23004142.136   -12346592.195 7    116587.021 8
  24338319.987    -8913950.746 6  -3823546.342 6
 94  2 17 22 18  0.0070000  0  8  2 27 28 29 16 18 19 31
  24712907.690   -10160252.319 6  -7791138.555 7
  23183490.565   -15904798.184 7  -7108336.173 8
  26620727.651     3202223.897 4   5735641.457 2
  26143907.753    19679085.899 5  15306320.266 3
  26230794.011    -2712555.506 5  -2074360.864 3
  23637262.604    -6466154.988 7   6945003.622 7
  23008548.136   -12323435.816 7    134630.949 8
  24345528.042    -8876066.415 6  -3794026.098 6
 94  2 17 22 18 30.0070000  0  8  2 27 28 29 16 18 19 31
  24703755.808   -10208325.384 6  -7828598.040 7
  23179039.487   -15928178.577 7  -7126554.646 8
  26637377.745     3289701.041 4   5803805.409 2
  26166829.456    19799537.517 5  15400178.518 2
  26230301.448    -2715123.778 5  -2076362.108 3
  23654684.269    -6374606.401 7   7016340.152 7
  23012996.526   -12300079.838 7    152830.399 8
  24352852.308    -8837584.053 6  -3764039.851 6
 94  2 17 22 19  0.0070000  0  8  2 27 28 29 16 18 19 31
  24694661.394   -10256129.573 6  -7865848.011 7
  23174628.018   -15951368.578 7  -7144624.769 8
  26654101.104     3377591.662 4   5872291.560 2
  26189773.698    19920159.144 5  15494169.247 3
  26229922.440    -2717177.483 5  -2077962.393 3
  23672179.698    -6282659.485 7   7087987.068 7
  23017481.214   -12276509.997 7    171196.499 8
  24360286.558    -8798498.577 6  -3733583.649 6
 94  2 17 22 19 30.0070000  0  8  2 27 28 29 16 18 19 31
  24685619.065   -10303658.390 6  -7902883.407 7
  23170253.925   -15974354.623 7  -7162535.966 8
  26670899.823     3465871.451 4   5941080.991 1
  26212757.729    20040929.298 5  15588275.714 1
  26229623.417    -2718717.690 5  -2079162.520 3
  23689749.776    -6190326.281 7   7159934.984 7
  23022003.948   -12252729.368 7    189726.855 8
  24367840.276    -8758809.581 6  -3702657.166 6
 94  2 17 22 20  0.0070000  0  8  2 27 28 29 16 18 19 31
  24676627.683   -10350903.950 6  -7939698.073 7
  23165920.386   -15997121.048 7  -7180276.033 8
  26687775.940     3554546.254 4   6010178.191 3
  26235779.831    20161860.277 5  15682507.482 3
  26229430.487    -2719724.498 5  -2079947.027 4
  23707395.050    -6097599.867 7   7232189.301 7
  23026573.120   -12228724.860 7    208431.670 8
  24375510.323    -8718513.522 6  -3671257.642 6
 94  2 17 22 20 30.0070000  0  8  2 27 28 29 16 18 19 31
  24667689.854   -10397867.746 6  -7976293.180 7
  23161632.159   -16019664.159 7  -7197842.085 8
  26704725.769     3643612.344 3   6079580.293 1
  26258816.823    20282939.950 5  15776855.125 2
  26229336.026    -2720194.766 5  -2080313.472 5
  23725111.433    -6004487.777 7   7304744.137 7
  23031188.776   -12204475.501 7    227327.277 8
  24383293.808    -8677608.142 6  -3639383.323 6
 94  2 17 22 21  0.0070000  0  8  2 27 28 29 16 18 19 31
  24658803.862   -10444553.072 6  -8012671.300 7
  23157381.659   -16041992.095 7  -7215240.472 8
  26721747.190     3733068.448 3   6149286.316 2
  26281882.784    20404168.057 5  15871318.425 2
  26229357.722    -2720122.255 5  -2080256.979 3
  23742906.519    -5910979.841 7   7377607.431 7
  23035852.433   -12179963.481 7    246427.551 8
  24391195.776    -8636090.479 6  -3607031.892 6
 94  2 17 22 21 30.0070000  0  8  2 27 28 29 16 18 19 31
  24649975.308   -10490955.786 6  -8048829.200 7
  23153172.511   -16064114.698 7  -7232478.862 8
  26738841.386     3822921.763 3   6219301.864 1
  26304984.550    20525557.236 5  15965907.229 3
  26229465.831    -2719509.213 5  -2079779.255 4
  23760781.120    -5817060.563 7   7450791.247 7
  23040561.979   -12155215.837 7    265711.430 8
  24399209.222    -8593969.968 6  -3574210.711 6
 94  2 17 22 22  0.0070000  0  8  2 27 28 29 16 18 19 31
  24641198.573   -10537080.008 7  -8084770.096 7
  23149001.386   -16086038.731 7  -7249562.512 8
  26756024.128     3913184.625 3   6289636.549 1
  26328115.222    20647107.189 5  16060621.321 2
  26229692.042    -2718358.843 5  -2078882.842 5
  23778729.433    -5722730.761 7   7524294.959 7
  23045312.964   -12130246.115 7    285168.363 8
  24407337.433    -8551260.826 6  -3540930.863 6
 94  2 17 22 22 30.0070000  0  8  2 27 28 29 16 18 19 31
  24632474.518   -10582917.998 7  -8120487.956 7
  23144864.370   -16107779.343 7  -7266503.235 8
  26773274.503     4003858.020 3   6360291.087 2
  26351267.433    20768806.913 5  16155452.124 3
  26230016.003    -2716670.160 5  -2077566.992 4
  23796757.667    -5627998.432 7   7598112.316 7
  23050102.636   -12105072.929 7    304783.836 8
  24415577.917    -8507966.594 6  -3507195.095 6
 94  2 17 22 23  0.0070000  0  8  2 27 28 29 16 18 19 31
  24623807.581   -10628475.001 7  -8155986.860 7
  23140758.097   -16129349.089 7  -7283310.813 8
  26790598.206     4094929.129 3   6431255.586 2
  26374462.354    20890662.065 4  16250404.037 3
  26230431.479    -2714442.289 5  -2075830.991 3
  23814859.089    -5532868.412 7   7672239.578 7
  23054927.456   -12079719.631 7    324539.662 8
  24423925.479    -8464098.465 6  -3473012.133 6
 94  2 17 22 23 30.0070000  0  8  2 27 28 29 16 18 19 31
  24615189.925   -10673751.969 7  -8191267.567 7
  23136684.901   -16150748.714 7  -7299985.824 8
  26808002.698     4186392.187 3   6502525.464 2
  26397679.823    21012675.646 5  16345479.386 3
  26230962.792    -2711676.455 5  -2073675.790 5
  23833035.104    -5437360.135 7   7746661.580 7
  23059786.886   -12054195.011 7    344428.981 8
  24432382.073    -8419665.920 6  -3438389.371 6
 94  2 17 22 24  0.0070000  0  8  2 27 28 29 16 18 19 31
  24606626.464   -10718763.162 7  -8226341.164 7
  23132646.448   -16171977.180 7  -7316527.472 8
  26825479.909     4278243.065 3   6574097.525 1
  26420924.800    21134840.129 4  16440672.325 3
  26231588.823    -2708366.355 5  -2071096.478 5
  23851279.675    -5341485.180 7   7821369.302 7
  23064677.354   -12028481.950 7    364465.136 8
  24440947.253    -8374654.922 6  -3403315.881 6
 94  2 17 22 24 30.0070000  0  8  2 27 28 29 16 18 19 31
  24598108.089   -10763513.569 7  -8261211.551 7
  23128639.612   -16193028.173 7  -7332930.829 8
  26843037.573     4370463.835 3   6645957.821 1
  26444205.222    21257171.215 3  16535995.088 2
  26232319.870    -2704528.300 5  -2068105.790 5
  23869595.581    -5245231.769 7   7896371.923 7
  23069611.378   -12002565.089 7    384660.096 8
  24449622.167    -8329050.288 6  -3367779.820 6
 94  2 17 22 25  0.0070000  0  8  2 27 28 29 16 18 19 31
  24589644.183   -10808002.437 7  -8295878.143 7
  23124671.628   -16213882.401 7  -7349180.860 8
  26860660.831     4463053.677 3   6718105.755 1
  26467508.417    21379689.112 3  16631463.403 2
  26233158.917    -2700172.022 5  -2064711.281 5
  23887987.042    -5148594.612 7   7971673.563 7
  23074586.104   -11976414.513 7    405037.173 8
  24458414.276    -8282842.615 6  -3331773.850 6
 94  2 17 22 25 30.0070000  0  8  2 27 28 29 16 18 19 31
  24581229.034   -10852220.523 7  -8330333.736 7
  23120744.644   -16234522.728 7  -7365264.216 8
  26878343.940     4556027.753 3   6790553.052 1
  26490863.956    21502391.678 3  16727075.644 3
  26234075.894    -2695304.792 5  -2060918.643 5
  23906448.831    -5051575.967 7   8047272.468 7
  23079608.120   -11950014.464 7    425608.643 8
  24467324.003    -8236035.708 6  -3295300.941 6
 94  2 17 22 26  0.0070000  0  8  2 27 28 29 16 18 19 31
  24572865.284   -10896152.589 7  -8364566.445 7
  23116858.792   -16254934.871 7  -7381169.759 8
  26896119.823     4649389.211 3   6863302.213 1
  26514258.065    21625272.833 4  16822827.034 2
  26235098.136    -2689933.364 5  -2056733.105 5
  23924983.503    -4954172.577 7   8123171.176 7
  23084681.792   -11923357.721 7    446380.136 8
  24476344.190    -8188623.746 6  -3258356.559 6
 94  2 17 22 26 30.0070000  0  8  2 27 28 29 16 18 19 31
  24564566.151   -10939787.342 7  -8398567.482 7
  23113016.276   -16275128.888 7  -7396905.333 8
  26913954.058     4743121.713 3   6936340.491 2
  26537669.714    21748326.396 4  16918712.789 1
  26236215.737    -2684062.307 5  -2052158.257 4
  23943591.159    -4856390.820 7   8199364.714 7
  23089801.769   -11896446.906 7    467349.596 8
  24485481.120    -8140619.612 6  -3220950.733 6
 94  2 17 22 27  0.0070000  0  8  2 27 28 29 16 18 19 31
  24556320.315   -10983120.605 7  -8432333.590 7
  23109215.417   -16295113.765 7  -7412477.936 9
  26931853.487     4837236.974 3   7009677.004 1
  26561113.558    21871520.120 3  17014707.739 2
  26237429.378    -2677677.763 5  -2047183.264 4
  23962265.558    -4758251.086 7   8275837.194 7
  23094969.417   -11869293.775 7    488507.879 8
  24494723.753    -8092044.034 6  -3183099.642 6
 94  2 17 22 27 30.0070000  0  8  2 27 28 29 16 18 19 31
  24548132.472   -11026149.317 7  -8465862.394 7
  23105450.948   -16314896.058 7  -7427892.688 9
  26949839.620     4931727.847 3   7083306.248 1
  26584576.862    21994828.292 4  17110791.879 2
  26238739.190    -2670772.311 5  -2041802.392 4
  23981011.808    -4659747.198 7   8352593.422 7
  23100179.987   -11841919.123 7    509838.778 8
  24504076.370    -8042899.460 6  -3144805.173 6
 94  2 17 22 28  0.0070000  0  8  2 27 28 29 16 18 19 31
  24539999.808   -11068882.797 7  -8499161.138 7
  23101721.269   -16334487.829 7  -7443158.981 9
  26967889.073     5026573.020 3   7157211.525 1
  26608057.979    22118249.519 3  17206964.134 3
  26240159.542    -2663338.427 5  -2036009.731 4
  23999825.862    -4560873.408 7   8429637.889 7
  23105428.034   -11814338.353 7    531330.291 8
  24513536.597    -7993183.318 6  -3106065.330 6
 94  2 17 22 28 30.0080000  0  8  2 27 28 29 16 18 19 31
  24531921.766   -11111332.849 7  -8532239.024 7
  23098029.281   -16353885.004 7  -7458273.636 9
  26986008.094     5121775.353 3   7231395.105 1
  26631574.898    22241791.309 3  17303230.302 2
  26241677.117    -2655363.797 5  -2029795.726 4
  24018714.680    -4461607.265 7   8506988.088 7
  23110716.508   -11786549.752 7    552983.745 8
  24523106.945    -7942890.730 6  -3066876.304 6
 94  2 17 22 29  0.0080000  0  8  2 27 28 29 16 18 19 31
  24523892.703   -11153512.602 7  -8565106.306 7
  23094379.391   -16373077.478 7  -7473228.786 9
  27004196.086     5217336.154 3   7305858.010 1
  26655099.211    22365438.710 3  17399578.820 2
  26243295.398    -2646849.647 5  -2023161.318 4
  24037677.859    -4361955.246 7   8584638.970 7
  23116042.000   -11758563.816 7    574790.969 8
  24532786.414    -7892022.549 6  -3027238.769 6
 94  2 17 22 29 30.0080000  0  8  2 27 28 29 16 18 19 31
  24515916.852   -11195433.743 7  -8597772.049 7
  23090765.828   -16392057.787 7  -7488018.621 9
  27022449.258     5313239.427 3   7380587.797 2
  26678657.586    22489221.418 3  17496032.730 2
  26245018.602    -2637795.726 5  -2016106.306 4
  24056716.086    -4261912.951 7   8662593.958 7
  23121405.359   -11730376.415 7    596755.179 8
  24542577.945    -7840563.412 6  -2987140.734 6
 94  2 17 22 30  0.0080000  0  7  2 27 29 16 18 19 31
  24507987.648   -11237095.749 7  -8630235.881 7
  23087196.727   -16410821.123 7  -7502639.384 9
  26702244.351    22613159.942 3  17592608.072 1
  26246836.117    -2628199.259 5  -2008628.504 4
  24075824.898    -4161489.167 7   8740846.216 7
  23126811.937   -11701966.423 7    618892.833 8
  24552486.898    -7788517.241 6  -2946585.291 6
 94  2 17 22 30 30.0080000  0  7  2 27 29 16 18 19 31
  24500111.109   -11278491.814 7  -8662492.484 7
  23083665.117   -16429370.968 7  -7517093.778 9
  26725852.625    22737237.259 3  17689291.566 2
  26248774.016    -2618070.281 5  -2000735.772 4
  24095006.539    -4060701.029 7   8819382.384 7
  23132261.406   -11673325.752 7    641210.246 8
  24562497.172    -7735887.009 6  -2905574.745 6
 94  2 17 22 31  0.0080000  0  7  2 27 29 16 18 19 31
  24492287.273   -11319604.966 7  -8694528.643 7
  23080175.680   -16447709.831 7  -7531383.779 9
  26749492.109    22861463.415 3  17786091.033 1
  26250806.195    -2607405.730 5  -1992425.731 4
  24114254.125    -3959567.615 7   8898187.592 7
  23137757.047   -11644445.861 7    663714.067 8
  24572621.172    -7682678.808 6  -2864113.823 6
 94  2 17 22 31 30.0080000  0  7  2 27 29 16 18 19 31
  24484520.711   -11360417.532 7  -8726330.583 7
  23076726.344   -16465835.592 7  -7545507.724 9
  26773161.852    22985841.477 3  17883008.859 1
  26252931.867    -2596206.466 5  -1983699.024 5
  24133561.570    -3858089.693 7   8977261.250 7
  23143302.031   -11615314.983 7    686413.455 8
  24582854.867    -7628904.039 6  -2822211.419 6
 94  2 17 22 32  0.0080000  0  7  2 27 29 16 18 19 31
  24476813.172   -11400918.978 7  -8757890.094 7
  23073318.094   -16483752.688 7  -7559469.069 9
  26796858.477    23110348.027 3  17980026.807 2
  26255163.281    -2584478.620 5  -1974560.430 3
  24152939.789    -3756269.842 7   9056601.346 7
  23148891.109   -11585932.103 7    709309.208 8
  24593196.359    -7574565.062 6  -2779869.381 6
 94  2 17 22 32 30.0080000  0  7  2 27 29 16 18 19 31
  24469163.758   -11441116.389 7  -8789212.693 7
  23069949.594   -16501448.373 7  -7573257.901 8
  26820568.875    23234968.526 3  18077133.537 1
  26257493.672    -2572229.836 5  -1965015.892 4
  24172374.789    -3654112.395 7   9136204.507 6
  23154528.859   -11556314.344 7    732387.986 8
  24603645.633    -7519657.819 6  -2737084.540 6
 94  2 17 22 33  0.0080000  0  7  2 27 29 16 18 19 31
  24461570.578   -11481022.105 7  -8820308.007 7
  23066629.586   -16518917.540 7  -7586870.217 9
  26844302.820    23359705.403 3  18174330.951 1
  26259924.750    -2559466.521 5  -1955070.447 5
  24191877.398    -3551609.831 7   9216076.589 6
  23160209.008   -11526458.136 7    755652.563 8
  24614201.953    -7464183.003 6  -2693857.432 6
 94  2 17 22 33 30.0080000  0  7  2 27 29 16 18 19 31
  24454029.297   -11520650.612 7  -8851187.307 7
  23063346.031   -16536156.889 7  -7600303.453 8
  26868058.578    23484535.762 3  18271601.227 1
  26262448.297    -2546198.764 5  -1944731.926 4
  24211452.289    -3448761.187 7   9296218.342 6
  23165938.383   -11496366.872 7    779100.303 8
  24624863.656    -7408144.563 6  -2650191.127 6
 94  2 17 22 34  0.0080000  0  7  2 27 29 16 18 19 31
  24446539.531   -11560009.940 7  -8881856.870 7
  23060108.484   -16553168.667 7  -7613559.363 8
  26891829.680    23609447.493 3  18368934.897 1
  26265066.422    -2532434.152 5  -1934006.251 5
  24231088.594    -3345578.974 7   9376620.020 6
  23171704.617   -11466048.855 7    802724.737 8
  24635635.281    -7351539.047 6  -2606082.945 6
 94  2 17 22 34 30.0080000  0  7  2 27 29 16 18 19 31
  24439102.156   -11599099.692 7  -8912316.372 7
  23056914.539   -16569951.363 7  -7626636.779 8
  26915617.383    23734455.078 3  18466343.243 1
  26267781.633    -2518176.279 5  -1922896.220 4
  24250789.453    -3242052.749 7   9457289.757 6
  23177518.945   -11435495.539 7    826532.515 8
  24646514.758    -7294376.424 6  -2561540.661 6
 94  2 17 22 35  0.0080000  0  7  2 27 29 16 18 19 31
  24431717.992   -11637906.988 7  -8942555.783 8
  23053763.312   -16586513.722 7  -7639542.507 9
  26939421.500    23859574.418 3  18563838.685 2
  26270591.437    -2503417.697 5  -1911396.020 5
  24270554.977    -3138181.766 7   9538228.133 6
  23183381.766   -11404686.219 7    850539.789 8
  24657496.133    -7236656.487 6  -2516564.111 6
 94  2 17 22 35 30.0080000  0  8  2 27  7 29 16 18 19 31
  24424388.867   -11676420.815 7  -8972566.517 7
  23050653.516   -16602845.696 7  -7652268.704 9
  27116813.453          -0.33714
  26963265.414    23984827.895 3  18661438.624 1
  26273501.078    -2488142.284 5  -1899493.113 3
  24290386.305    -3033973.929 7   9619429.002 6
  23189292.586   -11373627.089 7    874741.712 8
  24668586.641    -7178374.358 6  -2471149.483 6
 94  2 17 22 36  0.0080000  0  8  2 27  7 29 16 18 19 31
  24417116.609   -11714632.086 7  -9002341.499 8
  23047589.953   -16618953.237 7  -7664820.025 9
  27099504.086      -90959.024 4        -0.46711
  26987124.359    24110233.286 3  18759156.905 1
  26276505.523    -2472336.480 5  -1887176.886 2
  24310280.797    -2929420.204 7   9700899.392 6
  23195248.797   -11342321.512 7    899135.676 8
  24679791.391    -7119512.983 6  -2425283.486 6
 94  2 17 22 36 30.0080000  0  8  2 27  7 29 16 18 19 31
  24409900.281   -11752549.563 7  -9031887.548 8
  23044566.062   -16634845.252 7  -7677203.391 8
  27082192.359     -181939.695 4    -70894.215 1
  27011017.086    24235783.995 3  18856988.444 2
  26279610.852    -2456000.390 5  -1874447.455 4
  24330242.078    -2824519.483 7   9782640.156 6
  23201251.008   -11310782.206 7    923711.758 8
  24691096.297    -7060077.233 6  -2378969.930 6
 94  2 17 22 37  0.0080000  0  8  2 27  7 29 16 18 19 31
  24402740.523   -11790174.657 7  -9061205.767 8
  23041583.133   -16650515.342 7  -7689413.839 8
  27064875.516     -272931.434 4   -141796.619 1
  27034928.430    24361462.894 3  18954919.863 1
  26282829.117    -2439117.762 5  -1861292.171 5
  24350272.875    -2719278.189 7   9864646.315 6
  23207295.297   -11279027.255 7    948455.876 8
  24702523.555    -7000050.909 6  -2332196.188 6
 94  2 17 22 37 30.0080000  0  7  2 27  7 16 18 19 31
  24395635.695   -11827511.960 7  -9090299.737 8
  23038645.039   -16665953.896 7  -7701443.868 8
  27047558.547     -363926.239 4   -212701.433 1
  26286148.406    -2421681.524 5  -1847705.480 3
  24370366.203    -2613681.106 6   9946929.705 6
  23213374.805   -11247069.015 7    973358.401 8
  24714058.055    -6939436.085 6  -2284963.872 6
 94  2 17 22 38  0.0080000  0  7  2 27  7 16 18 19 31
  24388582.031   -11864572.761 7  -9119178.246 8
  23035750.594   -16681172.770 7  -7713302.716 8
  27030240.789     -454927.057 4   -283610.911 1
  26289562.125    -2403718.905 5  -1833708.640 5
  24390527.539    -2507733.928 6  10029485.892 6
  23219493.727   -11214917.297 7    998411.684 8
  24725700.234    -6878251.206 6  -2237287.348 5
 94  2 17 22 38 30.0080000  0  7  2 27  7 16 18 19 31
  24381581.586   -11901368.528 7  -9147850.240 8
  23032898.000   -16696158.700 7  -7724980.058 8
  27012925.656     -545926.045 4   -354519.005 1
  26293079.687    -2385241.489 5  -1819310.658 5
  24410752.742    -2401437.120 6  10112314.519 6
  23225649.484   -11182566.030 7   1023620.467 8
  24737451.250    -6816512.547 6  -2189179.312 6
 94  2 17 22 39  0.0080000  0  7  2 27  7 16 18 19 31
  24374630.570   -11937890.268 7  -9176308.703 8
  23030094.398   -16710904.168 7  -7736470.026 8
  26995602.820     -636927.528 4   -425429.033 1
  26296694.977    -2366260.626 5  -1804520.367 5
  24431048.734    -2294788.991 6  10195416.906 6
  23231848.828   -11149997.171 7   1048998.798 8
  24749301.992    -6754226.877 6  -2140645.034 6
 94  2 17 22 39 30.0080000  0  7  2 27  7 16 18 19 31
  24367736.109   -11974133.942 7  -9204550.491 8
  23027332.992   -16725407.295 7  -7747771.158 8
  26978289.156     -727932.128 4   -496341.492 2
  26300397.617    -2346791.429 5  -1789349.574 5
  24451408.476    -2187793.787 6  10278789.737 6
  23238091.258   -11117189.873 7   1074562.923 8
  24761258.281    -6691393.743 6  -2091684.175 6
 94  2 17 22 40  0.0080000  0  7  2 27  7 16 18 19 31
  24360893.414   -12010092.228 7  -9232569.896 8
  23024615.742   -16739678.283 7  -7758891.394 8
  26960969.430     -818945.501 5   -567260.756 2
  26304186.891    -2326840.440 5  -1773803.349 5
  24471830.297    -2080471.441 6  10362417.486 6
  23244381.969   -11084130.081 7   1100323.794 8
  24773321.625    -6628008.595 6  -2042293.184 6
 94  2 17 22 40 30.0080000  0  7  2 27  7 16 18 19 31
  24354103.953   -12045758.909 7  -9260362.075 8
  23021942.961   -16753725.445 7  -7769837.212 8
  26943654.000     -909966.427 4   -638185.974 3
  26308080.391    -2306387.485 5  -1757865.991 5
  24492316.930    -1972817.427 6  10446303.677 6
  23250724.641   -11050803.148 7   1126292.831 8
  24785486.820    -6564056.419 6  -1992460.345 6
 94  2 17 22 41  0.0080000  0  7  2 27  7 16 18 19 31
  24347376.781   -12081114.743 7  -9287912.031 8
  23019312.578   -16767552.077 7  -7780611.200 9
  26926321.328    -1000996.038 4   -709117.916 1
  26312069.242    -2285421.777 5  -1741529.105 4
  24512865.930    -1864843.651 6  10530439.031 6
  23257116.695   -11017210.109 7   1152469.220 8
  24797769.406    -6499530.510 6  -1942180.436 6
 94  2 17 22 41 30.0080000  0  7  2 27  7 16 18 19 31
  24340708.258   -12116164.448 7  -9315223.442 8
  23016721.961   -16781166.655 7  -7791219.948 8
  26909007.523    -1092031.585 5   -780054.503 2
  26316166.164    -2263929.311 5  -1724781.730 5
  24533469.836    -1756559.178 6  10614816.492 6
  23263559.062   -10983352.732 7   1178851.587 8
  24810150.273    -6434440.705 6  -1891461.139 6
 94  2 17 22 42  0.0080000  0  7  2 27  7 16 18 19 31
  24334094.703   -12150908.275 7  -9342296.505 8
  23014170.711   -16794572.535 7  -7801666.071 8
  26891678.211    -1183067.721 4   -850991.585 2
  26320353.977    -2241905.506 5  -1707620.346 5
  24554136.945    -1647966.970 6  10699433.740 6
  23270049.836   -10949242.738 7   1205430.788 8
  24822645.492    -6368808.811 6  -1840319.425 6
 94  2 17 22 42 30.0080000  0  7  2 27  7 16 18 19 31
  24327541.836   -12185354.764 7  -9369137.867 7
  23011662.344   -16807754.372 7  -7811937.614 8
  26874360.016    -1274099.146 4   -921925.004 2
  26324642.461    -2219365.700 5  -1690056.862 5
  24574857.445    -1539074.308 6  10784285.109 6
  23276585.195   -10914902.869 7   1232189.120 8
  24835235.414    -6302654.202 6  -1788770.402 6
 94  2 17 22 43  0.0080000  0  7  2 27  7 16 18 19 31
  24321041.727   -12219504.098 7  -9395747.689 8
  23009199.227   -16820700.319 7  -7822025.345 8
  26857037.977    -1365124.997 4   -992854.117 3
  26329030.969    -2196323.099 5  -1672101.619 5
  24595631.508    -1429895.815 6  10869359.202 6
  23283163.547   -10880332.509 7   1259127.055 8
  24847913.312    -6235995.044 6  -1736828.222 6
 94  2 17 22 43 30.0080000  0  7  2 27  7 16 18 19 31
  24314599.828   -12253369.552 7  -9422136.282 7
  23006779.914   -16833404.471 7  -7831924.673 8
  26839721.250    -1456146.760 5  -1063780.038 2
  26333503.461    -2172784.469 5  -1653759.828 4
  24616460.898    -1320438.104 7  10954650.876 6
  23289783.187   -10845533.202 7   1286243.389 8
  24860700.898    -6168829.027 6  -1684491.093 6
 94  2 17 22 44  0.0080000  0  7  2 27  7 16 18 19 31
  24308204.555   -12286964.592 7  -9448314.170 7
  23004411.945   -16845854.938 7  -7841626.316 8
  26822393.492    -1547160.191 5  -1134699.501 3
  26338080.297    -2148759.074 5  -1635038.759 3
  24637341.602    -1210707.147 7  11040155.472 6
  23296448.406   -10810519.492 7   1313526.790 8
  24873582.484    -6101134.159 6  -1631741.862 6
 94  2 17 22 44 30.0080000  0  7  2 27  7 16 18 19 31
  24301860.023   -12320301.626 7  -9474291.012 7
  23002088.492   -16858055.806 7  -7851133.482 8
  26805079.664    -1638171.321 5  -1205617.170 2
  26342740.172    -2124251.401 5  -1615941.888 4
  24658280.078    -1100697.732 7  11125877.048 6
  23303154.898   -10775284.314 7   1340982.769 8
  24886563.352    -6032896.688 6  -1578569.822 6
 94  2 17 22 45  0.0080000  0  7  2 27  7 16 18 19 31
  24295566.602   -12353381.334 7  -9500067.348 7
  22999812.719   -16870022.508 7  -7860458.183 8
  26787754.766    -1729174.269 4  -1276528.466 2
  26347500.617    -2099243.176 5  -1596454.983 4
  24679266.445     -990391.696 6  11211829.753 6
  23309903.141   -10739808.420 7   1368626.315 8
  24899656.727    -5964112.447 6  -1524971.726 5
 94  2 17 22 45 30.0080000  0  7  2 27  7 16 18 19 31
  24289321.305   -12386207.298 7  -9525645.959 7
  22997582.055   -16881743.857 7  -7869591.695 8
  26770445.445    -1820147.196 5  -1347416.350 3
  26352352.602    -2073732.182 5  -1576576.307 5
  24700317.062     -879773.358 6  11298025.805 6
  23316703.633   -10704080.636 7   1396466.136 8
  24912856.289    -5894765.664 6  -1470935.275 5
 94  2 17 22 46  0.0080000  0  7  2 27  7 16 18 19 31
  24283122.570   -12418769.217 7  -9551018.829 7
  22995398.539   -16893224.756 7  -7878537.842 8
  26753148.992    -1911075.413 5  -1418269.421 3
  26357305.781    -2047723.742 5  -1556309.988 4
  24721427.039     -768833.557 7  11384472.356 6
  23323550.477   -10668084.764 7   1424514.865 8
  24926151.320    -5824872.575 6  -1416473.144 6
 94  2 17 22 46 30.0080000  0  7  2 27  7 16 18 19 31
  24276980.883   -12451046.192 7  -9576169.664 7
  22993257.680   -16904471.948 7  -7887301.881 8
  26735847.351    -2001962.376 5  -1489090.324 4
  26362347.961    -2021220.198 5  -1535657.904 5
  24742597.977     -657584.524 7  11471159.865 6
  23330456.766   -10631805.882 7   1452784.116 8
  24939551.070    -5754464.159 6  -1361609.452 5
 94  2 17 22 47  0.0080000  0  7  2 27  7 16 18 19 31
  24270897.750   -12483021.927 7  -9601085.765 7
  22991164.391   -16915468.888 7  -7895870.920 8
  26718563.726    -2092799.945 5  -1559872.745 4
  26367488.102    -1994222.058 5  -1514620.406 5
  24763824.141     -546040.240 7  11558077.438 6
  23337413.258   -10595243.720 7   1481274.106 8
  24953044.922    -5683541.962 6  -1306345.417 6
 94  2 17 22 47 30.0080000  0  7  2 27  7 16 18 19 31
  24264866.734   -12514694.465 7  -9625765.620 7
  22989122.953   -16926203.964 7  -7904235.911 8
  26701285.000    -2183592.313 5  -1630619.940 3
  26372720.641    -1966738.219 5  -1493204.442 4
  24785102.047     -434217.123 6  11645212.282 6
  23344422.266   -10558408.712 7   1509976.705 8
  24966644.641    -5612092.622 6  -1250670.609 6
 94  2 17 22 48  0.0080000  0  7  2 27  7 16 18 19 31
  24258900.547   -12546059.881 7  -9650206.159 7
  22987127.008   -16936686.247 7  -7912403.925 8
  26684008.625    -2274361.571 5  -1701349.103 3
  26378043.797    -1938756.030 5  -1471400.159 5
  24806433.070     -322123.770 6  11732557.699 6
  23351481.047   -10521323.465 7   1538874.297 8
  24980337.359    -5540128.111 6  -1194594.374 6
 94  2 17 22 48 30.0080000  0  7  2 27  7 16 18 19 31
  24252985.992   -12577129.139 7  -9674415.932 7
  22985180.211   -16946915.634 7  -7920374.863 8
  26666736.922    -2365112.717 5  -1772064.116 4
  26383461.227    -1910272.662 5  -1449205.355 5
  24827815.750     -209747.853 6  11820123.288 6
  23358579.352   -10484012.144 7   1567948.051 8
  24994129.101    -5467638.644 6  -1138109.079 5
 94  2 17 22 49  0.0080000  0  7  2 27  7 16 18 19 31
  24247126.766   -12607928.647 7  -9698415.511 7
  22983283.758   -16956889.251 7  -7928146.507 8
  26649477.812    -2455840.231 5  -1842760.695 4
  26388973.016    -1881295.498 5  -1426625.767 5
  24849264.070      -97070.372 6  11907923.855 6
  23365721.414   -10446487.488 7   1597188.044 8
  25008027.133    -5394609.069 6  -1081202.929 6
 94  2 17 22 49 30.0080000  0  7  2 27  7 16 18 19 31
  24241313.094   -12638467.820 7  -9722212.238 7
  22981432.219   -16966610.399 7  -7935721.416 8
  26632222.844    -2546533.929 5  -1913430.919 4
  26394591.836    -1851819.381 5  -1403657.388 5
  24870763.594       15920.460 6  11995968.602 6
  23372900.187   -10408755.706 7   1626589.429 8
  25022029.000    -5321046.283 6  -1023881.293 5
 94  2 17 22 50  0.0080000  0  7  2 27  7 16 18 19 31
  24235555.836   -12668736.251 7  -9745797.996 7
  22979631.961   -16976072.164 7  -7943094.204 8
  26614976.352    -2637183.894 5  -1984067.027 4
  26400292.398    -1821848.512 5  -1380303.490 5
  24892323.539      129223.925 6  12084256.955 6
  23380119.312   -10370817.475 7   1656151.678 8
  25036124.797    -5246967.835 6   -966157.837 6
 94  2 17 22 50 30.0080000  0  7  2 27  7 16 18 19 31
  24229846.797   -12698728.867 7  -9769168.836 7
  22977884.031   -16985264.791 7  -7950257.282 8
  26597736.359    -2727762.422 5  -2054647.434 4
  26406083.422    -1791389.246 5  -1356569.026 5
  24913944.898      242832.565 6  12172783.114 6
  23387382.234   -10332655.948 7   1685887.930 8
  25050316.008    -5172369.759 6   -908029.476 5
 94  2 17 22 51  0.0080000  0  7  2 27  7 16 18 19 31
  24224193.805   -12728437.444 7  -9792318.338 8
  22976183.383   -16994188.057 7  -7957210.468 9
  26580511.937    -2818270.190 5  -2125172.707 4
  26411972.469    -1760432.601 5  -1332446.990 5
  24935613.195      356722.258 6  12261528.274 6
  23394690.219   -10294254.226 7   1715811.341 8
  25064616.617    -5097260.240 6   -849502.586 5
 94  2 17 22 51 30.0080000  0  7  2 27  7 16 18 19 31
  24218599.281   -12757841.830 7  -9815230.819 8
  22974533.547   -17002853.962 7  -7963963.108 9
  26563297.625    -2908719.452 5  -2195652.401 4
  26417959.773    -1728970.972 5  -1307931.465 5
  24957335.844      470866.169 6  12350471.523 6
  23402042.453   -10255611.556 7   1745922.506 8
  25078998.609    -5021651.477 6   -790586.681 5
 94  2 17 22 52  0.0080000  0  7  2 27  7 16 18 19 31
  24213062.609   -12786945.991 7  -9837909.336 8
  22972932.367   -17011277.287 7  -7970526.719 9
  26546092.273    -2999115.575 5  -2266090.630 5
  26424045.273    -1697005.855 5  -1283023.601 5
  24979102.695      585252.417 6  12439603.614 6
  23409445.234   -10216707.058 7   1776237.710 8
  25093483.062    -4945546.400 6   -731284.025 5
 94  2 17 22 52 30.0080000  0  7  2 27  7 16 18 19 31
  24207575.008   -12815768.966 7  -9860368.773 8
  22971375.930   -17019462.134 7  -7976904.529 9
  26528907.086    -3089464.279 5  -2336491.954 4
  26430231.281    -1664534.908 5  -1257721.599 5
  25000918.086      699886.506 6  12528928.808 6
  23416900.594   -10177522.624 7   1806771.024 8
  25108061.742    -4868946.507 6   -671595.824 5
 94  2 17 22 53  0.0080000  0  7  2 27  7 16 18 19 31
  24202143.609   -12844313.857 7  -9882611.496 8
  22969861.141   -17027412.243 7  -7983099.409 9
  26511716.555    -3179777.328 5  -2406865.473 4
  26436496.000    -1631570.687 5  -1232035.211 5
  25022779.125      814765.281 6  12618444.674 6
  23424411.601   -10138065.319 7   1837516.967 8
  25122729.578    -4791857.908 6   -611526.797 5
 94  2 17 22 53 30.0080000  0  7  2 27  7 16 18 19 31
  24196765.016   -12872585.327 7  -9904641.146 8
  22968394.094   -17035119.388 7  -7989104.951 8
  26494541.156    -3270039.516 5  -2477199.360 3
  26442859.453    -1598134.516 5  -1205981.074 5
  25044686.008      929895.230 6  12708156.292 6
  23431971.164   -10098341.561 7   1868470.555 8
  25137492.312    -4714287.187 6   -551082.086 5
 94  2 17 22 54  0.0080000  0  7  2 27  7 16 18 19 31
  24191428.375   -12900611.282 7  -9926479.509 8
  22966976.031   -17042573.872 7  -7994913.631 8
  26477369.437    -3360241.048 5  -2547486.011 3
  26449306.937    -1564249.098 5  -1179576.874 5
  25066643.375     1045289.460 6  12798073.811 6
  23439580.812   -10058356.699 7   1899627.578 8
  25152339.094    -4636231.600 6   -490259.567 5
 94  2 17 22 54 30.0080000  0  7  2 27  7 16 18 19 31
  24186150.891   -12928366.919 7  -9948107.238 8
  22965609.453   -17049759.520 7  -8000512.832 8
  26460228.203    -3450359.943 5  -2617708.297 4
  26455843.102    -1529915.454 5  -1152823.416 5
  25088652.922     1160949.429 6  12888198.409 6
  23447235.039   -10018127.305 7   1930975.149 8
  25167288.164    -4557686.656 6   -429055.737 5
 94  2 17 22 55  0.0080000  0  7  2 27  7 16 18 19 31
  24180922.062   -12955836.652 7  -9969512.177 8
  22964289.047   -17056687.847 7  -8005911.517 8
  26443091.539    -3540386.720 5  -2687858.802 2
  26462460.000    -1495132.888 5  -1125720.144 4
  25110709.211     1276861.980 6  12978519.825 6
  23454932.961    -9977666.310 7   1962503.195 8
  25182336.508    -4478641.437 6   -367462.084 5
 94  2 17 22 55 30.0080000  0  7  2 27  7 16 18 19 31
  24175747.273   -12983019.316 7  -9990693.424 8
  22963022.742   -17063358.291 7  -8011109.271 8
  26425972.531    -3630318.279 5  -2757935.132 4
  26469165.094    -1459889.027 5  -1098257.445 4
  25132821.680     1393035.491 6  13069044.576 6
  23462681.594    -9936953.138 7   1994227.730 8
  25197471.297    -4399083.254 6   -305468.731 5
 94  2 17 22 56  0.0080000  0  7  2 27  7 16 18 19 31
  24170631.930   -13009911.964 7 -10011648.700 8
  22961801.258   -17069765.876 7  -8016102.197 8
  26408879.109    -3720169.880 5  -2827949.184 5
  26475964.328    -1424168.865 5  -1070423.600 4
  25154974.508     1509459.417 6  13159764.449 6
  23470480.555    -9895978.435 7   2026156.052 8
  25212707.383    -4319016.090 6   -243078.779 5
 94  2 17 22 56 30.0080000  0  7  2 27  7 16 18 19 31
  24165571.539   -13036500.375 7 -10032366.884 8
  22960631.609   -17075910.578 7  -8020890.257 8
  26391797.672    -3809954.735 5  -2897911.220 5
  26482856.242    -1387959.374 5  -1042208.426 5
  25177174.031     1626120.047 6  13250668.794 6
  23478325.914    -9854741.503 7   2058288.733 8
  25228035.203    -4238455.712 6   -180304.466 5
 94  2 17 22 57  0.0080000  0  7  2 27  7 16 18 19 31
  24160566.828   -13062797.592 7 -10052858.208 8
  22959518.273   -17081775.190 7  -8025460.112 8
  26374723.203    -3899683.445 5  -2967829.542 4
  26489841.578    -1351254.617 5  -1013607.369 5
  25199424.305     1743036.548 6  13341772.479 6
  23486226.977    -9813222.414 7   2090641.238 8
  25243464.414    -4157392.177 6   -117138.126 5
 94  2 17 22 57 30.0080000  0  7  2 27  7 16 18 19 31
  24155618.750   -13088809.737 7 -10073127.381 8
  22958460.601   -17087335.571 7  -8029792.876 9
  26357664.836    -3989342.940 5  -3037693.940 5
  26496917.797    -1314063.947 5   -984627.646 5
  25221725.648     1860221.971 6  13433085.734 5
  23494177.430    -9771428.760 7   2123207.713 8
  25258981.953    -4075842.617 6    -53593.037 5
 94  2 17 22 58  0.0080000  0  7  2 27  7 16 18 19 31
  24150721.305   -13114533.376 7 -10093171.724 8
  22957458.172   -17092596.619 7  -8033892.380 8
  26340613.742    -4078924.360 5  -3107497.501 5
  26504082.930    -1276398.100 5   -955277.655 5
  25244066.047     1977669.341 6  13524603.117 5
  23502180.930    -9729387.484 7   2155967.155 8
  25274586.656    -3993824.987 6     10316.784 5
 94  2 17 22 58 30.0080000  0  7  2 27  7 16 18 19 31
  24145881.937   -13139966.903 7 -10112990.063 8
  22956508.398   -17097581.764 7  -8037776.943 8
  26323584.070    -4168412.946 5  -3177228.782 5
  26511337.250    -1238271.897 5   -925568.978 5
  25266473.578     2095377.134 6  13616323.375 5
  23510225.867    -9687101.836 7   2188916.968 8
  25290286.094    -3911334.086 6     74595.344 5
 94  2 17 22 59  0.0080000  0  7  2 27  7 16 18 19 31
  24141098.930   -13165107.233 7 -10132579.876 8
  22955613.258   -17102297.461 7  -8041451.479 8
  26306578.039    -4257786.067 5  -3246870.047 5
  26518681.859    -1199694.099 5   -895508.350 5
  25288916.461     2213340.710 6  13708243.014 5
  23518318.977    -9644574.811 7   2222054.934 8
  25306075.883    -3828364.491 6    139246.981 5
 94  2 17 22 59 30.0080000  0  7  2 27  7 16 18 19 31
  24136369.297   -13189954.807 7 -10151941.600 8
  22954763.617   -17106761.224 7  -8044929.739 8
  26289590.992    -4347044.513 5  -3316421.995 5
  26526104.516    -1160680.876 5   -865108.488 5
  25311407.180     2331532.521 6  13800340.461 5
  23526456.156    -9601816.481 7   2255373.099 8
  25321951.523    -3744934.938 6    204256.991 5
